<?xml version="1.0" encoding="UTF-8"?>
<gpx version="1.1" creator="2bulu-scraper" xmlns="http://www.topografix.com/GPX/1/1">
  <metadata><name>白鹤滩</name><desc>source: 2bulu.com trackId=75849132; exported 2026-09-01T18:37:33.639Z</desc>
    <bounds minlat="27.227242" minlon="102.8875077" maxlat="27.2652688" maxlon="102.9180377"/>
    <link href="https://www.2bulu.com/track/t-87C9k6pb9gjp%252FR2KBg5Tzw%253D%253D.htm"><text>2bulu 源页面</text></link>
  </metadata>
  <wpt lat="27.2294744" lon="102.9180377"><ele>1393</ele><name>
        </name></wpt>
  <wpt lat="27.227242" lon="102.91547"><ele>1361</ele><name>
        </name></wpt>
  <wpt lat="27.2274111" lon="102.9153407"><ele>1362</ele><name>
        </name></wpt>
  <wpt lat="27.2276217" lon="102.9151709"><ele>1373</ele><name>
        </name></wpt>
  <wpt lat="27.2277231" lon="102.9151491"><ele>1374</ele><name>
        </name></wpt>
  <wpt lat="27.2278192" lon="102.9151107"><ele>1379</ele><name>
        </name></wpt>
  <wpt lat="27.2330585" lon="102.914178"><ele>1517</ele><name>
        </name></wpt>
  <wpt lat="27.2335263" lon="102.9142552"><ele>1530</ele><name>
        </name></wpt>
  <wpt lat="27.234718" lon="102.9135682"><ele>1555</ele><name>
        </name></wpt>
  <wpt lat="27.234718" lon="102.9135682"><ele>1555</ele><name>
        </name></wpt>
  <wpt lat="27.2347346" lon="102.9130371"><ele>1528</ele><name>
        </name></wpt>
  <wpt lat="27.2348377" lon="102.9128031"><ele>1520</ele><name>
        </name></wpt>
  <wpt lat="27.2362142" lon="102.9116662"><ele>1490</ele><name>
        </name></wpt>
  <wpt lat="27.236267" lon="102.9116421"><ele>1484</ele><name>
        </name></wpt>
  <wpt lat="27.2363152" lon="102.9116169"><ele>1482</ele><name>
        </name></wpt>
  <wpt lat="27.2367281" lon="102.9114211"><ele>1476</ele><name>
        </name></wpt>
  <wpt lat="27.2373674" lon="102.9113997"><ele>1486</ele><name>
        </name></wpt>
  <wpt lat="27.2357609" lon="102.9111344"><ele>1423</ele><name>
        </name></wpt>
  <wpt lat="27.2351961" lon="102.9104574"><ele>1386</ele><name>
        </name></wpt>
  <wpt lat="27.2326913" lon="102.9097588"><ele>1286</ele><name>
        </name></wpt>
  <wpt lat="27.2344501" lon="102.9072572"><ele>1260</ele><name>神仙树
        </name></wpt>
  <wpt lat="27.2344952" lon="102.9072542"><ele>1267</ele><name>
        </name></wpt>
  <wpt lat="27.2367969" lon="102.9066708"><ele>1249</ele><name>
        </name></wpt>
  <wpt lat="27.2367969" lon="102.9066708"><ele>1249</ele><name>
        </name></wpt>
  <wpt lat="27.2379942" lon="102.906042"><ele>1245</ele><name>
        </name></wpt>
  <wpt lat="27.2401455" lon="102.905389"><ele>1219</ele><name>
        </name></wpt>
  <wpt lat="27.2420423" lon="102.9040357"><ele>1200</ele><name>
        </name></wpt>
  <wpt lat="27.244584" lon="102.9021362"><ele>1168</ele><name>
        </name></wpt>
  <wpt lat="27.2458179" lon="102.9010325"><ele>1132</ele><name>
        </name></wpt>
  <wpt lat="27.2460814" lon="102.9022972"><ele>1120</ele><name>
        </name></wpt>
  <wpt lat="27.2461037" lon="102.9026178"><ele>1117</ele><name>
        </name></wpt>
  <wpt lat="27.2468976" lon="102.9032771"><ele>1101</ele><name>
        </name></wpt>
  <wpt lat="27.2490637" lon="102.9034275"><ele>1085</ele><name>
        </name></wpt>
  <wpt lat="27.2495346" lon="102.9039691"><ele>1071</ele><name>
        </name></wpt>
  <wpt lat="27.2496566" lon="102.9040348"><ele>1071</ele><name>
        </name></wpt>
  <wpt lat="27.2496566" lon="102.9040348"><ele>1071</ele><name>
        </name></wpt>
  <wpt lat="27.2523292" lon="102.8996116"><ele>1109</ele><name>
        </name></wpt>
  <wpt lat="27.2526896" lon="102.8983315"><ele>1106</ele><name>
        </name></wpt>
  <wpt lat="27.2522523" lon="102.8972253"><ele>1100</ele><name>
        </name></wpt>
  <wpt lat="27.2618859" lon="102.8906244"><ele>985</ele><name>
        </name></wpt>
  <wpt lat="27.2644722" lon="102.8875095"><ele>929</ele><name>
        </name></wpt>
  <trk><name>白鹤滩</name>
      <trkseg>
        <trkpt lat="27.2294744" lon="102.9180377"><ele>1393</ele><time>2025-12-06T15:55:09.000Z</time></trkpt>
        <trkpt lat="27.2294855" lon="102.9179759"><ele>1393</ele><time>2025-12-06T15:56:25.000Z</time></trkpt>
        <trkpt lat="27.2294855" lon="102.9179759"><ele>1393</ele><time>2025-12-06T15:56:42.000Z</time></trkpt>
        <trkpt lat="27.2294762" lon="102.9179263"><ele>1388.53</ele><time>2025-12-06T15:56:46.000Z</time></trkpt>
        <trkpt lat="27.2294762" lon="102.9179263"><ele>1388.53</ele><time>2025-12-06T15:56:51.000Z</time></trkpt>
        <trkpt lat="27.2294523" lon="102.9178745"><ele>1386.77</ele><time>2025-12-06T15:57:29.000Z</time></trkpt>
        <trkpt lat="27.2294221" lon="102.9178176"><ele>1387.2</ele><time>2025-12-06T15:57:33.000Z</time></trkpt>
        <trkpt lat="27.2293973" lon="102.9177662"><ele>1387.61</ele><time>2025-12-06T15:57:39.000Z</time></trkpt>
        <trkpt lat="27.2293798" lon="102.9177106"><ele>1387.55</ele><time>2025-12-06T15:57:45.000Z</time></trkpt>
        <trkpt lat="27.2293649" lon="102.9176593"><ele>1386.9</ele><time>2025-12-06T15:57:49.000Z</time></trkpt>
        <trkpt lat="27.2293377" lon="102.9176149"><ele>1384.66</ele><time>2025-12-06T15:57:53.000Z</time></trkpt>
        <trkpt lat="27.2292961" lon="102.9176079"><ele>1384.61</ele><time>2025-12-06T15:57:58.000Z</time></trkpt>
        <trkpt lat="27.2292485" lon="102.917604"><ele>1385.11</ele><time>2025-12-06T15:58:01.000Z</time></trkpt>
        <trkpt lat="27.2291869" lon="102.9175891"><ele>1385.15</ele><time>2025-12-06T15:58:07.000Z</time></trkpt>
        <trkpt lat="27.2291352" lon="102.9175606"><ele>1385.43</ele><time>2025-12-06T15:58:11.000Z</time></trkpt>
        <trkpt lat="27.2290971" lon="102.9175211"><ele>1385.58</ele><time>2025-12-06T15:58:16.000Z</time></trkpt>
        <trkpt lat="27.2290636" lon="102.9174751"><ele>1385.89</ele><time>2025-12-06T15:58:19.000Z</time></trkpt>
        <trkpt lat="27.2290243" lon="102.9174251"><ele>1386.14</ele><time>2025-12-06T15:58:25.000Z</time></trkpt>
        <trkpt lat="27.2289796" lon="102.9173821"><ele>1385.78</ele><time>2025-12-06T15:58:31.000Z</time></trkpt>
        <trkpt lat="27.2289286" lon="102.917344"><ele>1385.48</ele><time>2025-12-06T15:58:35.000Z</time></trkpt>
        <trkpt lat="27.2288749" lon="102.9173076"><ele>1384.88</ele><time>2025-12-06T15:58:41.000Z</time></trkpt>
        <trkpt lat="27.2288347" lon="102.9172649"><ele>1383.88</ele><time>2025-12-06T15:58:45.000Z</time></trkpt>
        <trkpt lat="27.2287931" lon="102.9172199"><ele>1382.82</ele><time>2025-12-06T15:58:52.000Z</time></trkpt>
        <trkpt lat="27.2287643" lon="102.9171582"><ele>1381.94</ele><time>2025-12-06T15:58:55.000Z</time></trkpt>
        <trkpt lat="27.228719" lon="102.9171073"><ele>1381.26</ele><time>2025-12-06T15:59:01.000Z</time></trkpt>
        <trkpt lat="27.228677" lon="102.9170678"><ele>1380.43</ele><time>2025-12-06T15:59:05.000Z</time></trkpt>
        <trkpt lat="27.228618" lon="102.9170228"><ele>1379.52</ele><time>2025-12-06T15:59:11.000Z</time></trkpt>
        <trkpt lat="27.2285784" lon="102.9169823"><ele>1378.42</ele><time>2025-12-06T15:59:17.000Z</time></trkpt>
        <trkpt lat="27.2285333" lon="102.9169551"><ele>1377.83</ele><time>2025-12-06T15:59:23.000Z</time></trkpt>
        <trkpt lat="27.2284878" lon="102.9169282"><ele>1377.91</ele><time>2025-12-06T15:59:29.000Z</time></trkpt>
        <trkpt lat="27.2284477" lon="102.916901"><ele>1377.75</ele><time>2025-12-06T15:59:37.000Z</time></trkpt>
        <trkpt lat="27.2284049" lon="102.916855"><ele>1377.66</ele><time>2025-12-06T15:59:43.000Z</time></trkpt>
        <trkpt lat="27.2283609" lon="102.9167875"><ele>1377.53</ele><time>2025-12-06T15:59:49.000Z</time></trkpt>
        <trkpt lat="27.2283059" lon="102.9167328"><ele>1377.26</ele><time>2025-12-06T15:59:53.000Z</time></trkpt>
        <trkpt lat="27.2282433" lon="102.9167026"><ele>1378.16</ele><time>2025-12-06T15:59:57.000Z</time></trkpt>
        <trkpt lat="27.2281953" lon="102.9166645"><ele>1378.34</ele><time>2025-12-06T16:00:04.000Z</time></trkpt>
        <trkpt lat="27.2281468" lon="102.9166229"><ele>1377.36</ele><time>2025-12-06T16:00:09.000Z</time></trkpt>
        <trkpt lat="27.2281122" lon="102.9165809"><ele>1376.4</ele><time>2025-12-06T16:00:13.000Z</time></trkpt>
        <trkpt lat="27.2280795" lon="102.9165381"><ele>1375.4</ele><time>2025-12-06T16:00:17.000Z</time></trkpt>
        <trkpt lat="27.2280434" lon="102.9164956"><ele>1374.31</ele><time>2025-12-06T16:00:22.000Z</time></trkpt>
        <trkpt lat="27.2280108" lon="102.9164566"><ele>1373.35</ele><time>2025-12-06T16:00:25.000Z</time></trkpt>
        <trkpt lat="27.2279747" lon="102.9164169"><ele>1372.46</ele><time>2025-12-06T16:00:29.000Z</time></trkpt>
        <trkpt lat="27.2279408" lon="102.9163765"><ele>1371.86</ele><time>2025-12-06T16:00:33.000Z</time></trkpt>
        <trkpt lat="27.2279042" lon="102.9163394"><ele>1371.18</ele><time>2025-12-06T16:00:37.000Z</time></trkpt>
        <trkpt lat="27.2278687" lon="102.9163063"><ele>1370.57</ele><time>2025-12-06T16:00:41.000Z</time></trkpt>
        <trkpt lat="27.2278357" lon="102.9162653"><ele>1369.88</ele><time>2025-12-06T16:00:45.000Z</time></trkpt>
        <trkpt lat="27.2277969" lon="102.9162181"><ele>1369.14</ele><time>2025-12-06T16:00:51.000Z</time></trkpt>
        <trkpt lat="27.2277487" lon="102.9161697"><ele>1368</ele><time>2025-12-06T16:00:55.000Z</time></trkpt>
        <trkpt lat="27.2276931" lon="102.9161402"><ele>1367.02</ele><time>2025-12-06T16:01:01.000Z</time></trkpt>
        <trkpt lat="27.2276445" lon="102.9161042"><ele>1366.07</ele><time>2025-12-06T16:01:05.000Z</time></trkpt>
        <trkpt lat="27.2276006" lon="102.9160549"><ele>1365.49</ele><time>2025-12-06T16:01:11.000Z</time></trkpt>
        <trkpt lat="27.2275669" lon="102.9160108"><ele>1365.21</ele><time>2025-12-06T16:01:16.000Z</time></trkpt>
        <trkpt lat="27.2275288" lon="102.9159543"><ele>1364.86</ele><time>2025-12-06T16:01:21.000Z</time></trkpt>
        <trkpt lat="27.2275032" lon="102.9159014"><ele>1364.76</ele><time>2025-12-06T16:01:25.000Z</time></trkpt>
        <trkpt lat="27.2274817" lon="102.9158545"><ele>1364.74</ele><time>2025-12-06T16:01:29.000Z</time></trkpt>
        <trkpt lat="27.2274453" lon="102.9158018"><ele>1364.77</ele><time>2025-12-06T16:01:35.000Z</time></trkpt>
        <trkpt lat="27.2274143" lon="102.915755"><ele>1364.78</ele><time>2025-12-06T16:01:39.000Z</time></trkpt>
        <trkpt lat="27.2273791" lon="102.9157055"><ele>1364.68</ele><time>2025-12-06T16:01:45.000Z</time></trkpt>
        <trkpt lat="27.2273429" lon="102.9156629"><ele>1364.75</ele><time>2025-12-06T16:01:52.000Z</time></trkpt>
        <trkpt lat="27.2273137" lon="102.9156116"><ele>1364.49</ele><time>2025-12-06T16:01:59.000Z</time></trkpt>
        <trkpt lat="27.2272995" lon="102.9155456"><ele>1364.32</ele><time>2025-12-06T16:02:05.000Z</time></trkpt>
        <trkpt lat="27.227268" lon="102.9155136"><ele>1363.46</ele><time>2025-12-06T16:02:15.000Z</time></trkpt>
        <trkpt lat="27.227242" lon="102.91547"><ele>1362.2</ele><time>2025-12-06T16:02:39.000Z</time></trkpt>
        <trkpt lat="27.227242" lon="102.91547"><ele>1362.2</ele><time>2025-12-06T16:03:34.000Z</time></trkpt>
        <trkpt lat="27.2272845" lon="102.9154441"><ele>1361.66</ele><time>2025-12-06T16:03:46.000Z</time></trkpt>
        <trkpt lat="27.2272845" lon="102.9154441"><ele>1361.66</ele><time>2025-12-06T16:04:45.000Z</time></trkpt>
        <trkpt lat="27.227324" lon="102.9154128"><ele>1361.45</ele><time>2025-12-06T16:04:51.000Z</time></trkpt>
        <trkpt lat="27.2273672" lon="102.9153718"><ele>1361.36</ele><time>2025-12-06T16:04:59.000Z</time></trkpt>
        <trkpt lat="27.2274111" lon="102.9153407"><ele>1361</ele><time>2025-12-06T16:05:05.000Z</time></trkpt>
        <trkpt lat="27.2274111" lon="102.9153407"><ele>1361</ele><time>2025-12-06T16:07:28.000Z</time></trkpt>
        <trkpt lat="27.2274566" lon="102.9153069"><ele>1361.22</ele><time>2025-12-06T16:07:30.000Z</time></trkpt>
        <trkpt lat="27.2274566" lon="102.9153069"><ele>1361.22</ele><time>2025-12-06T16:07:51.000Z</time></trkpt>
        <trkpt lat="27.2274939" lon="102.9152651"><ele>1362.84</ele><time>2025-12-06T16:08:01.000Z</time></trkpt>
        <trkpt lat="27.2275365" lon="102.9152289"><ele>1364.97</ele><time>2025-12-06T16:08:13.000Z</time></trkpt>
        <trkpt lat="27.2275798" lon="102.9152"><ele>1367.05</ele><time>2025-12-06T16:08:23.000Z</time></trkpt>
        <trkpt lat="27.2276217" lon="102.9151709"><ele>1368.94</ele><time>2025-12-06T16:08:33.000Z</time></trkpt>
        <trkpt lat="27.2276217" lon="102.9151709"><ele>1368.94</ele><time>2025-12-06T16:09:04.000Z</time></trkpt>
        <trkpt lat="27.2276721" lon="102.9151586"><ele>1370.49</ele><time>2025-12-06T16:09:14.000Z</time></trkpt>
        <trkpt lat="27.2276721" lon="102.9151586"><ele>1370.49</ele><time>2025-12-06T16:09:15.000Z</time></trkpt>
        <trkpt lat="27.2277231" lon="102.9151491"><ele>1371.68</ele><time>2025-12-06T16:09:21.000Z</time></trkpt>
        <trkpt lat="27.2277718" lon="102.9151364"><ele>1372.86</ele><time>2025-12-06T16:09:31.000Z</time></trkpt>
        <trkpt lat="27.2278192" lon="102.9151107"><ele>1374.45</ele><time>2025-12-06T16:09:43.000Z</time></trkpt>
        <trkpt lat="27.2278192" lon="102.9151107"><ele>1374.45</ele><time>2025-12-06T16:10:06.000Z</time></trkpt>
        <trkpt lat="27.2278757" lon="102.9150805"><ele>1376.51</ele><time>2025-12-06T16:10:10.000Z</time></trkpt>
        <trkpt lat="27.2278757" lon="102.9150805"><ele>1376.51</ele><time>2025-12-06T16:10:17.000Z</time></trkpt>
        <trkpt lat="27.2279305" lon="102.9150515"><ele>1378.54</ele><time>2025-12-06T16:10:23.000Z</time></trkpt>
        <trkpt lat="27.2279762" lon="102.9150298"><ele>1379.87</ele><time>2025-12-06T16:10:31.000Z</time></trkpt>
        <trkpt lat="27.228014" lon="102.9149998"><ele>1381.16</ele><time>2025-12-06T16:10:41.000Z</time></trkpt>
        <trkpt lat="27.2280421" lon="102.9149597"><ele>1382.84</ele><time>2025-12-06T16:10:49.000Z</time></trkpt>
        <trkpt lat="27.2280764" lon="102.914918"><ele>1382.55</ele><time>2025-12-06T16:10:55.000Z</time></trkpt>
        <trkpt lat="27.2281069" lon="102.914877"><ele>1382.79</ele><time>2025-12-06T16:11:07.000Z</time></trkpt>
        <trkpt lat="27.2281452" lon="102.9148433"><ele>1383.78</ele><time>2025-12-06T16:11:22.000Z</time></trkpt>
        <trkpt lat="27.2281819" lon="102.9148118"><ele>1387.75</ele><time>2025-12-06T16:11:33.000Z</time></trkpt>
        <trkpt lat="27.2282292" lon="102.9147866"><ele>1389.97</ele><time>2025-12-06T16:11:43.000Z</time></trkpt>
        <trkpt lat="27.2282803" lon="102.9147739"><ele>1392.12</ele><time>2025-12-06T16:11:53.000Z</time></trkpt>
        <trkpt lat="27.2283288" lon="102.9147566"><ele>1393.67</ele><time>2025-12-06T16:12:05.000Z</time></trkpt>
        <trkpt lat="27.2283721" lon="102.9147348"><ele>1395.08</ele><time>2025-12-06T16:12:13.000Z</time></trkpt>
        <trkpt lat="27.2284044" lon="102.9146996"><ele>1396.59</ele><time>2025-12-06T16:12:27.000Z</time></trkpt>
        <trkpt lat="27.2284454" lon="102.9146616"><ele>1398.66</ele><time>2025-12-06T16:12:35.000Z</time></trkpt>
        <trkpt lat="27.2284454" lon="102.9146616"><ele>1398.66</ele><time>2025-12-06T16:13:04.000Z</time></trkpt>
        <trkpt lat="27.2284905" lon="102.9146288"><ele>1400.74</ele><time>2025-12-06T16:13:06.000Z</time></trkpt>
        <trkpt lat="27.2284905" lon="102.9146288"><ele>1400.74</ele><time>2025-12-06T16:13:15.000Z</time></trkpt>
        <trkpt lat="27.2285389" lon="102.9146199"><ele>1402.32</ele><time>2025-12-06T16:13:21.000Z</time></trkpt>
        <trkpt lat="27.2285928" lon="102.9146143"><ele>1403.51</ele><time>2025-12-06T16:13:31.000Z</time></trkpt>
        <trkpt lat="27.2286452" lon="102.9146122"><ele>1405.02</ele><time>2025-12-06T16:13:51.000Z</time></trkpt>
        <trkpt lat="27.2287022" lon="102.9146194"><ele>1406.78</ele><time>2025-12-06T16:14:01.000Z</time></trkpt>
        <trkpt lat="27.2287444" lon="102.9146096"><ele>1408.69</ele><time>2025-12-06T16:14:11.000Z</time></trkpt>
        <trkpt lat="27.2287935" lon="102.9146041"><ele>1410.52</ele><time>2025-12-06T16:14:27.000Z</time></trkpt>
        <trkpt lat="27.2288413" lon="102.9146046"><ele>1412.37</ele><time>2025-12-06T16:14:33.000Z</time></trkpt>
        <trkpt lat="27.2288978" lon="102.9146"><ele>1413.73</ele><time>2025-12-06T16:14:43.000Z</time></trkpt>
        <trkpt lat="27.2289502" lon="102.914586"><ele>1415.02</ele><time>2025-12-06T16:14:49.000Z</time></trkpt>
        <trkpt lat="27.2289944" lon="102.9145615"><ele>1415.99</ele><time>2025-12-06T16:14:57.000Z</time></trkpt>
        <trkpt lat="27.2290477" lon="102.914548"><ele>1417.09</ele><time>2025-12-06T16:15:05.000Z</time></trkpt>
        <trkpt lat="27.2291018" lon="102.9145419"><ele>1418.01</ele><time>2025-12-06T16:15:15.000Z</time></trkpt>
        <trkpt lat="27.2291543" lon="102.9145362"><ele>1418.85</ele><time>2025-12-06T16:15:27.000Z</time></trkpt>
        <trkpt lat="27.2292011" lon="102.9145191"><ele>1420.78</ele><time>2025-12-06T16:15:37.000Z</time></trkpt>
        <trkpt lat="27.2292459" lon="102.9145058"><ele>1422.85</ele><time>2025-12-06T16:15:51.000Z</time></trkpt>
        <trkpt lat="27.2292911" lon="102.9144984"><ele>1425.13</ele><time>2025-12-06T16:16:01.000Z</time></trkpt>
        <trkpt lat="27.2293424" lon="102.9144927"><ele>1426.88</ele><time>2025-12-06T16:16:07.000Z</time></trkpt>
        <trkpt lat="27.2293969" lon="102.9144851"><ele>1428.22</ele><time>2025-12-06T16:16:15.000Z</time></trkpt>
        <trkpt lat="27.2294484" lon="102.9145219"><ele>1429.28</ele><time>2025-12-06T16:16:23.000Z</time></trkpt>
        <trkpt lat="27.2294875" lon="102.9145659"><ele>1430.19</ele><time>2025-12-06T16:16:29.000Z</time></trkpt>
        <trkpt lat="27.2295285" lon="102.9146002"><ele>1430.83</ele><time>2025-12-06T16:16:35.000Z</time></trkpt>
        <trkpt lat="27.2295803" lon="102.9146292"><ele>1431.48</ele><time>2025-12-06T16:16:43.000Z</time></trkpt>
        <trkpt lat="27.2296315" lon="102.9146237"><ele>1432.05</ele><time>2025-12-06T16:16:55.000Z</time></trkpt>
        <trkpt lat="27.2296892" lon="102.914614"><ele>1432.47</ele><time>2025-12-06T16:17:03.000Z</time></trkpt>
        <trkpt lat="27.2297462" lon="102.9146071"><ele>1433.22</ele><time>2025-12-06T16:17:09.000Z</time></trkpt>
        <trkpt lat="27.2298005" lon="102.9145998"><ele>1434.32</ele><time>2025-12-06T16:17:15.000Z</time></trkpt>
        <trkpt lat="27.2298486" lon="102.9145953"><ele>1435.52</ele><time>2025-12-06T16:17:21.000Z</time></trkpt>
        <trkpt lat="27.2298917" lon="102.9146363"><ele>1436.46</ele><time>2025-12-06T16:17:27.000Z</time></trkpt>
        <trkpt lat="27.2299175" lon="102.9146864"><ele>1436.9</ele><time>2025-12-06T16:17:33.000Z</time></trkpt>
        <trkpt lat="27.2299574" lon="102.9147022"><ele>1437.5</ele><time>2025-12-06T16:17:39.000Z</time></trkpt>
        <trkpt lat="27.2300005" lon="102.914683"><ele>1438.08</ele><time>2025-12-06T16:17:49.000Z</time></trkpt>
        <trkpt lat="27.2300507" lon="102.914673"><ele>1439.09</ele><time>2025-12-06T16:17:59.000Z</time></trkpt>
        <trkpt lat="27.2301024" lon="102.9146848"><ele>1440.06</ele><time>2025-12-06T16:18:09.000Z</time></trkpt>
        <trkpt lat="27.2301512" lon="102.9146874"><ele>1440.99</ele><time>2025-12-06T16:18:19.000Z</time></trkpt>
        <trkpt lat="27.2301974" lon="102.9146777"><ele>1442.32</ele><time>2025-12-06T16:18:33.000Z</time></trkpt>
        <trkpt lat="27.2302435" lon="102.9146703"><ele>1443.22</ele><time>2025-12-06T16:18:41.000Z</time></trkpt>
        <trkpt lat="27.2302915" lon="102.9146526"><ele>1443.85</ele><time>2025-12-06T16:18:49.000Z</time></trkpt>
        <trkpt lat="27.2303491" lon="102.9146389"><ele>1444.5</ele><time>2025-12-06T16:18:57.000Z</time></trkpt>
        <trkpt lat="27.2303964" lon="102.9146603"><ele>1445.17</ele><time>2025-12-06T16:19:13.000Z</time></trkpt>
        <trkpt lat="27.2304077" lon="102.9147238"><ele>1446.64</ele><time>2025-12-06T16:19:23.000Z</time></trkpt>
        <trkpt lat="27.2304508" lon="102.9147629"><ele>1448.16</ele><time>2025-12-06T16:19:35.000Z</time></trkpt>
        <trkpt lat="27.2305004" lon="102.9147904"><ele>1448.93</ele><time>2025-12-06T16:19:41.000Z</time></trkpt>
        <trkpt lat="27.2305515" lon="102.9147907"><ele>1449.93</ele><time>2025-12-06T16:19:49.000Z</time></trkpt>
        <trkpt lat="27.2306" lon="102.9147879"><ele>1451.41</ele><time>2025-12-06T16:19:57.000Z</time></trkpt>
        <trkpt lat="27.2306476" lon="102.9148004"><ele>1453.28</ele><time>2025-12-06T16:20:03.000Z</time></trkpt>
        <trkpt lat="27.2307012" lon="102.9148024"><ele>1454.9</ele><time>2025-12-06T16:20:09.000Z</time></trkpt>
        <trkpt lat="27.2307511" lon="102.9147901"><ele>1456.56</ele><time>2025-12-06T16:20:15.000Z</time></trkpt>
        <trkpt lat="27.2307982" lon="102.9147762"><ele>1458.22</ele><time>2025-12-06T16:20:22.000Z</time></trkpt>
        <trkpt lat="27.2308627" lon="102.9147596"><ele>1456.02</ele><time>2025-12-06T16:20:29.000Z</time></trkpt>
        <trkpt lat="27.2309156" lon="102.9147504"><ele>1459.57</ele><time>2025-12-06T16:20:37.000Z</time></trkpt>
        <trkpt lat="27.2309513" lon="102.9147172"><ele>1462.45</ele><time>2025-12-06T16:20:43.000Z</time></trkpt>
        <trkpt lat="27.2309973" lon="102.9146843"><ele>1464.47</ele><time>2025-12-06T16:20:51.000Z</time></trkpt>
        <trkpt lat="27.2310326" lon="102.9146458"><ele>1463.18</ele><time>2025-12-06T16:20:58.000Z</time></trkpt>
        <trkpt lat="27.231061" lon="102.9146046"><ele>1462.9</ele><time>2025-12-06T16:21:05.000Z</time></trkpt>
        <trkpt lat="27.2310942" lon="102.9145675"><ele>1463.08</ele><time>2025-12-06T16:21:17.000Z</time></trkpt>
        <trkpt lat="27.2311306" lon="102.9145277"><ele>1463.95</ele><time>2025-12-06T16:21:27.000Z</time></trkpt>
        <trkpt lat="27.2311773" lon="102.9145045"><ele>1464.89</ele><time>2025-12-06T16:21:37.000Z</time></trkpt>
        <trkpt lat="27.231227" lon="102.9144994"><ele>1466.55</ele><time>2025-12-06T16:21:41.000Z</time></trkpt>
        <trkpt lat="27.2312699" lon="102.9144788"><ele>1470.7</ele><time>2025-12-06T16:21:49.000Z</time></trkpt>
        <trkpt lat="27.2313114" lon="102.91449"><ele>1473.46</ele><time>2025-12-06T16:21:58.000Z</time></trkpt>
        <trkpt lat="27.2313612" lon="102.9144967"><ele>1472.32</ele><time>2025-12-06T16:22:11.000Z</time></trkpt>
        <trkpt lat="27.2314206" lon="102.9144911"><ele>1472.41</ele><time>2025-12-06T16:22:19.000Z</time></trkpt>
        <trkpt lat="27.2314828" lon="102.9145132"><ele>1473.19</ele><time>2025-12-06T16:22:23.000Z</time></trkpt>
        <trkpt lat="27.2315349" lon="102.9145248"><ele>1473.93</ele><time>2025-12-06T16:22:34.000Z</time></trkpt>
        <trkpt lat="27.2315446" lon="102.9144836"><ele>1478.03</ele><time>2025-12-06T16:22:45.000Z</time></trkpt>
        <trkpt lat="27.2315761" lon="102.9144788"><ele>1476.88</ele><time>2025-12-06T16:22:53.000Z</time></trkpt>
        <trkpt lat="27.2316205" lon="102.9144929"><ele>1477.06</ele><time>2025-12-06T16:23:01.000Z</time></trkpt>
        <trkpt lat="27.2316803" lon="102.9144975"><ele>1477.3</ele><time>2025-12-06T16:23:15.000Z</time></trkpt>
        <trkpt lat="27.231759" lon="102.9145203"><ele>1478.65</ele><time>2025-12-06T16:23:23.000Z</time></trkpt>
        <trkpt lat="27.2317964" lon="102.9144934"><ele>1480.29</ele><time>2025-12-06T16:23:35.000Z</time></trkpt>
        <trkpt lat="27.2318345" lon="102.9144645"><ele>1480.93</ele><time>2025-12-06T16:23:41.000Z</time></trkpt>
        <trkpt lat="27.2318863" lon="102.9144581"><ele>1481.76</ele><time>2025-12-06T16:23:49.000Z</time></trkpt>
        <trkpt lat="27.2318863" lon="102.9144581"><ele>1481.76</ele><time>2025-12-06T16:24:06.000Z</time></trkpt>
        <trkpt lat="27.2319348" lon="102.9144652"><ele>1486.83</ele><time>2025-12-06T16:24:08.000Z</time></trkpt>
        <trkpt lat="27.2319348" lon="102.9144652"><ele>1486.83</ele><time>2025-12-06T16:24:09.000Z</time></trkpt>
        <trkpt lat="27.2319348" lon="102.9144652"><ele>1486.83</ele><time>2025-12-06T16:25:16.000Z</time></trkpt>
        <trkpt lat="27.2319348" lon="102.9144652"><ele>1486.83</ele><time>2025-12-06T16:25:36.000Z</time></trkpt>
        <trkpt lat="27.2319348" lon="102.9144652"><ele>1486.83</ele><time>2025-12-06T16:25:54.000Z</time></trkpt>
        <trkpt lat="27.2319851" lon="102.9144702"><ele>1489.71</ele><time>2025-12-06T16:25:56.000Z</time></trkpt>
        <trkpt lat="27.2319851" lon="102.9144702"><ele>1489.71</ele><time>2025-12-06T16:26:11.000Z</time></trkpt>
        <trkpt lat="27.2320334" lon="102.914472"><ele>1491.4</ele><time>2025-12-06T16:26:19.000Z</time></trkpt>
        <trkpt lat="27.2320739" lon="102.9144504"><ele>1492.94</ele><time>2025-12-06T16:26:29.000Z</time></trkpt>
        <trkpt lat="27.2321228" lon="102.9144279"><ele>1494.51</ele><time>2025-12-06T16:26:35.000Z</time></trkpt>
        <trkpt lat="27.2321765" lon="102.9144186"><ele>1495.81</ele><time>2025-12-06T16:26:43.000Z</time></trkpt>
        <trkpt lat="27.23223" lon="102.9144009"><ele>1497.13</ele><time>2025-12-06T16:26:53.000Z</time></trkpt>
        <trkpt lat="27.2322802" lon="102.9143775"><ele>1498.83</ele><time>2025-12-06T16:27:01.000Z</time></trkpt>
        <trkpt lat="27.2323279" lon="102.914365"><ele>1500.25</ele><time>2025-12-06T16:27:09.000Z</time></trkpt>
        <trkpt lat="27.2323698" lon="102.9143462"><ele>1501.53</ele><time>2025-12-06T16:27:15.000Z</time></trkpt>
        <trkpt lat="27.2324053" lon="102.9143147"><ele>1502.86</ele><time>2025-12-06T16:27:25.000Z</time></trkpt>
        <trkpt lat="27.2324416" lon="102.9142844"><ele>1504.43</ele><time>2025-12-06T16:27:33.000Z</time></trkpt>
        <trkpt lat="27.2324827" lon="102.9142537"><ele>1506.17</ele><time>2025-12-06T16:28:09.000Z</time></trkpt>
        <trkpt lat="27.2325226" lon="102.9142225"><ele>1508</ele><time>2025-12-06T16:28:17.000Z</time></trkpt>
        <trkpt lat="27.2325673" lon="102.9142136"><ele>1509.24</ele><time>2025-12-06T16:28:23.000Z</time></trkpt>
        <trkpt lat="27.2326213" lon="102.9142099"><ele>1510.25</ele><time>2025-12-06T16:28:31.000Z</time></trkpt>
        <trkpt lat="27.2326699" lon="102.9142042"><ele>1510.9</ele><time>2025-12-06T16:28:37.000Z</time></trkpt>
        <trkpt lat="27.2327186" lon="102.9142012"><ele>1511.64</ele><time>2025-12-06T16:28:47.000Z</time></trkpt>
        <trkpt lat="27.2327721" lon="102.9141991"><ele>1512.34</ele><time>2025-12-06T16:28:57.000Z</time></trkpt>
        <trkpt lat="27.2328236" lon="102.914197"><ele>1512.03</ele><time>2025-12-06T16:29:03.000Z</time></trkpt>
        <trkpt lat="27.2328762" lon="102.9142032"><ele>1513.68</ele><time>2025-12-06T16:29:13.000Z</time></trkpt>
        <trkpt lat="27.2329284" lon="102.9142104"><ele>1513.93</ele><time>2025-12-06T16:29:17.000Z</time></trkpt>
        <trkpt lat="27.2329659" lon="102.9141819"><ele>1514.06</ele><time>2025-12-06T16:29:29.000Z</time></trkpt>
        <trkpt lat="27.2330126" lon="102.9141798"><ele>1514.07</ele><time>2025-12-06T16:29:41.000Z</time></trkpt>
        <trkpt lat="27.2330585" lon="102.914178"><ele>1514.37</ele><time>2025-12-06T16:29:53.000Z</time></trkpt>
        <trkpt lat="27.2331011" lon="102.9141926"><ele>1515.64</ele><time>2025-12-06T16:30:05.000Z</time></trkpt>
        <trkpt lat="27.233153" lon="102.9142045"><ele>1518.63</ele><time>2025-12-06T16:30:17.000Z</time></trkpt>
        <trkpt lat="27.2332083" lon="102.9142132"><ele>1519.98</ele><time>2025-12-06T16:30:37.000Z</time></trkpt>
        <trkpt lat="27.2332571" lon="102.914219"><ele>1521.82</ele><time>2025-12-06T16:30:41.000Z</time></trkpt>
        <trkpt lat="27.2333093" lon="102.9142224"><ele>1522.86</ele><time>2025-12-06T16:30:49.000Z</time></trkpt>
        <trkpt lat="27.2333677" lon="102.9142295"><ele>1523.89</ele><time>2025-12-06T16:30:57.000Z</time></trkpt>
        <trkpt lat="27.2334213" lon="102.9142445"><ele>1525.47</ele><time>2025-12-06T16:31:03.000Z</time></trkpt>
        <trkpt lat="27.2334776" lon="102.9142561"><ele>1526.58</ele><time>2025-12-06T16:31:11.000Z</time></trkpt>
        <trkpt lat="27.2335263" lon="102.9142552"><ele>1527.64</ele><time>2025-12-06T16:31:17.000Z</time></trkpt>
        <trkpt lat="27.2335726" lon="102.9142641"><ele>1528.72</ele><time>2025-12-06T16:32:11.000Z</time></trkpt>
        <trkpt lat="27.2336221" lon="102.9142556"><ele>1530.11</ele><time>2025-12-06T16:32:21.000Z</time></trkpt>
        <trkpt lat="27.2336736" lon="102.9142453"><ele>1532.01</ele><time>2025-12-06T16:32:29.000Z</time></trkpt>
        <trkpt lat="27.2337268" lon="102.9142409"><ele>1533.72</ele><time>2025-12-06T16:32:37.000Z</time></trkpt>
        <trkpt lat="27.2337754" lon="102.914227"><ele>1535.6</ele><time>2025-12-06T16:32:45.000Z</time></trkpt>
        <trkpt lat="27.2338206" lon="102.9142122"><ele>1537.46</ele><time>2025-12-06T16:32:53.000Z</time></trkpt>
        <trkpt lat="27.2338621" lon="102.9141903"><ele>1539.27</ele><time>2025-12-06T16:33:03.000Z</time></trkpt>
        <trkpt lat="27.2339071" lon="102.9141706"><ele>1541.21</ele><time>2025-12-06T16:33:15.000Z</time></trkpt>
        <trkpt lat="27.2339523" lon="102.9141379"><ele>1542.58</ele><time>2025-12-06T16:33:25.000Z</time></trkpt>
        <trkpt lat="27.2340019" lon="102.9141071"><ele>1543.69</ele><time>2025-12-06T16:33:34.000Z</time></trkpt>
        <trkpt lat="27.2340496" lon="102.9140833"><ele>1544.42</ele><time>2025-12-06T16:33:41.000Z</time></trkpt>
        <trkpt lat="27.2340921" lon="102.9140459"><ele>1545.8</ele><time>2025-12-06T16:33:55.000Z</time></trkpt>
        <trkpt lat="27.2341235" lon="102.9139976"><ele>1545.64</ele><time>2025-12-06T16:34:05.000Z</time></trkpt>
        <trkpt lat="27.2341621" lon="102.9139484"><ele>1546.32</ele><time>2025-12-06T16:34:13.000Z</time></trkpt>
        <trkpt lat="27.2342023" lon="102.9139038"><ele>1547.12</ele><time>2025-12-06T16:34:21.000Z</time></trkpt>
        <trkpt lat="27.2342469" lon="102.9138696"><ele>1547.82</ele><time>2025-12-06T16:34:29.000Z</time></trkpt>
        <trkpt lat="27.2342837" lon="102.9138333"><ele>1548.87</ele><time>2025-12-06T16:34:39.000Z</time></trkpt>
        <trkpt lat="27.2343255" lon="102.9138028"><ele>1549.75</ele><time>2025-12-06T16:34:49.000Z</time></trkpt>
        <trkpt lat="27.2343758" lon="102.913796"><ele>1550.51</ele><time>2025-12-06T16:34:57.000Z</time></trkpt>
        <trkpt lat="27.2344169" lon="102.9137725"><ele>1551.32</ele><time>2025-12-06T16:35:13.000Z</time></trkpt>
        <trkpt lat="27.2344626" lon="102.9137488"><ele>1551.99</ele><time>2025-12-06T16:35:23.000Z</time></trkpt>
        <trkpt lat="27.23451" lon="102.9137219"><ele>1552.21</ele><time>2025-12-06T16:35:46.000Z</time></trkpt>
        <trkpt lat="27.2345542" lon="102.9136894"><ele>1554.29</ele><time>2025-12-06T16:35:57.000Z</time></trkpt>
        <trkpt lat="27.234598" lon="102.9136593"><ele>1555.09</ele><time>2025-12-06T16:36:11.000Z</time></trkpt>
        <trkpt lat="27.2346345" lon="102.9136234"><ele>1555.55</ele><time>2025-12-06T16:36:29.000Z</time></trkpt>
        <trkpt lat="27.2346775" lon="102.9136021"><ele>1556.18</ele><time>2025-12-06T16:36:51.000Z</time></trkpt>
        <trkpt lat="27.234718" lon="102.9135682"><ele>1555.96</ele><time>2025-12-06T16:37:05.000Z</time></trkpt>
        <trkpt lat="27.2347545" lon="102.9135327"><ele>1555.48</ele><time>2025-12-06T16:37:59.000Z</time></trkpt>
        <trkpt lat="27.2347545" lon="102.9135327"><ele>1555.48</ele><time>2025-12-06T16:38:54.000Z</time></trkpt>
        <trkpt lat="27.2347619" lon="102.9134793"><ele>1554.38</ele><time>2025-12-06T16:38:58.000Z</time></trkpt>
        <trkpt lat="27.2347619" lon="102.9134793"><ele>1554.38</ele><time>2025-12-06T16:39:11.000Z</time></trkpt>
        <trkpt lat="27.2347619" lon="102.9134793"><ele>1554.38</ele><time>2025-12-06T16:39:46.000Z</time></trkpt>
        <trkpt lat="27.2347332" lon="102.9134396"><ele>1552.76</ele><time>2025-12-06T16:39:48.000Z</time></trkpt>
        <trkpt lat="27.2347332" lon="102.9134396"><ele>1552.76</ele><time>2025-12-06T16:40:15.000Z</time></trkpt>
        <trkpt lat="27.2346837" lon="102.9134688"><ele>1550.92</ele><time>2025-12-06T16:40:31.000Z</time></trkpt>
        <trkpt lat="27.2346415" lon="102.9134933"><ele>1548.56</ele><time>2025-12-06T16:40:47.000Z</time></trkpt>
        <trkpt lat="27.2346378" lon="102.9134601"><ele>1545.46</ele><time>2025-12-06T16:41:19.000Z</time></trkpt>
        <trkpt lat="27.2346547" lon="102.9134093"><ele>1542.91</ele><time>2025-12-06T16:41:35.000Z</time></trkpt>
        <trkpt lat="27.2346755" lon="102.9133544"><ele>1541.17</ele><time>2025-12-06T16:41:49.000Z</time></trkpt>
        <trkpt lat="27.2346899" lon="102.9132929"><ele>1539.2</ele><time>2025-12-06T16:41:59.000Z</time></trkpt>
        <trkpt lat="27.2347118" lon="102.9132385"><ele>1537.36</ele><time>2025-12-06T16:42:05.000Z</time></trkpt>
        <trkpt lat="27.2347357" lon="102.9131879"><ele>1536.13</ele><time>2025-12-06T16:42:31.000Z</time></trkpt>
        <trkpt lat="27.2347554" lon="102.9131384"><ele>1534.74</ele><time>2025-12-06T16:42:39.000Z</time></trkpt>
        <trkpt lat="27.2347527" lon="102.9130855"><ele>1533.5</ele><time>2025-12-06T16:42:49.000Z</time></trkpt>
        <trkpt lat="27.2347346" lon="102.9130371"><ele>1532.08</ele><time>2025-12-06T16:43:07.000Z</time></trkpt>
        <trkpt lat="27.2347346" lon="102.9130371"><ele>1532.08</ele><time>2025-12-06T16:43:28.000Z</time></trkpt>
        <trkpt lat="27.2347409" lon="102.9129887"><ele>1530.47</ele><time>2025-12-06T16:43:30.000Z</time></trkpt>
        <trkpt lat="27.2347409" lon="102.9129887"><ele>1530.47</ele><time>2025-12-06T16:43:43.000Z</time></trkpt>
        <trkpt lat="27.2347541" lon="102.9129398"><ele>1529.17</ele><time>2025-12-06T16:43:52.000Z</time></trkpt>
        <trkpt lat="27.2347772" lon="102.9128915"><ele>1528.05</ele><time>2025-12-06T16:44:37.000Z</time></trkpt>
        <trkpt lat="27.2348011" lon="102.912838"><ele>1526.26</ele><time>2025-12-06T16:45:19.000Z</time></trkpt>
        <trkpt lat="27.2348377" lon="102.9128031"><ele>1523.76</ele><time>2025-12-06T16:46:01.000Z</time></trkpt>
        <trkpt lat="27.2348377" lon="102.9128031"><ele>1523.76</ele><time>2025-12-06T16:46:22.000Z</time></trkpt>
        <trkpt lat="27.2348785" lon="102.9127744"><ele>1522.01</ele><time>2025-12-06T16:46:26.000Z</time></trkpt>
        <trkpt lat="27.2348785" lon="102.9127744"><ele>1522.01</ele><time>2025-12-06T16:46:41.000Z</time></trkpt>
        <trkpt lat="27.2349187" lon="102.9127424"><ele>1520.79</ele><time>2025-12-06T16:46:49.000Z</time></trkpt>
        <trkpt lat="27.2349622" lon="102.9126975"><ele>1520.16</ele><time>2025-12-06T16:46:55.000Z</time></trkpt>
        <trkpt lat="27.2350077" lon="102.9126513"><ele>1519.66</ele><time>2025-12-06T16:47:01.000Z</time></trkpt>
        <trkpt lat="27.2350456" lon="102.9125974"><ele>1519</ele><time>2025-12-06T16:47:05.000Z</time></trkpt>
        <trkpt lat="27.2350626" lon="102.912535"><ele>1517.98</ele><time>2025-12-06T16:47:11.000Z</time></trkpt>
        <trkpt lat="27.2350795" lon="102.9124807"><ele>1517.26</ele><time>2025-12-06T16:47:15.000Z</time></trkpt>
        <trkpt lat="27.2351034" lon="102.9124212"><ele>1516.16</ele><time>2025-12-06T16:47:19.000Z</time></trkpt>
        <trkpt lat="27.2351436" lon="102.9123828"><ele>1515.4</ele><time>2025-12-06T16:47:33.000Z</time></trkpt>
        <trkpt lat="27.2351875" lon="102.912357"><ele>1512.71</ele><time>2025-12-06T16:47:39.000Z</time></trkpt>
        <trkpt lat="27.2352256" lon="102.9123171"><ele>1510.29</ele><time>2025-12-06T16:47:45.000Z</time></trkpt>
        <trkpt lat="27.2352349" lon="102.9123005"><ele>1511.07</ele><time>2025-12-06T16:47:51.000Z</time></trkpt>
        <trkpt lat="27.235252" lon="102.9122636"><ele>1509.05</ele><time>2025-12-06T16:48:27.000Z</time></trkpt>
        <trkpt lat="27.2352807" lon="102.9122216"><ele>1507.54</ele><time>2025-12-06T16:48:57.000Z</time></trkpt>
        <trkpt lat="27.2352956" lon="102.912172"><ele>1505.94</ele><time>2025-12-06T16:49:15.000Z</time></trkpt>
        <trkpt lat="27.235299" lon="102.9121494"><ele>1505.02</ele><time>2025-12-06T16:49:23.000Z</time></trkpt>
        <trkpt lat="27.2353223" lon="102.9121142"><ele>1504.49</ele><time>2025-12-06T16:49:43.000Z</time></trkpt>
        <trkpt lat="27.2353223" lon="102.9121142"><ele>1504.49</ele><time>2025-12-06T16:49:58.000Z</time></trkpt>
        <trkpt lat="27.2353223" lon="102.9121142"><ele>1504.49</ele><time>2025-12-06T16:50:02.000Z</time></trkpt>
        <trkpt lat="27.2353223" lon="102.9121142"><ele>1504.49</ele><time>2025-12-06T16:50:30.000Z</time></trkpt>
        <trkpt lat="27.2353528" lon="102.9120681"><ele>1503.41</ele><time>2025-12-06T16:50:42.000Z</time></trkpt>
        <trkpt lat="27.2353528" lon="102.9120681"><ele>1503.41</ele><time>2025-12-06T16:51:09.000Z</time></trkpt>
        <trkpt lat="27.2353528" lon="102.9120681"><ele>1503.41</ele><time>2025-12-06T16:52:36.000Z</time></trkpt>
        <trkpt lat="27.2353528" lon="102.9120681"><ele>1503.41</ele><time>2025-12-06T16:52:50.000Z</time></trkpt>
        <trkpt lat="27.2353528" lon="102.9120681"><ele>1503.41</ele><time>2025-12-06T16:53:08.000Z</time></trkpt>
        <trkpt lat="27.2353718" lon="102.9120111"><ele>1502.01</ele><time>2025-12-06T16:53:10.000Z</time></trkpt>
        <trkpt lat="27.2353718" lon="102.9120111"><ele>1502.01</ele><time>2025-12-06T16:53:17.000Z</time></trkpt>
        <trkpt lat="27.2354135" lon="102.911964"><ele>1500.45</ele><time>2025-12-06T16:53:25.000Z</time></trkpt>
        <trkpt lat="27.2354683" lon="102.9119371"><ele>1499.46</ele><time>2025-12-06T16:53:31.000Z</time></trkpt>
        <trkpt lat="27.235519" lon="102.9119074"><ele>1498.33</ele><time>2025-12-06T16:53:37.000Z</time></trkpt>
        <trkpt lat="27.2355791" lon="102.9119169"><ele>1498.02</ele><time>2025-12-06T16:53:41.000Z</time></trkpt>
        <trkpt lat="27.2356227" lon="102.9118956"><ele>1498.23</ele><time>2025-12-06T16:53:46.000Z</time></trkpt>
        <trkpt lat="27.2356728" lon="102.9118874"><ele>1498.27</ele><time>2025-12-06T16:53:49.000Z</time></trkpt>
        <trkpt lat="27.2357364" lon="102.9118927"><ele>1497.44</ele><time>2025-12-06T16:53:55.000Z</time></trkpt>
        <trkpt lat="27.2357862" lon="102.9118856"><ele>1496.27</ele><time>2025-12-06T16:54:01.000Z</time></trkpt>
        <trkpt lat="27.2358365" lon="102.9118771"><ele>1494.77</ele><time>2025-12-06T16:54:05.000Z</time></trkpt>
        <trkpt lat="27.2358806" lon="102.9118421"><ele>1492.98</ele><time>2025-12-06T16:54:11.000Z</time></trkpt>
        <trkpt lat="27.2359123" lon="102.9117894"><ele>1492.22</ele><time>2025-12-06T16:54:19.000Z</time></trkpt>
        <trkpt lat="27.2359552" lon="102.9117515"><ele>1492.67</ele><time>2025-12-06T16:54:23.000Z</time></trkpt>
        <trkpt lat="27.2359989" lon="102.9117318"><ele>1492.97</ele><time>2025-12-06T16:54:29.000Z</time></trkpt>
        <trkpt lat="27.2360547" lon="102.9117253"><ele>1492.94</ele><time>2025-12-06T16:54:33.000Z</time></trkpt>
        <trkpt lat="27.2361191" lon="102.9117089"><ele>1492.52</ele><time>2025-12-06T16:54:39.000Z</time></trkpt>
        <trkpt lat="27.2361664" lon="102.9116813"><ele>1491.84</ele><time>2025-12-06T16:54:43.000Z</time></trkpt>
        <trkpt lat="27.2362142" lon="102.9116662"><ele>1491.06</ele><time>2025-12-06T16:54:49.000Z</time></trkpt>
        <trkpt lat="27.2362142" lon="102.9116662"><ele>1491.06</ele><time>2025-12-06T16:55:03.000Z</time></trkpt>
        <trkpt lat="27.236267" lon="102.9116421"><ele>1490.74</ele><time>2025-12-06T16:55:04.000Z</time></trkpt>
        <trkpt lat="27.236267" lon="102.9116421"><ele>1490.74</ele><time>2025-12-06T16:55:17.000Z</time></trkpt>
        <trkpt lat="27.2363152" lon="102.9116169"><ele>1487.72</ele><time>2025-12-06T16:55:27.000Z</time></trkpt>
        <trkpt lat="27.2363152" lon="102.9116169"><ele>1487.72</ele><time>2025-12-06T16:55:46.000Z</time></trkpt>
        <trkpt lat="27.2363557" lon="102.9115836"><ele>1485.42</ele><time>2025-12-06T16:55:48.000Z</time></trkpt>
        <trkpt lat="27.2363557" lon="102.9115836"><ele>1485.42</ele><time>2025-12-06T16:55:51.000Z</time></trkpt>
        <trkpt lat="27.2364093" lon="102.9115638"><ele>1483.52</ele><time>2025-12-06T16:55:59.000Z</time></trkpt>
        <trkpt lat="27.2364669" lon="102.911554"><ele>1482.35</ele><time>2025-12-06T16:56:03.000Z</time></trkpt>
        <trkpt lat="27.2365183" lon="102.911543"><ele>1481.29</ele><time>2025-12-06T16:56:07.000Z</time></trkpt>
        <trkpt lat="27.2365655" lon="102.9115324"><ele>1480.5</ele><time>2025-12-06T16:56:11.000Z</time></trkpt>
        <trkpt lat="27.2366204" lon="102.9115086"><ele>1479.51</ele><time>2025-12-06T16:56:17.000Z</time></trkpt>
        <trkpt lat="27.2366702" lon="102.9114693"><ele>1478.71</ele><time>2025-12-06T16:56:21.000Z</time></trkpt>
        <trkpt lat="27.2367198" lon="102.9114189"><ele>1483.29</ele><time>2025-12-06T16:56:25.000Z</time></trkpt>
        <trkpt lat="27.2367281" lon="102.9114211"><ele>1486.8</ele><time>2025-12-06T16:56:35.000Z</time></trkpt>
        <trkpt lat="27.2367602" lon="102.9114354"><ele>1482.12</ele><time>2025-12-06T16:57:21.000Z</time></trkpt>
        <trkpt lat="27.2368071" lon="102.9114178"><ele>1480.01</ele><time>2025-12-06T16:57:25.000Z</time></trkpt>
        <trkpt lat="27.2368525" lon="102.9113819"><ele>1479.33</ele><time>2025-12-06T16:57:31.000Z</time></trkpt>
        <trkpt lat="27.236908" lon="102.9113541"><ele>1479.65</ele><time>2025-12-06T16:57:37.000Z</time></trkpt>
        <trkpt lat="27.236964" lon="102.9113343"><ele>1480.18</ele><time>2025-12-06T16:57:45.000Z</time></trkpt>
        <trkpt lat="27.2370186" lon="102.9113314"><ele>1480.91</ele><time>2025-12-06T16:57:51.000Z</time></trkpt>
        <trkpt lat="27.237073" lon="102.9113318"><ele>1485.07</ele><time>2025-12-06T16:57:55.000Z</time></trkpt>
        <trkpt lat="27.2371094" lon="102.9113676"><ele>1488.15</ele><time>2025-12-06T16:57:59.000Z</time></trkpt>
        <trkpt lat="27.2371611" lon="102.911385"><ele>1489.18</ele><time>2025-12-06T16:58:09.000Z</time></trkpt>
        <trkpt lat="27.2372195" lon="102.9113965"><ele>1489.77</ele><time>2025-12-06T16:58:17.000Z</time></trkpt>
        <trkpt lat="27.2372778" lon="102.9113932"><ele>1490.12</ele><time>2025-12-06T16:58:23.000Z</time></trkpt>
        <trkpt lat="27.2373347" lon="102.9113964"><ele>1490.69</ele><time>2025-12-06T16:58:29.000Z</time></trkpt>
        <trkpt lat="27.2373674" lon="102.9113997"><ele>1491.65</ele><time>2025-12-06T16:58:37.000Z</time></trkpt>
        <trkpt lat="27.2373971" lon="102.9113702"><ele>1489.06</ele><time>2025-12-06T16:59:53.000Z</time></trkpt>
        <trkpt lat="27.237447" lon="102.9113746"><ele>1487.76</ele><time>2025-12-06T16:59:57.000Z</time></trkpt>
        <trkpt lat="27.2375126" lon="102.9113562"><ele>1486.81</ele><time>2025-12-06T17:00:03.000Z</time></trkpt>
        <trkpt lat="27.2375542" lon="102.9113321"><ele>1486.16</ele><time>2025-12-06T17:00:07.000Z</time></trkpt>
        <trkpt lat="27.2375311" lon="102.9113473"><ele>1485.34</ele><time>2025-12-06T17:00:17.000Z</time></trkpt>
        <trkpt lat="27.2374749" lon="102.9113657"><ele>1484.2</ele><time>2025-12-06T17:00:21.000Z</time></trkpt>
        <trkpt lat="27.237407" lon="102.9113753"><ele>1483.51</ele><time>2025-12-06T17:00:27.000Z</time></trkpt>
        <trkpt lat="27.2373819" lon="102.9113838"><ele>1484.98</ele><time>2025-12-06T17:00:35.000Z</time></trkpt>
        <trkpt lat="27.2373819" lon="102.9113838"><ele>1484.98</ele><time>2025-12-06T17:00:50.000Z</time></trkpt>
        <trkpt lat="27.2374167" lon="102.9113768"><ele>1484.04</ele><time>2025-12-06T17:00:54.000Z</time></trkpt>
        <trkpt lat="27.2374167" lon="102.9113768"><ele>1484.04</ele><time>2025-12-06T17:01:09.000Z</time></trkpt>
        <trkpt lat="27.2374707" lon="102.911383"><ele>1482.56</ele><time>2025-12-06T17:01:17.000Z</time></trkpt>
        <trkpt lat="27.2375287" lon="102.9113734"><ele>1481.63</ele><time>2025-12-06T17:01:21.000Z</time></trkpt>
        <trkpt lat="27.2375761" lon="102.9113449"><ele>1480.91</ele><time>2025-12-06T17:01:25.000Z</time></trkpt>
        <trkpt lat="27.2376296" lon="102.9113102"><ele>1480.18</ele><time>2025-12-06T17:01:31.000Z</time></trkpt>
        <trkpt lat="27.2377021" lon="102.911301"><ele>1477.73</ele><time>2025-12-06T17:01:37.000Z</time></trkpt>
        <trkpt lat="27.2377677" lon="102.9112917"><ele>1477.86</ele><time>2025-12-06T17:01:41.000Z</time></trkpt>
        <trkpt lat="27.2378369" lon="102.9112796"><ele>1477.37</ele><time>2025-12-06T17:01:45.000Z</time></trkpt>
        <trkpt lat="27.2378877" lon="102.9112669"><ele>1476.07</ele><time>2025-12-06T17:01:49.000Z</time></trkpt>
        <trkpt lat="27.2379436" lon="102.9112264"><ele>1476.12</ele><time>2025-12-06T17:01:53.000Z</time></trkpt>
        <trkpt lat="27.2380119" lon="102.9111872"><ele>1475.79</ele><time>2025-12-06T17:02:03.000Z</time></trkpt>
        <trkpt lat="27.2379994" lon="102.9111508"><ele>1475.18</ele><time>2025-12-06T17:02:11.000Z</time></trkpt>
        <trkpt lat="27.2379605" lon="102.9111645"><ele>1475.03</ele><time>2025-12-06T17:02:21.000Z</time></trkpt>
        <trkpt lat="27.2379074" lon="102.9111882"><ele>1471.65</ele><time>2025-12-06T17:02:25.000Z</time></trkpt>
        <trkpt lat="27.2378523" lon="102.9111947"><ele>1469.75</ele><time>2025-12-06T17:02:29.000Z</time></trkpt>
        <trkpt lat="27.2377956" lon="102.9111894"><ele>1468.83</ele><time>2025-12-06T17:02:35.000Z</time></trkpt>
        <trkpt lat="27.2377518" lon="102.9112102"><ele>1468.25</ele><time>2025-12-06T17:02:39.000Z</time></trkpt>
        <trkpt lat="27.2377019" lon="102.911228"><ele>1469.84</ele><time>2025-12-06T17:02:43.000Z</time></trkpt>
        <trkpt lat="27.2376525" lon="102.9111997"><ele>1470.13</ele><time>2025-12-06T17:02:46.000Z</time></trkpt>
        <trkpt lat="27.2376032" lon="102.9111718"><ele>1470.37</ele><time>2025-12-06T17:02:49.000Z</time></trkpt>
        <trkpt lat="27.2375559" lon="102.9111587"><ele>1470.5</ele><time>2025-12-06T17:02:53.000Z</time></trkpt>
        <trkpt lat="27.2375039" lon="102.9111541"><ele>1470.51</ele><time>2025-12-06T17:02:57.000Z</time></trkpt>
        <trkpt lat="27.2374525" lon="102.9111434"><ele>1470.32</ele><time>2025-12-06T17:03:01.000Z</time></trkpt>
        <trkpt lat="27.2373879" lon="102.9111469"><ele>1469.96</ele><time>2025-12-06T17:03:07.000Z</time></trkpt>
        <trkpt lat="27.2373275" lon="102.9111454"><ele>1466.71</ele><time>2025-12-06T17:03:11.000Z</time></trkpt>
        <trkpt lat="27.2372738" lon="102.9111386"><ele>1464.53</ele><time>2025-12-06T17:03:15.000Z</time></trkpt>
        <trkpt lat="27.2372145" lon="102.9111225"><ele>1463.57</ele><time>2025-12-06T17:03:19.000Z</time></trkpt>
        <trkpt lat="27.2371638" lon="102.9111208"><ele>1463.48</ele><time>2025-12-06T17:03:23.000Z</time></trkpt>
        <trkpt lat="27.2371107" lon="102.9111281"><ele>1464.04</ele><time>2025-12-06T17:03:29.000Z</time></trkpt>
        <trkpt lat="27.2370579" lon="102.9111186"><ele>1464.95</ele><time>2025-12-06T17:03:33.000Z</time></trkpt>
        <trkpt lat="27.2370014" lon="102.9111295"><ele>1465.01</ele><time>2025-12-06T17:03:39.000Z</time></trkpt>
        <trkpt lat="27.2369506" lon="102.9111241"><ele>1460.21</ele><time>2025-12-06T17:03:43.000Z</time></trkpt>
        <trkpt lat="27.2369034" lon="102.9111371"><ele>1459.03</ele><time>2025-12-06T17:03:47.000Z</time></trkpt>
        <trkpt lat="27.236849" lon="102.9111222"><ele>1457.09</ele><time>2025-12-06T17:03:51.000Z</time></trkpt>
        <trkpt lat="27.2367988" lon="102.9111081"><ele>1456.04</ele><time>2025-12-06T17:03:55.000Z</time></trkpt>
        <trkpt lat="27.2367936" lon="102.9111233"><ele>1455.26</ele><time>2025-12-06T17:04:03.000Z</time></trkpt>
        <trkpt lat="27.2367619" lon="102.9111483"><ele>1454.77</ele><time>2025-12-06T17:04:29.000Z</time></trkpt>
        <trkpt lat="27.2367152" lon="102.9111608"><ele>1454.88</ele><time>2025-12-06T17:04:33.000Z</time></trkpt>
        <trkpt lat="27.2366644" lon="102.9111778"><ele>1454.83</ele><time>2025-12-06T17:04:37.000Z</time></trkpt>
        <trkpt lat="27.236617" lon="102.911215"><ele>1454.8</ele><time>2025-12-06T17:04:41.000Z</time></trkpt>
        <trkpt lat="27.236591" lon="102.9112723"><ele>1454</ele><time>2025-12-06T17:04:43.000Z</time></trkpt>
        <trkpt lat="27.2365428" lon="102.9113117"><ele>1448.55</ele><time>2025-12-06T17:04:47.000Z</time></trkpt>
        <trkpt lat="27.2364942" lon="102.9113151"><ele>1445.22</ele><time>2025-12-06T17:04:51.000Z</time></trkpt>
        <trkpt lat="27.2364502" lon="102.9112931"><ele>1443.11</ele><time>2025-12-06T17:04:57.000Z</time></trkpt>
        <trkpt lat="27.2364066" lon="102.9113057"><ele>1446.95</ele><time>2025-12-06T17:05:01.000Z</time></trkpt>
        <trkpt lat="27.2363517" lon="102.9113122"><ele>1441.97</ele><time>2025-12-06T17:05:07.000Z</time></trkpt>
        <trkpt lat="27.2363033" lon="102.911319"><ele>1441.53</ele><time>2025-12-06T17:05:11.000Z</time></trkpt>
        <trkpt lat="27.2362561" lon="102.9113314"><ele>1441.41</ele><time>2025-12-06T17:05:15.000Z</time></trkpt>
        <trkpt lat="27.236207" lon="102.9113343"><ele>1441.1</ele><time>2025-12-06T17:05:19.000Z</time></trkpt>
        <trkpt lat="27.2361535" lon="102.9113316"><ele>1440.89</ele><time>2025-12-06T17:05:25.000Z</time></trkpt>
        <trkpt lat="27.2360961" lon="102.9113364"><ele>1442.46</ele><time>2025-12-06T17:05:29.000Z</time></trkpt>
        <trkpt lat="27.2360961" lon="102.9113364"><ele>1442.46</ele><time>2025-12-06T17:05:44.000Z</time></trkpt>
        <trkpt lat="27.2360466" lon="102.9113435"><ele>1443</ele><time>2025-12-06T17:05:54.000Z</time></trkpt>
        <trkpt lat="27.2360466" lon="102.9113435"><ele>1443</ele><time>2025-12-06T17:06:05.000Z</time></trkpt>
        <trkpt lat="27.2359986" lon="102.9113371"><ele>1443.22</ele><time>2025-12-06T17:06:09.000Z</time></trkpt>
        <trkpt lat="27.2359449" lon="102.9113245"><ele>1443.3</ele><time>2025-12-06T17:06:17.000Z</time></trkpt>
        <trkpt lat="27.2358835" lon="102.9113241"><ele>1443.24</ele><time>2025-12-06T17:06:23.000Z</time></trkpt>
        <trkpt lat="27.2358484" lon="102.9112885"><ele>1442.81</ele><time>2025-12-06T17:06:29.000Z</time></trkpt>
        <trkpt lat="27.2359065" lon="102.9112395"><ele>1437.98</ele><time>2025-12-06T17:06:35.000Z</time></trkpt>
        <trkpt lat="27.2359353" lon="102.9112458"><ele>1435.04</ele><time>2025-12-06T17:06:39.000Z</time></trkpt>
        <trkpt lat="27.2359846" lon="102.9112422"><ele>1435.22</ele><time>2025-12-06T17:06:57.000Z</time></trkpt>
        <trkpt lat="27.2360387" lon="102.9112244"><ele>1434.92</ele><time>2025-12-06T17:07:01.000Z</time></trkpt>
        <trkpt lat="27.2360965" lon="102.9112033"><ele>1434.58</ele><time>2025-12-06T17:07:05.000Z</time></trkpt>
        <trkpt lat="27.2361397" lon="102.9111596"><ele>1434.26</ele><time>2025-12-06T17:07:09.000Z</time></trkpt>
        <trkpt lat="27.2361012" lon="102.9111279"><ele>1432.38</ele><time>2025-12-06T17:07:13.000Z</time></trkpt>
        <trkpt lat="27.2360427" lon="102.9111131"><ele>1432.46</ele><time>2025-12-06T17:07:17.000Z</time></trkpt>
        <trkpt lat="27.2359847" lon="102.9111121"><ele>1429.52</ele><time>2025-12-06T17:07:21.000Z</time></trkpt>
        <trkpt lat="27.2359332" lon="102.9111221"><ele>1427.72</ele><time>2025-12-06T17:07:25.000Z</time></trkpt>
        <trkpt lat="27.2358683" lon="102.9111202"><ele>1426.67</ele><time>2025-12-06T17:07:31.000Z</time></trkpt>
        <trkpt lat="27.2358132" lon="102.911121"><ele>1425.74</ele><time>2025-12-06T17:07:35.000Z</time></trkpt>
        <trkpt lat="27.2357609" lon="102.9111344"><ele>1425.05</ele><time>2025-12-06T17:07:41.000Z</time></trkpt>
        <trkpt lat="27.2357609" lon="102.9111344"><ele>1425.05</ele><time>2025-12-06T17:08:04.000Z</time></trkpt>
        <trkpt lat="27.2357109" lon="102.9111349"><ele>1424.31</ele><time>2025-12-06T17:08:06.000Z</time></trkpt>
        <trkpt lat="27.2357109" lon="102.9111349"><ele>1424.31</ele><time>2025-12-06T17:08:11.000Z</time></trkpt>
        <trkpt lat="27.2356637" lon="102.9111243"><ele>1422.33</ele><time>2025-12-06T17:08:15.000Z</time></trkpt>
        <trkpt lat="27.2356056" lon="102.9111111"><ele>1420.93</ele><time>2025-12-06T17:08:19.000Z</time></trkpt>
        <trkpt lat="27.2355483" lon="102.911099"><ele>1419.89</ele><time>2025-12-06T17:08:23.000Z</time></trkpt>
        <trkpt lat="27.2354921" lon="102.9110847"><ele>1418.89</ele><time>2025-12-06T17:08:27.000Z</time></trkpt>
        <trkpt lat="27.2354415" lon="102.911073"><ele>1417.98</ele><time>2025-12-06T17:08:31.000Z</time></trkpt>
        <trkpt lat="27.2353885" lon="102.9110662"><ele>1417.08</ele><time>2025-12-06T17:08:35.000Z</time></trkpt>
        <trkpt lat="27.2353417" lon="102.9110713"><ele>1416.09</ele><time>2025-12-06T17:08:39.000Z</time></trkpt>
        <trkpt lat="27.2353031" lon="102.9110289"><ele>1413.63</ele><time>2025-12-06T17:08:45.000Z</time></trkpt>
        <trkpt lat="27.2353375" lon="102.9109981"><ele>1413.1</ele><time>2025-12-06T17:08:51.000Z</time></trkpt>
        <trkpt lat="27.2353889" lon="102.9109951"><ele>1412.09</ele><time>2025-12-06T17:08:55.000Z</time></trkpt>
        <trkpt lat="27.2354442" lon="102.9109998"><ele>1410.96</ele><time>2025-12-06T17:08:59.000Z</time></trkpt>
        <trkpt lat="27.2355008" lon="102.9110175"><ele>1409.98</ele><time>2025-12-06T17:09:03.000Z</time></trkpt>
        <trkpt lat="27.2355594" lon="102.9110046"><ele>1405.88</ele><time>2025-12-06T17:09:09.000Z</time></trkpt>
        <trkpt lat="27.235588" lon="102.9109505"><ele>1404.55</ele><time>2025-12-06T17:09:13.000Z</time></trkpt>
        <trkpt lat="27.2355389" lon="102.9109249"><ele>1405.63</ele><time>2025-12-06T17:09:19.000Z</time></trkpt>
        <trkpt lat="27.2354682" lon="102.9109153"><ele>1404.66</ele><time>2025-12-06T17:09:23.000Z</time></trkpt>
        <trkpt lat="27.2353896" lon="102.9109208"><ele>1403.89</ele><time>2025-12-06T17:09:29.000Z</time></trkpt>
        <trkpt lat="27.2353197" lon="102.9109307"><ele>1403.34</ele><time>2025-12-06T17:09:33.000Z</time></trkpt>
        <trkpt lat="27.2352602" lon="102.9109402"><ele>1402.43</ele><time>2025-12-06T17:09:37.000Z</time></trkpt>
        <trkpt lat="27.2352057" lon="102.9109518"><ele>1402.22</ele><time>2025-12-06T17:09:41.000Z</time></trkpt>
        <trkpt lat="27.2351591" lon="102.9109625"><ele>1401.88</ele><time>2025-12-06T17:09:45.000Z</time></trkpt>
        <trkpt lat="27.2351051" lon="102.9109693"><ele>1401.27</ele><time>2025-12-06T17:09:49.000Z</time></trkpt>
        <trkpt lat="27.2350513" lon="102.9109749"><ele>1400.18</ele><time>2025-12-06T17:09:55.000Z</time></trkpt>
        <trkpt lat="27.2349928" lon="102.9109925"><ele>1400.05</ele><time>2025-12-06T17:10:01.000Z</time></trkpt>
        <trkpt lat="27.2349352" lon="102.9110081"><ele>1399.95</ele><time>2025-12-06T17:10:07.000Z</time></trkpt>
        <trkpt lat="27.2349352" lon="102.9110081"><ele>1399.95</ele><time>2025-12-06T17:10:20.000Z</time></trkpt>
        <trkpt lat="27.2349663" lon="102.9110061"><ele>1398.5</ele><time>2025-12-06T17:10:26.000Z</time></trkpt>
        <trkpt lat="27.2349663" lon="102.9110061"><ele>1398.5</ele><time>2025-12-06T17:10:35.000Z</time></trkpt>
        <trkpt lat="27.2350435" lon="102.9109911"><ele>1397.76</ele><time>2025-12-06T17:10:41.000Z</time></trkpt>
        <trkpt lat="27.2351085" lon="102.910954"><ele>1397.62</ele><time>2025-12-06T17:10:45.000Z</time></trkpt>
        <trkpt lat="27.2351716" lon="102.9109106"><ele>1398.6</ele><time>2025-12-06T17:10:49.000Z</time></trkpt>
        <trkpt lat="27.2352245" lon="102.9108664"><ele>1399.16</ele><time>2025-12-06T17:10:53.000Z</time></trkpt>
        <trkpt lat="27.2352691" lon="102.9108332"><ele>1399.48</ele><time>2025-12-06T17:10:57.000Z</time></trkpt>
        <trkpt lat="27.2353132" lon="102.9107982"><ele>1399.49</ele><time>2025-12-06T17:11:01.000Z</time></trkpt>
        <trkpt lat="27.2353674" lon="102.9107579"><ele>1399.58</ele><time>2025-12-06T17:11:07.000Z</time></trkpt>
        <trkpt lat="27.2354156" lon="102.9107202"><ele>1399.78</ele><time>2025-12-06T17:11:11.000Z</time></trkpt>
        <trkpt lat="27.2354563" lon="102.9106836"><ele>1399.75</ele><time>2025-12-06T17:11:15.000Z</time></trkpt>
        <trkpt lat="27.2354907" lon="102.9106364"><ele>1399.58</ele><time>2025-12-06T17:11:19.000Z</time></trkpt>
        <trkpt lat="27.235511" lon="102.9105681"><ele>1399.1</ele><time>2025-12-06T17:11:25.000Z</time></trkpt>
        <trkpt lat="27.2355077" lon="102.9105082"><ele>1398.21</ele><time>2025-12-06T17:11:29.000Z</time></trkpt>
        <trkpt lat="27.2354843" lon="102.9104608"><ele>1397.42</ele><time>2025-12-06T17:11:33.000Z</time></trkpt>
        <trkpt lat="27.2354555" lon="102.910408"><ele>1396.65</ele><time>2025-12-06T17:11:37.000Z</time></trkpt>
        <trkpt lat="27.235424" lon="102.9103512"><ele>1395.77</ele><time>2025-12-06T17:11:41.000Z</time></trkpt>
        <trkpt lat="27.2353868" lon="102.9103051"><ele>1394.7</ele><time>2025-12-06T17:11:45.000Z</time></trkpt>
        <trkpt lat="27.2353445" lon="102.9102632"><ele>1393.67</ele><time>2025-12-06T17:11:49.000Z</time></trkpt>
        <trkpt lat="27.2352924" lon="102.9102357"><ele>1392.61</ele><time>2025-12-06T17:11:53.000Z</time></trkpt>
        <trkpt lat="27.235247" lon="102.9102586"><ele>1391.98</ele><time>2025-12-06T17:11:59.000Z</time></trkpt>
        <trkpt lat="27.235247" lon="102.9102586"><ele>1391.98</ele><time>2025-12-06T17:12:28.000Z</time></trkpt>
        <trkpt lat="27.235247" lon="102.9102586"><ele>1391.98</ele><time>2025-12-06T17:12:34.000Z</time></trkpt>
        <trkpt lat="27.235247" lon="102.9102586"><ele>1391.98</ele><time>2025-12-06T17:13:14.000Z</time></trkpt>
        <trkpt lat="27.2352013" lon="102.9103207"><ele>1389.01</ele><time>2025-12-06T17:13:28.000Z</time></trkpt>
        <trkpt lat="27.2352013" lon="102.9103207"><ele>1389.01</ele><time>2025-12-06T17:13:39.000Z</time></trkpt>
        <trkpt lat="27.2351956" lon="102.9103994"><ele>1388.26</ele><time>2025-12-06T17:13:45.000Z</time></trkpt>
        <trkpt lat="27.2351961" lon="102.9104574"><ele>1385.72</ele><time>2025-12-06T17:13:51.000Z</time></trkpt>
        <trkpt lat="27.2351689" lon="102.9105054"><ele>1385.74</ele><time>2025-12-06T17:13:57.000Z</time></trkpt>
        <trkpt lat="27.2351193" lon="102.9105258"><ele>1384.95</ele><time>2025-12-06T17:14:01.000Z</time></trkpt>
        <trkpt lat="27.2350695" lon="102.9105399"><ele>1384.03</ele><time>2025-12-06T17:14:05.000Z</time></trkpt>
        <trkpt lat="27.2350174" lon="102.9105531"><ele>1382.96</ele><time>2025-12-06T17:14:09.000Z</time></trkpt>
        <trkpt lat="27.2349594" lon="102.9105857"><ele>1381.86</ele><time>2025-12-06T17:14:13.000Z</time></trkpt>
        <trkpt lat="27.2349108" lon="102.9106114"><ele>1379.88</ele><time>2025-12-06T17:14:17.000Z</time></trkpt>
        <trkpt lat="27.2348576" lon="102.9106136"><ele>1379.17</ele><time>2025-12-06T17:14:21.000Z</time></trkpt>
        <trkpt lat="27.2348001" lon="102.9106215"><ele>1378.3</ele><time>2025-12-06T17:14:25.000Z</time></trkpt>
        <trkpt lat="27.2347494" lon="102.9106335"><ele>1376.46</ele><time>2025-12-06T17:14:29.000Z</time></trkpt>
        <trkpt lat="27.2346858" lon="102.910642"><ele>1375.12</ele><time>2025-12-06T17:14:35.000Z</time></trkpt>
        <trkpt lat="27.2346273" lon="102.9106549"><ele>1375.03</ele><time>2025-12-06T17:14:39.000Z</time></trkpt>
        <trkpt lat="27.2345819" lon="102.91064"><ele>1375.41</ele><time>2025-12-06T17:14:43.000Z</time></trkpt>
        <trkpt lat="27.2345429" lon="102.9106567"><ele>1374.27</ele><time>2025-12-06T17:14:45.000Z</time></trkpt>
        <trkpt lat="27.2344916" lon="102.9106938"><ele>1374.31</ele><time>2025-12-06T17:14:49.000Z</time></trkpt>
        <trkpt lat="27.2344433" lon="102.9107296"><ele>1370.22</ele><time>2025-12-06T17:14:53.000Z</time></trkpt>
        <trkpt lat="27.2344021" lon="102.9107749"><ele>1365.02</ele><time>2025-12-06T17:14:57.000Z</time></trkpt>
        <trkpt lat="27.2343687" lon="102.910826"><ele>1360.64</ele><time>2025-12-06T17:15:01.000Z</time></trkpt>
        <trkpt lat="27.2343342" lon="102.9108767"><ele>1358</ele><time>2025-12-06T17:15:05.000Z</time></trkpt>
        <trkpt lat="27.2343011" lon="102.9109307"><ele>1355.99</ele><time>2025-12-06T17:15:09.000Z</time></trkpt>
        <trkpt lat="27.2342737" lon="102.9109126"><ele>1355.13</ele><time>2025-12-06T17:15:17.000Z</time></trkpt>
        <trkpt lat="27.2342737" lon="102.9109126"><ele>1355.13</ele><time>2025-12-06T17:15:30.000Z</time></trkpt>
        <trkpt lat="27.2342714" lon="102.9108579"><ele>1358.51</ele><time>2025-12-06T17:15:44.000Z</time></trkpt>
        <trkpt lat="27.2342714" lon="102.9108579"><ele>1358.51</ele><time>2025-12-06T17:15:51.000Z</time></trkpt>
        <trkpt lat="27.2342741" lon="102.9107976"><ele>1360.15</ele><time>2025-12-06T17:15:57.000Z</time></trkpt>
        <trkpt lat="27.2342954" lon="102.9107413"><ele>1360.71</ele><time>2025-12-06T17:16:01.000Z</time></trkpt>
        <trkpt lat="27.2343226" lon="102.9106778"><ele>1360.88</ele><time>2025-12-06T17:16:07.000Z</time></trkpt>
        <trkpt lat="27.234364" lon="102.9106253"><ele>1360.54</ele><time>2025-12-06T17:16:13.000Z</time></trkpt>
        <trkpt lat="27.2343711" lon="102.9105707"><ele>1359.72</ele><time>2025-12-06T17:16:17.000Z</time></trkpt>
        <trkpt lat="27.2343795" lon="102.9105181"><ele>1358.43</ele><time>2025-12-06T17:16:25.000Z</time></trkpt>
        <trkpt lat="27.2343732" lon="102.9104516"><ele>1357</ele><time>2025-12-06T17:16:31.000Z</time></trkpt>
        <trkpt lat="27.2343466" lon="102.9103975"><ele>1354.81</ele><time>2025-12-06T17:16:35.000Z</time></trkpt>
        <trkpt lat="27.2343069" lon="102.9103103"><ele>1352.16</ele><time>2025-12-06T17:16:45.000Z</time></trkpt>
        <trkpt lat="27.2342736" lon="102.9102456"><ele>1353.36</ele><time>2025-12-06T17:16:49.000Z</time></trkpt>
        <trkpt lat="27.2342473" lon="102.9101985"><ele>1353.74</ele><time>2025-12-06T17:17:03.000Z</time></trkpt>
        <trkpt lat="27.2342062" lon="102.9102273"><ele>1352.34</ele><time>2025-12-06T17:17:13.000Z</time></trkpt>
        <trkpt lat="27.234188" lon="102.9102979"><ele>1350.65</ele><time>2025-12-06T17:17:19.000Z</time></trkpt>
        <trkpt lat="27.2341835" lon="102.9103772"><ele>1349.33</ele><time>2025-12-06T17:17:23.000Z</time></trkpt>
        <trkpt lat="27.2341936" lon="102.9104641"><ele>1342.23</ele><time>2025-12-06T17:17:27.000Z</time></trkpt>
        <trkpt lat="27.2342031" lon="102.9105414"><ele>1337.02</ele><time>2025-12-06T17:17:31.000Z</time></trkpt>
        <trkpt lat="27.2341822" lon="102.9106103"><ele>1332.46</ele><time>2025-12-06T17:17:35.000Z</time></trkpt>
        <trkpt lat="27.2341435" lon="102.9106541"><ele>1328.95</ele><time>2025-12-06T17:17:39.000Z</time></trkpt>
        <trkpt lat="27.234093" lon="102.9106755"><ele>1326.91</ele><time>2025-12-06T17:17:43.000Z</time></trkpt>
        <trkpt lat="27.2340224" lon="102.9106571"><ele>1326.03</ele><time>2025-12-06T17:17:47.000Z</time></trkpt>
        <trkpt lat="27.2339888" lon="102.9106868"><ele>1332.19</ele><time>2025-12-06T17:17:49.000Z</time></trkpt>
        <trkpt lat="27.23398" lon="102.9107367"><ele>1325.44</ele><time>2025-12-06T17:17:51.000Z</time></trkpt>
        <trkpt lat="27.2339412" lon="102.9107851"><ele>1321.36</ele><time>2025-12-06T17:17:55.000Z</time></trkpt>
        <trkpt lat="27.2338845" lon="102.9107991"><ele>1320.57</ele><time>2025-12-06T17:17:59.000Z</time></trkpt>
        <trkpt lat="27.2338316" lon="102.9107671"><ele>1320.82</ele><time>2025-12-06T17:18:03.000Z</time></trkpt>
        <trkpt lat="27.233776" lon="102.9108007"><ele>1327.06</ele><time>2025-12-06T17:18:07.000Z</time></trkpt>
        <trkpt lat="27.2337322" lon="102.9108479"><ele>1321.96</ele><time>2025-12-06T17:18:11.000Z</time></trkpt>
        <trkpt lat="27.2336871" lon="102.9108903"><ele>1319.7</ele><time>2025-12-06T17:18:15.000Z</time></trkpt>
        <trkpt lat="27.233638" lon="102.9109219"><ele>1317.9</ele><time>2025-12-06T17:18:21.000Z</time></trkpt>
        <trkpt lat="27.2335891" lon="102.9109348"><ele>1316.5</ele><time>2025-12-06T17:18:27.000Z</time></trkpt>
        <trkpt lat="27.2335461" lon="102.9109196"><ele>1321.44</ele><time>2025-12-06T17:18:31.000Z</time></trkpt>
        <trkpt lat="27.2334883" lon="102.9109066"><ele>1320.04</ele><time>2025-12-06T17:18:39.000Z</time></trkpt>
        <trkpt lat="27.2334969" lon="102.9108719"><ele>1321.96</ele><time>2025-12-06T17:19:13.000Z</time></trkpt>
        <trkpt lat="27.2335312" lon="102.9108247"><ele>1323</ele><time>2025-12-06T17:19:19.000Z</time></trkpt>
        <trkpt lat="27.2335458" lon="102.910771"><ele>1323.69</ele><time>2025-12-06T17:19:23.000Z</time></trkpt>
        <trkpt lat="27.2335262" lon="102.9107025"><ele>1324.08</ele><time>2025-12-06T17:19:29.000Z</time></trkpt>
        <trkpt lat="27.2335079" lon="102.9106431"><ele>1321.21</ele><time>2025-12-06T17:19:33.000Z</time></trkpt>
        <trkpt lat="27.233476" lon="102.9105728"><ele>1319.38</ele><time>2025-12-06T17:19:39.000Z</time></trkpt>
        <trkpt lat="27.2334479" lon="102.9105013"><ele>1317.78</ele><time>2025-12-06T17:19:43.000Z</time></trkpt>
        <trkpt lat="27.2334248" lon="102.9104402"><ele>1317.06</ele><time>2025-12-06T17:19:47.000Z</time></trkpt>
        <trkpt lat="27.2334072" lon="102.9103831"><ele>1316.83</ele><time>2025-12-06T17:19:51.000Z</time></trkpt>
        <trkpt lat="27.2333837" lon="102.9103229"><ele>1317.13</ele><time>2025-12-06T17:19:57.000Z</time></trkpt>
        <trkpt lat="27.2333615" lon="102.9102612"><ele>1316.85</ele><time>2025-12-06T17:20:01.000Z</time></trkpt>
        <trkpt lat="27.2333571" lon="102.9102044"><ele>1316.3</ele><time>2025-12-06T17:20:05.000Z</time></trkpt>
        <trkpt lat="27.2333735" lon="102.9101537"><ele>1315.87</ele><time>2025-12-06T17:20:09.000Z</time></trkpt>
        <trkpt lat="27.2333859" lon="102.9100996"><ele>1315.3</ele><time>2025-12-06T17:20:13.000Z</time></trkpt>
        <trkpt lat="27.2333899" lon="102.9100358"><ele>1314.79</ele><time>2025-12-06T17:20:17.000Z</time></trkpt>
        <trkpt lat="27.2333945" lon="102.9099762"><ele>1314.48</ele><time>2025-12-06T17:20:21.000Z</time></trkpt>
        <trkpt lat="27.2334112" lon="102.9099145"><ele>1314.68</ele><time>2025-12-06T17:20:25.000Z</time></trkpt>
        <trkpt lat="27.2333945" lon="102.909859"><ele>1314.88</ele><time>2025-12-06T17:20:31.000Z</time></trkpt>
        <trkpt lat="27.2333497" lon="102.9098338"><ele>1315.86</ele><time>2025-12-06T17:20:37.000Z</time></trkpt>
        <trkpt lat="27.2333003" lon="102.9098494"><ele>1316.04</ele><time>2025-12-06T17:20:41.000Z</time></trkpt>
        <trkpt lat="27.2332527" lon="102.9098827"><ele>1315.11</ele><time>2025-12-06T17:20:45.000Z</time></trkpt>
        <trkpt lat="27.2331985" lon="102.9099043"><ele>1314.36</ele><time>2025-12-06T17:20:51.000Z</time></trkpt>
        <trkpt lat="27.2331493" lon="102.9099468"><ele>1313.43</ele><time>2025-12-06T17:20:57.000Z</time></trkpt>
        <trkpt lat="27.2330911" lon="102.9099837"><ele>1311.93</ele><time>2025-12-06T17:21:05.000Z</time></trkpt>
        <trkpt lat="27.2330389" lon="102.9100032"><ele>1310.64</ele><time>2025-12-06T17:21:09.000Z</time></trkpt>
        <trkpt lat="27.2329886" lon="102.910019"><ele>1310.1</ele><time>2025-12-06T17:21:13.000Z</time></trkpt>
        <trkpt lat="27.2329454" lon="102.9100375"><ele>1309.55</ele><time>2025-12-06T17:21:25.000Z</time></trkpt>
        <trkpt lat="27.2329134" lon="102.9100822"><ele>1309.09</ele><time>2025-12-06T17:21:31.000Z</time></trkpt>
        <trkpt lat="27.2328734" lon="102.910101"><ele>1308.98</ele><time>2025-12-06T17:21:39.000Z</time></trkpt>
        <trkpt lat="27.2328283" lon="102.9101151"><ele>1308.98</ele><time>2025-12-06T17:21:49.000Z</time></trkpt>
        <trkpt lat="27.2327806" lon="102.9100999"><ele>1307.97</ele><time>2025-12-06T17:22:01.000Z</time></trkpt>
        <trkpt lat="27.2327349" lon="102.910099"><ele>1306.03</ele><time>2025-12-06T17:22:09.000Z</time></trkpt>
        <trkpt lat="27.2326901" lon="102.91011"><ele>1303.42</ele><time>2025-12-06T17:22:13.000Z</time></trkpt>
        <trkpt lat="27.2326487" lon="102.9100867"><ele>1301</ele><time>2025-12-06T17:22:17.000Z</time></trkpt>
        <trkpt lat="27.2326115" lon="102.9100307"><ele>1298.59</ele><time>2025-12-06T17:22:23.000Z</time></trkpt>
        <trkpt lat="27.232599" lon="102.9099624"><ele>1296.75</ele><time>2025-12-06T17:22:27.000Z</time></trkpt>
        <trkpt lat="27.2325844" lon="102.9098906"><ele>1296.59</ele><time>2025-12-06T17:22:33.000Z</time></trkpt>
        <trkpt lat="27.2325871" lon="102.9098274"><ele>1297.35</ele><time>2025-12-06T17:22:37.000Z</time></trkpt>
        <trkpt lat="27.2326326" lon="102.9097825"><ele>1297.27</ele><time>2025-12-06T17:22:51.000Z</time></trkpt>
        <trkpt lat="27.2326913" lon="102.9097588"><ele>1295.53</ele><time>2025-12-06T17:22:57.000Z</time></trkpt>
        <trkpt lat="27.2327474" lon="102.9097384"><ele>1291.52</ele><time>2025-12-06T17:23:23.000Z</time></trkpt>
        <trkpt lat="27.2328054" lon="102.9097065"><ele>1289.62</ele><time>2025-12-06T17:23:29.000Z</time></trkpt>
        <trkpt lat="27.2328467" lon="102.9096697"><ele>1287.7</ele><time>2025-12-06T17:23:35.000Z</time></trkpt>
        <trkpt lat="27.2328748" lon="102.9096215"><ele>1289.44</ele><time>2025-12-06T17:23:40.000Z</time></trkpt>
        <trkpt lat="27.2329251" lon="102.9096099"><ele>1290.72</ele><time>2025-12-06T17:23:47.000Z</time></trkpt>
        <trkpt lat="27.2329806" lon="102.9096031"><ele>1287.24</ele><time>2025-12-06T17:23:51.000Z</time></trkpt>
        <trkpt lat="27.2330348" lon="102.9095798"><ele>1286.26</ele><time>2025-12-06T17:23:55.000Z</time></trkpt>
        <trkpt lat="27.2330764" lon="102.9095955"><ele>1285.74</ele><time>2025-12-06T17:24:03.000Z</time></trkpt>
        <trkpt lat="27.2331223" lon="102.9096035"><ele>1282.9</ele><time>2025-12-06T17:24:09.000Z</time></trkpt>
        <trkpt lat="27.2331773" lon="102.9096045"><ele>1283.76</ele><time>2025-12-06T17:24:13.000Z</time></trkpt>
        <trkpt lat="27.233236" lon="102.9095922"><ele>1284.21</ele><time>2025-12-06T17:24:17.000Z</time></trkpt>
        <trkpt lat="27.2332877" lon="102.9095725"><ele>1284.45</ele><time>2025-12-06T17:24:21.000Z</time></trkpt>
        <trkpt lat="27.2333416" lon="102.9095508"><ele>1284.58</ele><time>2025-12-06T17:24:27.000Z</time></trkpt>
        <trkpt lat="27.2333985" lon="102.909526"><ele>1284.38</ele><time>2025-12-06T17:24:33.000Z</time></trkpt>
        <trkpt lat="27.2334487" lon="102.9095054"><ele>1283.91</ele><time>2025-12-06T17:24:37.000Z</time></trkpt>
        <trkpt lat="27.2334902" lon="102.909481"><ele>1283.56</ele><time>2025-12-06T17:24:41.000Z</time></trkpt>
        <trkpt lat="27.2335264" lon="102.9094489"><ele>1283.21</ele><time>2025-12-06T17:24:45.000Z</time></trkpt>
        <trkpt lat="27.2335666" lon="102.9094198"><ele>1282.89</ele><time>2025-12-06T17:24:49.000Z</time></trkpt>
        <trkpt lat="27.2336054" lon="102.9093817"><ele>1282.71</ele><time>2025-12-06T17:24:55.000Z</time></trkpt>
        <trkpt lat="27.2336537" lon="102.909346"><ele>1279.74</ele><time>2025-12-06T17:24:59.000Z</time></trkpt>
        <trkpt lat="27.2337015" lon="102.9093227"><ele>1278.3</ele><time>2025-12-06T17:25:03.000Z</time></trkpt>
        <trkpt lat="27.2337619" lon="102.9093045"><ele>1277.18</ele><time>2025-12-06T17:25:07.000Z</time></trkpt>
        <trkpt lat="27.2338161" lon="102.9092846"><ele>1275.61</ele><time>2025-12-06T17:25:11.000Z</time></trkpt>
        <trkpt lat="27.2338601" lon="102.9092521"><ele>1275.21</ele><time>2025-12-06T17:25:15.000Z</time></trkpt>
        <trkpt lat="27.2339026" lon="102.9092248"><ele>1276.06</ele><time>2025-12-06T17:25:19.000Z</time></trkpt>
        <trkpt lat="27.233945" lon="102.9091936"><ele>1276.94</ele><time>2025-12-06T17:25:23.000Z</time></trkpt>
        <trkpt lat="27.2339934" lon="102.9091518"><ele>1277.55</ele><time>2025-12-06T17:25:27.000Z</time></trkpt>
        <trkpt lat="27.2340341" lon="102.9091179"><ele>1276.53</ele><time>2025-12-06T17:25:31.000Z</time></trkpt>
        <trkpt lat="27.2340637" lon="102.909071"><ele>1275.29</ele><time>2025-12-06T17:25:35.000Z</time></trkpt>
        <trkpt lat="27.2340863" lon="102.9090139"><ele>1274.81</ele><time>2025-12-06T17:25:41.000Z</time></trkpt>
        <trkpt lat="27.2341094" lon="102.9089571"><ele>1274.44</ele><time>2025-12-06T17:25:47.000Z</time></trkpt>
        <trkpt lat="27.2341369" lon="102.9089109"><ele>1273.98</ele><time>2025-12-06T17:25:53.000Z</time></trkpt>
        <trkpt lat="27.2341628" lon="102.9088679"><ele>1273.61</ele><time>2025-12-06T17:25:57.000Z</time></trkpt>
        <trkpt lat="27.2341857" lon="102.9088114"><ele>1273.29</ele><time>2025-12-06T17:26:01.000Z</time></trkpt>
        <trkpt lat="27.234189" lon="102.9087427"><ele>1273.01</ele><time>2025-12-06T17:26:05.000Z</time></trkpt>
        <trkpt lat="27.2341771" lon="102.9086779"><ele>1272.74</ele><time>2025-12-06T17:26:09.000Z</time></trkpt>
        <trkpt lat="27.2341576" lon="102.9086173"><ele>1272.42</ele><time>2025-12-06T17:26:13.000Z</time></trkpt>
        <trkpt lat="27.2341374" lon="102.9085512"><ele>1272.3</ele><time>2025-12-06T17:26:17.000Z</time></trkpt>
        <trkpt lat="27.2341215" lon="102.908497"><ele>1272.42</ele><time>2025-12-06T17:26:21.000Z</time></trkpt>
        <trkpt lat="27.2341081" lon="102.9084455"><ele>1272.69</ele><time>2025-12-06T17:26:25.000Z</time></trkpt>
        <trkpt lat="27.234095" lon="102.9083966"><ele>1272.87</ele><time>2025-12-06T17:26:29.000Z</time></trkpt>
        <trkpt lat="27.2340876" lon="102.9083469"><ele>1273.02</ele><time>2025-12-06T17:26:33.000Z</time></trkpt>
        <trkpt lat="27.2340899" lon="102.9082962"><ele>1272.9</ele><time>2025-12-06T17:26:37.000Z</time></trkpt>
        <trkpt lat="27.2341" lon="102.9082387"><ele>1272.67</ele><time>2025-12-06T17:26:41.000Z</time></trkpt>
        <trkpt lat="27.2341205" lon="102.9081712"><ele>1272.28</ele><time>2025-12-06T17:26:47.000Z</time></trkpt>
        <trkpt lat="27.2341332" lon="102.9081126"><ele>1271.87</ele><time>2025-12-06T17:26:51.000Z</time></trkpt>
        <trkpt lat="27.2341524" lon="102.9080624"><ele>1271.47</ele><time>2025-12-06T17:26:55.000Z</time></trkpt>
        <trkpt lat="27.2341728" lon="102.9080143"><ele>1270.95</ele><time>2025-12-06T17:26:59.000Z</time></trkpt>
        <trkpt lat="27.2341938" lon="102.9079612"><ele>1270.41</ele><time>2025-12-06T17:27:03.000Z</time></trkpt>
        <trkpt lat="27.2342081" lon="102.9079057"><ele>1270.03</ele><time>2025-12-06T17:27:07.000Z</time></trkpt>
        <trkpt lat="27.2342345" lon="102.9078363"><ele>1269.59</ele><time>2025-12-06T17:27:13.000Z</time></trkpt>
        <trkpt lat="27.2342662" lon="102.9077755"><ele>1268.92</ele><time>2025-12-06T17:27:17.000Z</time></trkpt>
        <trkpt lat="27.2342827" lon="102.90772"><ele>1268.57</ele><time>2025-12-06T17:27:21.000Z</time></trkpt>
        <trkpt lat="27.2342951" lon="102.9076657"><ele>1268.28</ele><time>2025-12-06T17:27:29.000Z</time></trkpt>
        <trkpt lat="27.234306" lon="102.9076123"><ele>1267.91</ele><time>2025-12-06T17:27:33.000Z</time></trkpt>
        <trkpt lat="27.2343257" lon="102.9075511"><ele>1267.62</ele><time>2025-12-06T17:27:39.000Z</time></trkpt>
        <trkpt lat="27.234341" lon="102.9074942"><ele>1267.42</ele><time>2025-12-06T17:27:43.000Z</time></trkpt>
        <trkpt lat="27.2343653" lon="102.9074457"><ele>1264.18</ele><time>2025-12-06T17:27:47.000Z</time></trkpt>
        <trkpt lat="27.2343902" lon="102.9073919"><ele>1265.26</ele><time>2025-12-06T17:27:52.000Z</time></trkpt>
        <trkpt lat="27.234395" lon="102.9073404"><ele>1265.08</ele><time>2025-12-06T17:27:55.000Z</time></trkpt>
        <trkpt lat="27.2344054" lon="102.9072863"><ele>1264.08</ele><time>2025-12-06T17:28:01.000Z</time></trkpt>
        <trkpt lat="27.2344152" lon="102.9072443"><ele>1261.03</ele><time>2025-12-06T17:28:13.000Z</time></trkpt>
        <trkpt lat="27.2344501" lon="102.9072572"><ele>1259.62</ele><time>2025-12-06T17:28:31.000Z</time></trkpt>
        <trkpt lat="27.2344319" lon="102.9072307"><ele>1259.69</ele><time>2025-12-06T17:28:55.000Z</time></trkpt>
        <trkpt lat="27.2343899" lon="102.9072092"><ele>1261.36</ele><time>2025-12-06T17:29:01.000Z</time></trkpt>
        <trkpt lat="27.2344198" lon="102.9072132"><ele>1262.87</ele><time>2025-12-06T17:29:37.000Z</time></trkpt>
        <trkpt lat="27.2344488" lon="102.9072544"><ele>1263.84</ele><time>2025-12-06T17:30:37.000Z</time></trkpt>
        <trkpt lat="27.2344952" lon="102.9072542"><ele>1264.26</ele><time>2025-12-06T17:31:11.000Z</time></trkpt>
        <trkpt lat="27.2345327" lon="102.9072821"><ele>1265.26</ele><time>2025-12-06T17:32:09.000Z</time></trkpt>
        <trkpt lat="27.2345037" lon="102.9072474"><ele>1266.3</ele><time>2025-12-06T17:34:09.000Z</time></trkpt>
        <trkpt lat="27.234529" lon="102.9072928"><ele>1267.76</ele><time>2025-12-06T17:35:43.000Z</time></trkpt>
        <trkpt lat="27.2345779" lon="102.9073276"><ele>1268.32</ele><time>2025-12-06T17:36:43.000Z</time></trkpt>
        <trkpt lat="27.2346231" lon="102.9073595"><ele>1267.72</ele><time>2025-12-06T17:36:47.000Z</time></trkpt>
        <trkpt lat="27.2346622" lon="102.9073768"><ele>1266.9</ele><time>2025-12-06T17:36:53.000Z</time></trkpt>
        <trkpt lat="27.2347159" lon="102.907412"><ele>1266.35</ele><time>2025-12-06T17:37:13.000Z</time></trkpt>
        <trkpt lat="27.2347049" lon="102.9074502"><ele>1265.42</ele><time>2025-12-06T17:37:29.000Z</time></trkpt>
        <trkpt lat="27.2347391" lon="102.907487"><ele>1264.27</ele><time>2025-12-06T17:38:23.000Z</time></trkpt>
        <trkpt lat="27.2347925" lon="102.9075074"><ele>1264.4</ele><time>2025-12-06T17:38:27.000Z</time></trkpt>
        <trkpt lat="27.2348392" lon="102.9075182"><ele>1264.48</ele><time>2025-12-06T17:38:39.000Z</time></trkpt>
        <trkpt lat="27.2348991" lon="102.9075402"><ele>1264.37</ele><time>2025-12-06T17:38:53.000Z</time></trkpt>
        <trkpt lat="27.2349553" lon="102.9075713"><ele>1264.51</ele><time>2025-12-06T17:38:59.000Z</time></trkpt>
        <trkpt lat="27.2350149" lon="102.9076018"><ele>1264.46</ele><time>2025-12-06T17:39:03.000Z</time></trkpt>
        <trkpt lat="27.2350705" lon="102.9076307"><ele>1264.32</ele><time>2025-12-06T17:39:07.000Z</time></trkpt>
        <trkpt lat="27.235121" lon="102.9076461"><ele>1263.9</ele><time>2025-12-06T17:39:13.000Z</time></trkpt>
        <trkpt lat="27.2351705" lon="102.9076513"><ele>1263.06</ele><time>2025-12-06T17:39:19.000Z</time></trkpt>
        <trkpt lat="27.2352275" lon="102.9076424"><ele>1262.78</ele><time>2025-12-06T17:39:27.000Z</time></trkpt>
        <trkpt lat="27.2352729" lon="102.9076202"><ele>1263.52</ele><time>2025-12-06T17:39:31.000Z</time></trkpt>
        <trkpt lat="27.2353204" lon="102.907587"><ele>1263.82</ele><time>2025-12-06T17:39:41.000Z</time></trkpt>
        <trkpt lat="27.2353204" lon="102.907587"><ele>1263.82</ele><time>2025-12-06T17:40:04.000Z</time></trkpt>
        <trkpt lat="27.2353689" lon="102.9075532"><ele>1263.47</ele><time>2025-12-06T17:40:10.000Z</time></trkpt>
        <trkpt lat="27.2353689" lon="102.9075532"><ele>1263.47</ele><time>2025-12-06T17:40:15.000Z</time></trkpt>
        <trkpt lat="27.2354126" lon="102.9075292"><ele>1262.7</ele><time>2025-12-06T17:40:21.000Z</time></trkpt>
        <trkpt lat="27.2354655" lon="102.9075136"><ele>1262.08</ele><time>2025-12-06T17:40:47.000Z</time></trkpt>
        <trkpt lat="27.2355205" lon="102.9075126"><ele>1261.56</ele><time>2025-12-06T17:40:55.000Z</time></trkpt>
        <trkpt lat="27.2355706" lon="102.9075021"><ele>1260.98</ele><time>2025-12-06T17:41:03.000Z</time></trkpt>
        <trkpt lat="27.2356168" lon="102.907482"><ele>1260.34</ele><time>2025-12-06T17:41:19.000Z</time></trkpt>
        <trkpt lat="27.2356649" lon="102.9074494"><ele>1260.09</ele><time>2025-12-06T17:41:43.000Z</time></trkpt>
        <trkpt lat="27.2356985" lon="102.9074031"><ele>1260.33</ele><time>2025-12-06T17:41:47.000Z</time></trkpt>
        <trkpt lat="27.2357347" lon="102.9073667"><ele>1260.91</ele><time>2025-12-06T17:41:55.000Z</time></trkpt>
        <trkpt lat="27.2357347" lon="102.9073667"><ele>1260.91</ele><time>2025-12-06T17:42:04.000Z</time></trkpt>
        <trkpt lat="27.2357926" lon="102.9073563"><ele>1261.59</ele><time>2025-12-06T17:42:06.000Z</time></trkpt>
        <trkpt lat="27.2357926" lon="102.9073563"><ele>1261.59</ele><time>2025-12-06T17:42:39.000Z</time></trkpt>
        <trkpt lat="27.2358404" lon="102.9073411"><ele>1261.58</ele><time>2025-12-06T17:42:43.000Z</time></trkpt>
        <trkpt lat="27.235892" lon="102.907323"><ele>1261.65</ele><time>2025-12-06T17:42:51.000Z</time></trkpt>
        <trkpt lat="27.2359507" lon="102.9072992"><ele>1261.83</ele><time>2025-12-06T17:42:55.000Z</time></trkpt>
        <trkpt lat="27.2360034" lon="102.907252"><ele>1262.66</ele><time>2025-12-06T17:42:59.000Z</time></trkpt>
        <trkpt lat="27.2360514" lon="102.9072212"><ele>1263.39</ele><time>2025-12-06T17:43:03.000Z</time></trkpt>
        <trkpt lat="27.2361218" lon="102.9072251"><ele>1263.88</ele><time>2025-12-06T17:43:07.000Z</time></trkpt>
        <trkpt lat="27.2361414" lon="102.9072353"><ele>1263.76</ele><time>2025-12-06T17:43:13.000Z</time></trkpt>
        <trkpt lat="27.23618" lon="102.9072199"><ele>1264.06</ele><time>2025-12-06T17:43:23.000Z</time></trkpt>
        <trkpt lat="27.2362249" lon="102.9072024"><ele>1263.75</ele><time>2025-12-06T17:43:33.000Z</time></trkpt>
        <trkpt lat="27.2362643" lon="102.9071689"><ele>1263.19</ele><time>2025-12-06T17:43:55.000Z</time></trkpt>
        <trkpt lat="27.2362952" lon="102.907113"><ele>1262.68</ele><time>2025-12-06T17:44:35.000Z</time></trkpt>
        <trkpt lat="27.2363322" lon="102.9070695"><ele>1261.37</ele><time>2025-12-06T17:44:39.000Z</time></trkpt>
        <trkpt lat="27.2363705" lon="102.9070274"><ele>1260.26</ele><time>2025-12-06T17:44:45.000Z</time></trkpt>
        <trkpt lat="27.2364089" lon="102.9069966"><ele>1259.42</ele><time>2025-12-06T17:45:15.000Z</time></trkpt>
        <trkpt lat="27.2364495" lon="102.9069595"><ele>1258.38</ele><time>2025-12-06T17:45:49.000Z</time></trkpt>
        <trkpt lat="27.236501" lon="102.9069233"><ele>1256.67</ele><time>2025-12-06T17:45:59.000Z</time></trkpt>
        <trkpt lat="27.2365501" lon="102.9068995"><ele>1255.13</ele><time>2025-12-06T17:46:03.000Z</time></trkpt>
        <trkpt lat="27.2366015" lon="102.9068817"><ele>1253.91</ele><time>2025-12-06T17:46:11.000Z</time></trkpt>
        <trkpt lat="27.236652" lon="102.906866"><ele>1252.73</ele><time>2025-12-06T17:46:17.000Z</time></trkpt>
        <trkpt lat="27.2367017" lon="102.9068389"><ele>1251.81</ele><time>2025-12-06T17:46:23.000Z</time></trkpt>
        <trkpt lat="27.2367381" lon="102.9067685"><ele>1249.36</ele><time>2025-12-06T17:46:31.000Z</time></trkpt>
        <trkpt lat="27.2367653" lon="102.9067119"><ele>1249.41</ele><time>2025-12-06T17:46:35.000Z</time></trkpt>
        <trkpt lat="27.2367969" lon="102.9066708"><ele>1249.23</ele><time>2025-12-06T17:46:39.000Z</time></trkpt>
        <trkpt lat="27.2367969" lon="102.9066708"><ele>1249.23</ele><time>2025-12-06T17:47:14.000Z</time></trkpt>
        <trkpt lat="27.236836" lon="102.9066388"><ele>1248.98</ele><time>2025-12-06T17:47:18.000Z</time></trkpt>
        <trkpt lat="27.236836" lon="102.9066388"><ele>1248.98</ele><time>2025-12-06T17:48:07.000Z</time></trkpt>
        <trkpt lat="27.2368891" lon="102.9066093"><ele>1248</ele><time>2025-12-06T17:48:13.000Z</time></trkpt>
        <trkpt lat="27.2369335" lon="102.906591"><ele>1246.93</ele><time>2025-12-06T17:48:17.000Z</time></trkpt>
        <trkpt lat="27.2369842" lon="102.9065771"><ele>1246.11</ele><time>2025-12-06T17:48:21.000Z</time></trkpt>
        <trkpt lat="27.2370462" lon="102.9065702"><ele>1245.35</ele><time>2025-12-06T17:48:27.000Z</time></trkpt>
        <trkpt lat="27.2370893" lon="102.9065386"><ele>1245.18</ele><time>2025-12-06T17:48:31.000Z</time></trkpt>
        <trkpt lat="27.2371088" lon="102.9065116"><ele>1245.09</ele><time>2025-12-06T17:48:39.000Z</time></trkpt>
        <trkpt lat="27.2371088" lon="102.9065116"><ele>1245.09</ele><time>2025-12-06T17:49:08.000Z</time></trkpt>
        <trkpt lat="27.2371518" lon="102.9064917"><ele>1243.82</ele><time>2025-12-06T17:49:28.000Z</time></trkpt>
        <trkpt lat="27.2371518" lon="102.9064917"><ele>1243.82</ele><time>2025-12-06T17:49:49.000Z</time></trkpt>
        <trkpt lat="27.2371995" lon="102.9064776"><ele>1242.89</ele><time>2025-12-06T17:49:53.000Z</time></trkpt>
        <trkpt lat="27.2372429" lon="102.9064512"><ele>1242.39</ele><time>2025-12-06T17:49:59.000Z</time></trkpt>
        <trkpt lat="27.2372798" lon="102.9064165"><ele>1242.15</ele><time>2025-12-06T17:50:05.000Z</time></trkpt>
        <trkpt lat="27.2373241" lon="102.9063659"><ele>1242.14</ele><time>2025-12-06T17:50:11.000Z</time></trkpt>
        <trkpt lat="27.2373611" lon="102.9063372"><ele>1242.19</ele><time>2025-12-06T17:50:25.000Z</time></trkpt>
        <trkpt lat="27.2374114" lon="102.906341"><ele>1242.15</ele><time>2025-12-06T17:50:33.000Z</time></trkpt>
        <trkpt lat="27.2374691" lon="102.9063292"><ele>1242.34</ele><time>2025-12-06T17:50:40.000Z</time></trkpt>
        <trkpt lat="27.2375225" lon="102.9063112"><ele>1242.45</ele><time>2025-12-06T17:50:45.000Z</time></trkpt>
        <trkpt lat="27.2375491" lon="102.9062647"><ele>1242.68</ele><time>2025-12-06T17:50:51.000Z</time></trkpt>
        <trkpt lat="27.2375741" lon="102.9062106"><ele>1242.9</ele><time>2025-12-06T17:50:57.000Z</time></trkpt>
        <trkpt lat="27.2376059" lon="102.9061508"><ele>1243.09</ele><time>2025-12-06T17:51:03.000Z</time></trkpt>
        <trkpt lat="27.237662" lon="102.9061262"><ele>1243.46</ele><time>2025-12-06T17:51:11.000Z</time></trkpt>
        <trkpt lat="27.2377135" lon="102.9061298"><ele>1244.18</ele><time>2025-12-06T17:51:15.000Z</time></trkpt>
        <trkpt lat="27.2377765" lon="102.9061142"><ele>1244.51</ele><time>2025-12-06T17:51:21.000Z</time></trkpt>
        <trkpt lat="27.2378313" lon="102.906101"><ele>1244.97</ele><time>2025-12-06T17:51:25.000Z</time></trkpt>
        <trkpt lat="27.2378793" lon="102.9060897"><ele>1245.11</ele><time>2025-12-06T17:51:29.000Z</time></trkpt>
        <trkpt lat="27.2379383" lon="102.9060869"><ele>1245.27</ele><time>2025-12-06T17:51:33.000Z</time></trkpt>
        <trkpt lat="27.2379821" lon="102.9060546"><ele>1246.57</ele><time>2025-12-06T17:51:39.000Z</time></trkpt>
        <trkpt lat="27.2379942" lon="102.906042"><ele>1247.2</ele><time>2025-12-06T17:51:45.000Z</time></trkpt>
        <trkpt lat="27.2379942" lon="102.906042"><ele>1247.2</ele><time>2025-12-06T17:52:24.000Z</time></trkpt>
        <trkpt lat="27.2379599" lon="102.9060197"><ele>1246.35</ele><time>2025-12-06T17:52:26.000Z</time></trkpt>
        <trkpt lat="27.2379599" lon="102.9060197"><ele>1246.35</ele><time>2025-12-06T17:52:29.000Z</time></trkpt>
        <trkpt lat="27.2379806" lon="102.9059879"><ele>1246.68</ele><time>2025-12-06T17:52:41.000Z</time></trkpt>
        <trkpt lat="27.2379806" lon="102.9059879"><ele>1246.68</ele><time>2025-12-06T17:53:12.000Z</time></trkpt>
        <trkpt lat="27.2379806" lon="102.9059879"><ele>1246.68</ele><time>2025-12-06T17:53:24.000Z</time></trkpt>
        <trkpt lat="27.2379806" lon="102.9059879"><ele>1246.68</ele><time>2025-12-06T17:53:54.000Z</time></trkpt>
        <trkpt lat="27.2379822" lon="102.9059295"><ele>1246.11</ele><time>2025-12-06T17:53:56.000Z</time></trkpt>
        <trkpt lat="27.2379822" lon="102.9059295"><ele>1246.11</ele><time>2025-12-06T17:54:33.000Z</time></trkpt>
        <trkpt lat="27.2380001" lon="102.9058673"><ele>1245.41</ele><time>2025-12-06T17:54:43.000Z</time></trkpt>
        <trkpt lat="27.2380423" lon="102.9058235"><ele>1245.48</ele><time>2025-12-06T17:54:49.000Z</time></trkpt>
        <trkpt lat="27.2380758" lon="102.9057846"><ele>1246.24</ele><time>2025-12-06T17:54:57.000Z</time></trkpt>
        <trkpt lat="27.2380955" lon="102.9057223"><ele>1245.98</ele><time>2025-12-06T17:55:07.000Z</time></trkpt>
        <trkpt lat="27.2381125" lon="102.9056535"><ele>1245.75</ele><time>2025-12-06T17:55:11.000Z</time></trkpt>
        <trkpt lat="27.2381417" lon="102.9056097"><ele>1245.21</ele><time>2025-12-06T17:55:15.000Z</time></trkpt>
        <trkpt lat="27.2382034" lon="102.9055769"><ele>1244.28</ele><time>2025-12-06T17:55:21.000Z</time></trkpt>
        <trkpt lat="27.238256" lon="102.9055515"><ele>1244.26</ele><time>2025-12-06T17:55:23.000Z</time></trkpt>
        <trkpt lat="27.2383078" lon="102.9055568"><ele>1244.09</ele><time>2025-12-06T17:55:31.000Z</time></trkpt>
        <trkpt lat="27.2383656" lon="102.9055774"><ele>1241.96</ele><time>2025-12-06T17:55:37.000Z</time></trkpt>
        <trkpt lat="27.2384071" lon="102.9056117"><ele>1240.61</ele><time>2025-12-06T17:55:41.000Z</time></trkpt>
        <trkpt lat="27.2384588" lon="102.9056382"><ele>1238.16</ele><time>2025-12-06T17:55:47.000Z</time></trkpt>
        <trkpt lat="27.2385188" lon="102.9056425"><ele>1236</ele><time>2025-12-06T17:55:59.000Z</time></trkpt>
        <trkpt lat="27.2385651" lon="102.905618"><ele>1234.61</ele><time>2025-12-06T17:56:05.000Z</time></trkpt>
        <trkpt lat="27.238617" lon="102.9055987"><ele>1234.02</ele><time>2025-12-06T17:56:13.000Z</time></trkpt>
        <trkpt lat="27.2386701" lon="102.9055805"><ele>1233.66</ele><time>2025-12-06T17:56:19.000Z</time></trkpt>
        <trkpt lat="27.2387289" lon="102.9055736"><ele>1232.51</ele><time>2025-12-06T17:56:25.000Z</time></trkpt>
        <trkpt lat="27.2387787" lon="102.9055472"><ele>1231.78</ele><time>2025-12-06T17:56:29.000Z</time></trkpt>
        <trkpt lat="27.238833" lon="102.9055492"><ele>1231.5</ele><time>2025-12-06T17:56:33.000Z</time></trkpt>
        <trkpt lat="27.2388902" lon="102.9055516"><ele>1231.58</ele><time>2025-12-06T17:56:39.000Z</time></trkpt>
        <trkpt lat="27.2389381" lon="102.9055411"><ele>1231.87</ele><time>2025-12-06T17:56:45.000Z</time></trkpt>
        <trkpt lat="27.2389844" lon="102.9055441"><ele>1232.13</ele><time>2025-12-06T17:56:55.000Z</time></trkpt>
        <trkpt lat="27.2389844" lon="102.9055441"><ele>1232.13</ele><time>2025-12-06T17:57:32.000Z</time></trkpt>
        <trkpt lat="27.2390286" lon="102.9055501"><ele>1231.62</ele><time>2025-12-06T17:57:38.000Z</time></trkpt>
        <trkpt lat="27.2390286" lon="102.9055501"><ele>1231.62</ele><time>2025-12-06T17:58:13.000Z</time></trkpt>
        <trkpt lat="27.2390684" lon="102.9055756"><ele>1231.15</ele><time>2025-12-06T17:59:05.000Z</time></trkpt>
        <trkpt lat="27.2390684" lon="102.9055756"><ele>1231.15</ele><time>2025-12-06T17:59:30.000Z</time></trkpt>
        <trkpt lat="27.2391115" lon="102.9055379"><ele>1230.63</ele><time>2025-12-06T17:59:40.000Z</time></trkpt>
        <trkpt lat="27.2391115" lon="102.9055379"><ele>1230.63</ele><time>2025-12-06T18:00:41.000Z</time></trkpt>
        <trkpt lat="27.2391726" lon="102.9055433"><ele>1230.03</ele><time>2025-12-06T18:00:45.000Z</time></trkpt>
        <trkpt lat="27.239227" lon="102.9055269"><ele>1229.4</ele><time>2025-12-06T18:00:49.000Z</time></trkpt>
        <trkpt lat="27.2392833" lon="102.905485"><ele>1228.9</ele><time>2025-12-06T18:00:55.000Z</time></trkpt>
        <trkpt lat="27.2393386" lon="102.9054546"><ele>1228.5</ele><time>2025-12-06T18:00:59.000Z</time></trkpt>
        <trkpt lat="27.2393883" lon="102.9054504"><ele>1227.97</ele><time>2025-12-06T18:01:03.000Z</time></trkpt>
        <trkpt lat="27.239437" lon="102.9054329"><ele>1227.74</ele><time>2025-12-06T18:01:07.000Z</time></trkpt>
        <trkpt lat="27.2394821" lon="102.9054223"><ele>1227.19</ele><time>2025-12-06T18:01:11.000Z</time></trkpt>
        <trkpt lat="27.2395227" lon="102.9054025"><ele>1226.24</ele><time>2025-12-06T18:01:57.000Z</time></trkpt>
        <trkpt lat="27.2395796" lon="102.9053831"><ele>1225.1</ele><time>2025-12-06T18:02:09.000Z</time></trkpt>
        <trkpt lat="27.2396318" lon="102.9053696"><ele>1224.77</ele><time>2025-12-06T18:02:15.000Z</time></trkpt>
        <trkpt lat="27.2396814" lon="102.9053706"><ele>1224.74</ele><time>2025-12-06T18:02:21.000Z</time></trkpt>
        <trkpt lat="27.2396814" lon="102.9053706"><ele>1224.74</ele><time>2025-12-06T18:02:38.000Z</time></trkpt>
        <trkpt lat="27.239727" lon="102.9053546"><ele>1222</ele><time>2025-12-06T18:02:40.000Z</time></trkpt>
        <trkpt lat="27.239727" lon="102.9053546"><ele>1222</ele><time>2025-12-06T18:03:09.000Z</time></trkpt>
        <trkpt lat="27.239782" lon="102.9053401"><ele>1222.43</ele><time>2025-12-06T18:03:17.000Z</time></trkpt>
        <trkpt lat="27.2398326" lon="102.9053132"><ele>1222.1</ele><time>2025-12-06T18:03:23.000Z</time></trkpt>
        <trkpt lat="27.2398795" lon="102.9052993"><ele>1221.52</ele><time>2025-12-06T18:03:27.000Z</time></trkpt>
        <trkpt lat="27.2399294" lon="102.9052839"><ele>1221.09</ele><time>2025-12-06T18:03:31.000Z</time></trkpt>
        <trkpt lat="27.2399816" lon="102.9052716"><ele>1220.51</ele><time>2025-12-06T18:03:35.000Z</time></trkpt>
        <trkpt lat="27.2400287" lon="102.9052609"><ele>1219.96</ele><time>2025-12-06T18:03:39.000Z</time></trkpt>
        <trkpt lat="27.2400726" lon="102.9052382"><ele>1220.76</ele><time>2025-12-06T18:03:49.000Z</time></trkpt>
        <trkpt lat="27.2401126" lon="102.9052543"><ele>1220.47</ele><time>2025-12-06T18:04:05.000Z</time></trkpt>
        <trkpt lat="27.2401341" lon="102.9053149"><ele>1220.11</ele><time>2025-12-06T18:04:19.000Z</time></trkpt>
        <trkpt lat="27.2401455" lon="102.905389"><ele>1219.62</ele><time>2025-12-06T18:04:25.000Z</time></trkpt>
        <trkpt lat="27.2401648" lon="102.9053815"><ele>1219.34</ele><time>2025-12-06T18:04:57.000Z</time></trkpt>
        <trkpt lat="27.2407175" lon="102.9050331"><ele>1219.54</ele><time>2025-12-06T18:06:24.000Z</time></trkpt>
        <trkpt lat="27.2407944" lon="102.9050682"><ele>1209.5</ele><time>2025-12-06T18:06:28.000Z</time></trkpt>
        <trkpt lat="27.2408474" lon="102.9050503"><ele>1204.05</ele><time>2025-12-06T18:06:32.000Z</time></trkpt>
        <trkpt lat="27.2408952" lon="102.9050235"><ele>1201.93</ele><time>2025-12-06T18:06:40.000Z</time></trkpt>
        <trkpt lat="27.2409346" lon="102.9049929"><ele>1200.19</ele><time>2025-12-06T18:06:46.000Z</time></trkpt>
        <trkpt lat="27.2409796" lon="102.9049799"><ele>1199.73</ele><time>2025-12-06T18:06:54.000Z</time></trkpt>
        <trkpt lat="27.241021" lon="102.9049517"><ele>1199.91</ele><time>2025-12-06T18:07:10.000Z</time></trkpt>
        <trkpt lat="27.241021" lon="102.9049517"><ele>1199.91</ele><time>2025-12-06T18:07:26.000Z</time></trkpt>
        <trkpt lat="27.2410424" lon="102.9048988"><ele>1200.19</ele><time>2025-12-06T18:07:32.000Z</time></trkpt>
        <trkpt lat="27.2410424" lon="102.9048988"><ele>1200.19</ele><time>2025-12-06T18:07:34.000Z</time></trkpt>
        <trkpt lat="27.2410424" lon="102.9048988"><ele>1200.19</ele><time>2025-12-06T18:07:56.000Z</time></trkpt>
        <trkpt lat="27.2410424" lon="102.9048988"><ele>1200.19</ele><time>2025-12-06T18:07:58.000Z</time></trkpt>
        <trkpt lat="27.2410424" lon="102.9048988"><ele>1200.19</ele><time>2025-12-06T18:08:34.000Z</time></trkpt>
        <trkpt lat="27.2410801" lon="102.9048776"><ele>1200.17</ele><time>2025-12-06T18:08:38.000Z</time></trkpt>
        <trkpt lat="27.2410801" lon="102.9048776"><ele>1200.17</ele><time>2025-12-06T18:08:44.000Z</time></trkpt>
        <trkpt lat="27.2411472" lon="102.9048732"><ele>1200.72</ele><time>2025-12-06T18:09:00.000Z</time></trkpt>
        <trkpt lat="27.241197" lon="102.9048769"><ele>1201.17</ele><time>2025-12-06T18:09:04.000Z</time></trkpt>
        <trkpt lat="27.2412497" lon="102.9048908"><ele>1201.2</ele><time>2025-12-06T18:09:18.000Z</time></trkpt>
        <trkpt lat="27.2412952" lon="102.9048715"><ele>1201.19</ele><time>2025-12-06T18:09:40.000Z</time></trkpt>
        <trkpt lat="27.2412952" lon="102.9048715"><ele>1201.19</ele><time>2025-12-06T18:10:38.000Z</time></trkpt>
        <trkpt lat="27.2412952" lon="102.9048715"><ele>1201.19</ele><time>2025-12-06T18:10:44.000Z</time></trkpt>
        <trkpt lat="27.2412952" lon="102.9048715"><ele>1201.19</ele><time>2025-12-06T18:11:36.000Z</time></trkpt>
        <trkpt lat="27.2413353" lon="102.904816"><ele>1201.6</ele><time>2025-12-06T18:12:02.000Z</time></trkpt>
        <trkpt lat="27.2413353" lon="102.904816"><ele>1201.6</ele><time>2025-12-06T18:12:12.000Z</time></trkpt>
        <trkpt lat="27.241336" lon="102.9047496"><ele>1202.77</ele><time>2025-12-06T18:12:18.000Z</time></trkpt>
        <trkpt lat="27.2413345" lon="102.9046962"><ele>1203.95</ele><time>2025-12-06T18:12:42.000Z</time></trkpt>
        <trkpt lat="27.2413421" lon="102.9046529"><ele>1205.37</ele><time>2025-12-06T18:12:52.000Z</time></trkpt>
        <trkpt lat="27.2413607" lon="102.9046023"><ele>1206.39</ele><time>2025-12-06T18:13:04.000Z</time></trkpt>
        <trkpt lat="27.241375" lon="102.9045368"><ele>1207.43</ele><time>2025-12-06T18:13:12.000Z</time></trkpt>
        <trkpt lat="27.2414079" lon="102.9044876"><ele>1208.06</ele><time>2025-12-06T18:13:24.000Z</time></trkpt>
        <trkpt lat="27.2414535" lon="102.9044395"><ele>1207.9</ele><time>2025-12-06T18:13:29.000Z</time></trkpt>
        <trkpt lat="27.241506" lon="102.9043999"><ele>1207.84</ele><time>2025-12-06T18:13:35.000Z</time></trkpt>
        <trkpt lat="27.2415566" lon="102.9043745"><ele>1206.66</ele><time>2025-12-06T18:13:39.000Z</time></trkpt>
        <trkpt lat="27.241604" lon="102.9043796"><ele>1206.31</ele><time>2025-12-06T18:13:53.000Z</time></trkpt>
        <trkpt lat="27.2416498" lon="102.9043681"><ele>1205.04</ele><time>2025-12-06T18:14:04.000Z</time></trkpt>
        <trkpt lat="27.2416498" lon="102.9043681"><ele>1205.04</ele><time>2025-12-06T18:15:40.000Z</time></trkpt>
        <trkpt lat="27.2416929" lon="102.9043538"><ele>1204.54</ele><time>2025-12-06T18:15:48.000Z</time></trkpt>
        <trkpt lat="27.2416929" lon="102.9043538"><ele>1204.54</ele><time>2025-12-06T18:15:53.000Z</time></trkpt>
        <trkpt lat="27.2416951" lon="102.9043459"><ele>1203.68</ele><time>2025-12-06T18:15:55.000Z</time></trkpt>
        <trkpt lat="27.2417034" lon="102.9042944"><ele>1203.23</ele><time>2025-12-06T18:16:01.000Z</time></trkpt>
        <trkpt lat="27.2417263" lon="102.9042476"><ele>1203.01</ele><time>2025-12-06T18:16:05.000Z</time></trkpt>
        <trkpt lat="27.241758" lon="102.9042011"><ele>1202.86</ele><time>2025-12-06T18:16:10.000Z</time></trkpt>
        <trkpt lat="27.2417892" lon="102.9041556"><ele>1202.24</ele><time>2025-12-06T18:16:13.000Z</time></trkpt>
        <trkpt lat="27.2418283" lon="102.9041179"><ele>1200.92</ele><time>2025-12-06T18:16:17.000Z</time></trkpt>
        <trkpt lat="27.2418627" lon="102.90408"><ele>1199.98</ele><time>2025-12-06T18:16:21.000Z</time></trkpt>
        <trkpt lat="27.241905" lon="102.904063"><ele>1200.07</ele><time>2025-12-06T18:16:28.000Z</time></trkpt>
        <trkpt lat="27.2419509" lon="102.9040528"><ele>1200.63</ele><time>2025-12-06T18:16:35.000Z</time></trkpt>
        <trkpt lat="27.2419914" lon="102.9040314"><ele>1200.74</ele><time>2025-12-06T18:16:39.000Z</time></trkpt>
        <trkpt lat="27.2420423" lon="102.9040357"><ele>1200.65</ele><time>2025-12-06T18:16:47.000Z</time></trkpt>
        <trkpt lat="27.2420423" lon="102.9040357"><ele>1200.65</ele><time>2025-12-06T18:17:20.000Z</time></trkpt>
        <trkpt lat="27.2420423" lon="102.9040357"><ele>1200.65</ele><time>2025-12-06T18:17:30.000Z</time></trkpt>
        <trkpt lat="27.2420423" lon="102.9040357"><ele>1200.65</ele><time>2025-12-06T18:18:16.000Z</time></trkpt>
        <trkpt lat="27.2420951" lon="102.9040443"><ele>1200.58</ele><time>2025-12-06T18:18:18.000Z</time></trkpt>
        <trkpt lat="27.2420951" lon="102.9040443"><ele>1200.58</ele><time>2025-12-06T18:19:05.000Z</time></trkpt>
        <trkpt lat="27.2421326" lon="102.9040077"><ele>1200.16</ele><time>2025-12-06T18:19:17.000Z</time></trkpt>
        <trkpt lat="27.2421819" lon="102.903954"><ele>1199.96</ele><time>2025-12-06T18:19:23.000Z</time></trkpt>
        <trkpt lat="27.2422236" lon="102.9039158"><ele>1199.86</ele><time>2025-12-06T18:19:28.000Z</time></trkpt>
        <trkpt lat="27.2422774" lon="102.9038947"><ele>1199.43</ele><time>2025-12-06T18:19:33.000Z</time></trkpt>
        <trkpt lat="27.2423256" lon="102.9038795"><ele>1198.93</ele><time>2025-12-06T18:19:37.000Z</time></trkpt>
        <trkpt lat="27.2423716" lon="102.903856"><ele>1199.46</ele><time>2025-12-06T18:19:43.000Z</time></trkpt>
        <trkpt lat="27.2424102" lon="102.9038774"><ele>1199.83</ele><time>2025-12-06T18:19:47.000Z</time></trkpt>
        <trkpt lat="27.2423797" lon="102.9039013"><ele>1199.98</ele><time>2025-12-06T18:19:57.000Z</time></trkpt>
        <trkpt lat="27.2423797" lon="102.9039013"><ele>1199.98</ele><time>2025-12-06T18:20:06.000Z</time></trkpt>
        <trkpt lat="27.2423816" lon="102.9039441"><ele>1198.94</ele><time>2025-12-06T18:20:10.000Z</time></trkpt>
        <trkpt lat="27.2423816" lon="102.9039441"><ele>1198.94</ele><time>2025-12-06T18:20:15.000Z</time></trkpt>
        <trkpt lat="27.2424135" lon="102.9039461"><ele>1198</ele><time>2025-12-06T18:20:31.000Z</time></trkpt>
        <trkpt lat="27.2424578" lon="102.9039289"><ele>1197.44</ele><time>2025-12-06T18:20:35.000Z</time></trkpt>
        <trkpt lat="27.2425055" lon="102.9038922"><ele>1197.12</ele><time>2025-12-06T18:20:39.000Z</time></trkpt>
        <trkpt lat="27.2425587" lon="102.9038601"><ele>1196.79</ele><time>2025-12-06T18:20:45.000Z</time></trkpt>
        <trkpt lat="27.2426049" lon="102.9038235"><ele>1196.54</ele><time>2025-12-06T18:20:49.000Z</time></trkpt>
        <trkpt lat="27.2426517" lon="102.9037711"><ele>1196.33</ele><time>2025-12-06T18:20:55.000Z</time></trkpt>
        <trkpt lat="27.242667" lon="102.9037508"><ele>1195.91</ele><time>2025-12-06T18:20:57.000Z</time></trkpt>
        <trkpt lat="27.2426814" lon="102.9037088"><ele>1195.71</ele><time>2025-12-06T18:21:25.000Z</time></trkpt>
        <trkpt lat="27.2426814" lon="102.9037088"><ele>1195.71</ele><time>2025-12-06T18:21:40.000Z</time></trkpt>
        <trkpt lat="27.2427165" lon="102.9036816"><ele>1195.69</ele><time>2025-12-06T18:21:42.000Z</time></trkpt>
        <trkpt lat="27.2427165" lon="102.9036816"><ele>1195.69</ele><time>2025-12-06T18:22:13.000Z</time></trkpt>
        <trkpt lat="27.2427165" lon="102.9036816"><ele>1195.69</ele><time>2025-12-06T18:22:32.000Z</time></trkpt>
        <trkpt lat="27.2427165" lon="102.9036816"><ele>1195.69</ele><time>2025-12-06T18:22:40.000Z</time></trkpt>
        <trkpt lat="27.2427165" lon="102.9036816"><ele>1195.69</ele><time>2025-12-06T18:23:14.000Z</time></trkpt>
        <trkpt lat="27.2427165" lon="102.9036816"><ele>1195.69</ele><time>2025-12-06T18:23:16.000Z</time></trkpt>
        <trkpt lat="27.2427165" lon="102.9036816"><ele>1195.69</ele><time>2025-12-06T18:23:34.000Z</time></trkpt>
        <trkpt lat="27.2427646" lon="102.9036615"><ele>1194.7</ele><time>2025-12-06T18:23:52.000Z</time></trkpt>
        <trkpt lat="27.2427646" lon="102.9036615"><ele>1194.7</ele><time>2025-12-06T18:24:05.000Z</time></trkpt>
        <trkpt lat="27.2428168" lon="102.9036811"><ele>1193.72</ele><time>2025-12-06T18:24:19.000Z</time></trkpt>
        <trkpt lat="27.2428645" lon="102.9036741"><ele>1192.04</ele><time>2025-12-06T18:24:53.000Z</time></trkpt>
        <trkpt lat="27.2428785" lon="102.9036276"><ele>1191.51</ele><time>2025-12-06T18:25:01.000Z</time></trkpt>
        <trkpt lat="27.242898" lon="102.9035742"><ele>1191.77</ele><time>2025-12-06T18:25:07.000Z</time></trkpt>
        <trkpt lat="27.2429251" lon="102.9035281"><ele>1191.96</ele><time>2025-12-06T18:25:13.000Z</time></trkpt>
        <trkpt lat="27.2429638" lon="102.9034839"><ele>1192.07</ele><time>2025-12-06T18:25:17.000Z</time></trkpt>
        <trkpt lat="27.2430032" lon="102.9034447"><ele>1192.02</ele><time>2025-12-06T18:25:21.000Z</time></trkpt>
        <trkpt lat="27.2430287" lon="102.9033981"><ele>1191.91</ele><time>2025-12-06T18:25:25.000Z</time></trkpt>
        <trkpt lat="27.2430584" lon="102.9033467"><ele>1191.78</ele><time>2025-12-06T18:25:37.000Z</time></trkpt>
        <trkpt lat="27.2430951" lon="102.9033133"><ele>1191.87</ele><time>2025-12-06T18:25:41.000Z</time></trkpt>
        <trkpt lat="27.2431419" lon="102.9033114"><ele>1191.68</ele><time>2025-12-06T18:25:49.000Z</time></trkpt>
        <trkpt lat="27.2431935" lon="102.9033126"><ele>1190.28</ele><time>2025-12-06T18:26:15.000Z</time></trkpt>
        <trkpt lat="27.2432511" lon="102.9033065"><ele>1189.15</ele><time>2025-12-06T18:26:41.000Z</time></trkpt>
        <trkpt lat="27.2432971" lon="102.9032852"><ele>1188.47</ele><time>2025-12-06T18:26:51.000Z</time></trkpt>
        <trkpt lat="27.2433444" lon="102.9032463"><ele>1187.77</ele><time>2025-12-06T18:27:03.000Z</time></trkpt>
        <trkpt lat="27.2433681" lon="102.9031904"><ele>1187.66</ele><time>2025-12-06T18:27:07.000Z</time></trkpt>
        <trkpt lat="27.2433973" lon="102.9031479"><ele>1187.47</ele><time>2025-12-06T18:27:15.000Z</time></trkpt>
        <trkpt lat="27.2433973" lon="102.9031479"><ele>1187.47</ele><time>2025-12-06T18:27:34.000Z</time></trkpt>
        <trkpt lat="27.2434374" lon="102.9031332"><ele>1187.1</ele><time>2025-12-06T18:27:36.000Z</time></trkpt>
        <trkpt lat="27.2434374" lon="102.9031332"><ele>1187.1</ele><time>2025-12-06T18:28:03.000Z</time></trkpt>
        <trkpt lat="27.2434912" lon="102.903128"><ele>1186.33</ele><time>2025-12-06T18:28:25.000Z</time></trkpt>
        <trkpt lat="27.2435501" lon="102.9031107"><ele>1185.07</ele><time>2025-12-06T18:28:29.000Z</time></trkpt>
        <trkpt lat="27.2436021" lon="102.9030613"><ele>1183.59</ele><time>2025-12-06T18:28:33.000Z</time></trkpt>
        <trkpt lat="27.2436536" lon="102.9030199"><ele>1183.12</ele><time>2025-12-06T18:28:39.000Z</time></trkpt>
        <trkpt lat="27.2437073" lon="102.9030231"><ele>1182.97</ele><time>2025-12-06T18:28:53.000Z</time></trkpt>
        <trkpt lat="27.2437107" lon="102.9029915"><ele>1179.73</ele><time>2025-12-06T18:29:15.000Z</time></trkpt>
        <trkpt lat="27.2437394" lon="102.9029612"><ele>1181.27</ele><time>2025-12-06T18:29:39.000Z</time></trkpt>
        <trkpt lat="27.2437741" lon="102.9029275"><ele>1181.7</ele><time>2025-12-06T18:29:45.000Z</time></trkpt>
        <trkpt lat="27.2438162" lon="102.9029014"><ele>1181.42</ele><time>2025-12-06T18:29:51.000Z</time></trkpt>
        <trkpt lat="27.2438582" lon="102.9028553"><ele>1180.88</ele><time>2025-12-06T18:29:58.000Z</time></trkpt>
        <trkpt lat="27.2439078" lon="102.9028309"><ele>1181.08</ele><time>2025-12-06T18:30:03.000Z</time></trkpt>
        <trkpt lat="27.2439519" lon="102.9027913"><ele>1181.3</ele><time>2025-12-06T18:30:09.000Z</time></trkpt>
        <trkpt lat="27.2439821" lon="102.9027487"><ele>1181.33</ele><time>2025-12-06T18:30:13.000Z</time></trkpt>
        <trkpt lat="27.2440174" lon="102.9027127"><ele>1181.09</ele><time>2025-12-06T18:30:17.000Z</time></trkpt>
        <trkpt lat="27.2440573" lon="102.9026815"><ele>1180.9</ele><time>2025-12-06T18:30:21.000Z</time></trkpt>
        <trkpt lat="27.244127" lon="102.9026505"><ele>1174.25</ele><time>2025-12-06T18:30:25.000Z</time></trkpt>
        <trkpt lat="27.2441238" lon="102.9026556"><ele>1170.11</ele><time>2025-12-06T18:30:29.000Z</time></trkpt>
        <trkpt lat="27.2441506" lon="102.9026342"><ele>1174.4</ele><time>2025-12-06T18:31:47.000Z</time></trkpt>
        <trkpt lat="27.2441819" lon="102.90263"><ele>1176.17</ele><time>2025-12-06T18:31:55.000Z</time></trkpt>
        <trkpt lat="27.244214" lon="102.902596"><ele>1177.35</ele><time>2025-12-06T18:32:03.000Z</time></trkpt>
        <trkpt lat="27.2442329" lon="102.9025207"><ele>1178</ele><time>2025-12-06T18:32:17.000Z</time></trkpt>
        <trkpt lat="27.2442602" lon="102.9024574"><ele>1178.46</ele><time>2025-12-06T18:32:21.000Z</time></trkpt>
        <trkpt lat="27.2442952" lon="102.9024087"><ele>1178.75</ele><time>2025-12-06T18:32:25.000Z</time></trkpt>
        <trkpt lat="27.2443215" lon="102.9023608"><ele>1178.68</ele><time>2025-12-06T18:32:29.000Z</time></trkpt>
        <trkpt lat="27.2443695" lon="102.9023197"><ele>1178.53</ele><time>2025-12-06T18:32:33.000Z</time></trkpt>
        <trkpt lat="27.2444351" lon="102.9022911"><ele>1178.35</ele><time>2025-12-06T18:32:37.000Z</time></trkpt>
        <trkpt lat="27.2444725" lon="102.902247"><ele>1178.15</ele><time>2025-12-06T18:32:43.000Z</time></trkpt>
        <trkpt lat="27.2445116" lon="102.9022107"><ele>1177.7</ele><time>2025-12-06T18:32:47.000Z</time></trkpt>
        <trkpt lat="27.2445481" lon="102.9021704"><ele>1174.33</ele><time>2025-12-06T18:32:51.000Z</time></trkpt>
        <trkpt lat="27.244584" lon="102.9021362"><ele>1172.26</ele><time>2025-12-06T18:32:58.000Z</time></trkpt>
        <trkpt lat="27.244584" lon="102.9021362"><ele>1172.26</ele><time>2025-12-06T18:33:48.000Z</time></trkpt>
        <trkpt lat="27.2445925" lon="102.9020791"><ele>1170.57</ele><time>2025-12-06T18:33:50.000Z</time></trkpt>
        <trkpt lat="27.2445925" lon="102.9020791"><ele>1170.57</ele><time>2025-12-06T18:34:29.000Z</time></trkpt>
        <trkpt lat="27.2446269" lon="102.9020451"><ele>1171.39</ele><time>2025-12-06T18:34:37.000Z</time></trkpt>
        <trkpt lat="27.2446659" lon="102.9020133"><ele>1171.26</ele><time>2025-12-06T18:34:51.000Z</time></trkpt>
        <trkpt lat="27.2446822" lon="102.901963"><ele>1170.59</ele><time>2025-12-06T18:35:05.000Z</time></trkpt>
        <trkpt lat="27.2447129" lon="102.9019238"><ele>1170.1</ele><time>2025-12-06T18:35:17.000Z</time></trkpt>
        <trkpt lat="27.2447462" lon="102.9018833"><ele>1169.37</ele><time>2025-12-06T18:35:23.000Z</time></trkpt>
        <trkpt lat="27.2447668" lon="102.9018532"><ele>1168.71</ele><time>2025-12-06T18:35:27.000Z</time></trkpt>
        <trkpt lat="27.2448028" lon="102.9018252"><ele>1168.28</ele><time>2025-12-06T18:35:35.000Z</time></trkpt>
        <trkpt lat="27.2448028" lon="102.9018252"><ele>1168.28</ele><time>2025-12-06T18:35:54.000Z</time></trkpt>
        <trkpt lat="27.2448303" lon="102.9017748"><ele>1167.33</ele><time>2025-12-06T18:35:56.000Z</time></trkpt>
        <trkpt lat="27.2448303" lon="102.9017748"><ele>1167.33</ele><time>2025-12-06T18:36:19.000Z</time></trkpt>
        <trkpt lat="27.2448676" lon="102.9017256"><ele>1165.66</ele><time>2025-12-06T18:36:25.000Z</time></trkpt>
        <trkpt lat="27.2449324" lon="102.9017127"><ele>1164.03</ele><time>2025-12-06T18:36:29.000Z</time></trkpt>
        <trkpt lat="27.2450174" lon="102.9017379"><ele>1158.6</ele><time>2025-12-06T18:36:37.000Z</time></trkpt>
        <trkpt lat="27.2450918" lon="102.9017836"><ele>1153</ele><time>2025-12-06T18:36:39.000Z</time></trkpt>
        <trkpt lat="27.2451086" lon="102.9018093"><ele>1148.27</ele><time>2025-12-06T18:36:43.000Z</time></trkpt>
        <trkpt lat="27.2450639" lon="102.9017881"><ele>1152.05</ele><time>2025-12-06T18:36:45.000Z</time></trkpt>
        <trkpt lat="27.2450552" lon="102.9017393"><ele>1154.21</ele><time>2025-12-06T18:37:05.000Z</time></trkpt>
        <trkpt lat="27.2450538" lon="102.9016809"><ele>1155.46</ele><time>2025-12-06T18:37:29.000Z</time></trkpt>
        <trkpt lat="27.245027" lon="102.9016268"><ele>1156.42</ele><time>2025-12-06T18:37:45.000Z</time></trkpt>
        <trkpt lat="27.2449921" lon="102.9015737"><ele>1157.09</ele><time>2025-12-06T18:37:49.000Z</time></trkpt>
        <trkpt lat="27.2449919" lon="102.9015164"><ele>1157.73</ele><time>2025-12-06T18:37:53.000Z</time></trkpt>
        <trkpt lat="27.2450168" lon="102.9014648"><ele>1158.35</ele><time>2025-12-06T18:37:57.000Z</time></trkpt>
        <trkpt lat="27.2450333" lon="102.9014093"><ele>1159.07</ele><time>2025-12-06T18:38:01.000Z</time></trkpt>
        <trkpt lat="27.2450736" lon="102.9013641"><ele>1159.62</ele><time>2025-12-06T18:38:07.000Z</time></trkpt>
        <trkpt lat="27.245121" lon="102.9013312"><ele>1160.3</ele><time>2025-12-06T18:38:11.000Z</time></trkpt>
        <trkpt lat="27.2451757" lon="102.9012991"><ele>1160.7</ele><time>2025-12-06T18:38:15.000Z</time></trkpt>
        <trkpt lat="27.2452542" lon="102.9012986"><ele>1160.44</ele><time>2025-12-06T18:38:19.000Z</time></trkpt>
        <trkpt lat="27.2453165" lon="102.9012919"><ele>1158.99</ele><time>2025-12-06T18:38:23.000Z</time></trkpt>
        <trkpt lat="27.2453494" lon="102.9012822"><ele>1157.12</ele><time>2025-12-06T18:38:27.000Z</time></trkpt>
        <trkpt lat="27.2453895" lon="102.9012775"><ele>1155.59</ele><time>2025-12-06T18:38:31.000Z</time></trkpt>
        <trkpt lat="27.245437" lon="102.9012349"><ele>1153.94</ele><time>2025-12-06T18:38:43.000Z</time></trkpt>
        <trkpt lat="27.2454623" lon="102.9011838"><ele>1152.83</ele><time>2025-12-06T18:38:51.000Z</time></trkpt>
        <trkpt lat="27.2455058" lon="102.9011386"><ele>1152.26</ele><time>2025-12-06T18:38:59.000Z</time></trkpt>
        <trkpt lat="27.2455546" lon="102.9011047"><ele>1150.97</ele><time>2025-12-06T18:39:05.000Z</time></trkpt>
        <trkpt lat="27.2455922" lon="102.901064"><ele>1148.54</ele><time>2025-12-06T18:39:13.000Z</time></trkpt>
        <trkpt lat="27.2456282" lon="102.9010099"><ele>1146.22</ele><time>2025-12-06T18:39:19.000Z</time></trkpt>
        <trkpt lat="27.2456597" lon="102.9009613"><ele>1144.02</ele><time>2025-12-06T18:39:23.000Z</time></trkpt>
        <trkpt lat="27.2456949" lon="102.9009172"><ele>1142.26</ele><time>2025-12-06T18:39:29.000Z</time></trkpt>
        <trkpt lat="27.2457208" lon="102.9008992"><ele>1138.4</ele><time>2025-12-06T18:39:49.000Z</time></trkpt>
        <trkpt lat="27.2457643" lon="102.9009154"><ele>1136.87</ele><time>2025-12-06T18:40:15.000Z</time></trkpt>
        <trkpt lat="27.2457924" lon="102.9009734"><ele>1135.77</ele><time>2025-12-06T18:40:21.000Z</time></trkpt>
        <trkpt lat="27.2458179" lon="102.9010325"><ele>1134.44</ele><time>2025-12-06T18:40:25.000Z</time></trkpt>
        <trkpt lat="27.2458362" lon="102.9011115"><ele>1133.39</ele><time>2025-12-06T18:40:53.000Z</time></trkpt>
        <trkpt lat="27.2458624" lon="102.901191"><ele>1132.09</ele><time>2025-12-06T18:40:57.000Z</time></trkpt>
        <trkpt lat="27.2458524" lon="102.9012519"><ele>1131.2</ele><time>2025-12-06T18:41:03.000Z</time></trkpt>
        <trkpt lat="27.245848" lon="102.9013042"><ele>1129.72</ele><time>2025-12-06T18:41:07.000Z</time></trkpt>
        <trkpt lat="27.2458634" lon="102.9013535"><ele>1128.27</ele><time>2025-12-06T18:41:13.000Z</time></trkpt>
        <trkpt lat="27.2458819" lon="102.9013685"><ele>1127.15</ele><time>2025-12-06T18:41:21.000Z</time></trkpt>
        <trkpt lat="27.2459263" lon="102.9013856"><ele>1126.25</ele><time>2025-12-06T18:41:43.000Z</time></trkpt>
        <trkpt lat="27.2459847" lon="102.9013751"><ele>1125.82</ele><time>2025-12-06T18:41:51.000Z</time></trkpt>
        <trkpt lat="27.2460363" lon="102.9013751"><ele>1125.02</ele><time>2025-12-06T18:41:55.000Z</time></trkpt>
        <trkpt lat="27.2460955" lon="102.9013824"><ele>1124.11</ele><time>2025-12-06T18:41:59.000Z</time></trkpt>
        <trkpt lat="27.2461523" lon="102.9013996"><ele>1120.3</ele><time>2025-12-06T18:42:05.000Z</time></trkpt>
        <trkpt lat="27.2462088" lon="102.9014253"><ele>1118.52</ele><time>2025-12-06T18:42:13.000Z</time></trkpt>
        <trkpt lat="27.2462523" lon="102.9014569"><ele>1118.55</ele><time>2025-12-06T18:42:17.000Z</time></trkpt>
        <trkpt lat="27.2462802" lon="102.9014712"><ele>1118.64</ele><time>2025-12-06T18:42:21.000Z</time></trkpt>
        <trkpt lat="27.2463089" lon="102.9015034"><ele>1120.15</ele><time>2025-12-06T18:42:29.000Z</time></trkpt>
        <trkpt lat="27.2463172" lon="102.9015654"><ele>1121.12</ele><time>2025-12-06T18:42:35.000Z</time></trkpt>
        <trkpt lat="27.2463191" lon="102.90164"><ele>1121.64</ele><time>2025-12-06T18:42:41.000Z</time></trkpt>
        <trkpt lat="27.2463223" lon="102.9017017"><ele>1121.89</ele><time>2025-12-06T18:42:45.000Z</time></trkpt>
        <trkpt lat="27.2463121" lon="102.9017619"><ele>1122.14</ele><time>2025-12-06T18:42:51.000Z</time></trkpt>
        <trkpt lat="27.2462684" lon="102.9018088"><ele>1118.96</ele><time>2025-12-06T18:42:55.000Z</time></trkpt>
        <trkpt lat="27.2462887" lon="102.9018532"><ele>1117.16</ele><time>2025-12-06T18:42:59.000Z</time></trkpt>
        <trkpt lat="27.2463008" lon="102.901907"><ele>1119.46</ele><time>2025-12-06T18:43:03.000Z</time></trkpt>
        <trkpt lat="27.2462839" lon="102.9019682"><ele>1120.75</ele><time>2025-12-06T18:43:10.000Z</time></trkpt>
        <trkpt lat="27.2462587" lon="102.9020179"><ele>1121.47</ele><time>2025-12-06T18:43:13.000Z</time></trkpt>
        <trkpt lat="27.2462327" lon="102.9020767"><ele>1121.54</ele><time>2025-12-06T18:43:19.000Z</time></trkpt>
        <trkpt lat="27.2462202" lon="102.9021359"><ele>1121.25</ele><time>2025-12-06T18:43:23.000Z</time></trkpt>
        <trkpt lat="27.246183" lon="102.9021747"><ele>1121.18</ele><time>2025-12-06T18:43:27.000Z</time></trkpt>
        <trkpt lat="27.246131" lon="102.9022072"><ele>1121.01</ele><time>2025-12-06T18:43:31.000Z</time></trkpt>
        <trkpt lat="27.2460814" lon="102.9022411"><ele>1120.88</ele><time>2025-12-06T18:43:37.000Z</time></trkpt>
        <trkpt lat="27.2460814" lon="102.9022972"><ele>1120.51</ele><time>2025-12-06T18:43:51.000Z</time></trkpt>
        <trkpt lat="27.2461219" lon="102.9023474"><ele>1120.37</ele><time>2025-12-06T18:44:17.000Z</time></trkpt>
        <trkpt lat="27.2461412" lon="102.9024044"><ele>1120.2</ele><time>2025-12-06T18:44:21.000Z</time></trkpt>
        <trkpt lat="27.2461429" lon="102.9024396"><ele>1119.75</ele><time>2025-12-06T18:44:31.000Z</time></trkpt>
        <trkpt lat="27.2461353" lon="102.9024859"><ele>1118.85</ele><time>2025-12-06T18:44:47.000Z</time></trkpt>
        <trkpt lat="27.2461292" lon="102.9025457"><ele>1117.82</ele><time>2025-12-06T18:44:53.000Z</time></trkpt>
        <trkpt lat="27.2461059" lon="102.9025938"><ele>1117.39</ele><time>2025-12-06T18:45:01.000Z</time></trkpt>
        <trkpt lat="27.2461037" lon="102.9026178"><ele>1118.38</ele><time>2025-12-06T18:45:09.000Z</time></trkpt>
        <trkpt lat="27.2460786" lon="102.9026504"><ele>1117.77</ele><time>2025-12-06T18:45:33.000Z</time></trkpt>
        <trkpt lat="27.2460548" lon="102.9026936"><ele>1117.51</ele><time>2025-12-06T18:45:39.000Z</time></trkpt>
        <trkpt lat="27.246026" lon="102.9027538"><ele>1117.19</ele><time>2025-12-06T18:45:45.000Z</time></trkpt>
        <trkpt lat="27.2459954" lon="102.9028286"><ele>1117.09</ele><time>2025-12-06T18:45:49.000Z</time></trkpt>
        <trkpt lat="27.245976" lon="102.9028972"><ele>1116.4</ele><time>2025-12-06T18:45:53.000Z</time></trkpt>
        <trkpt lat="27.2459545" lon="102.9029714"><ele>1115.8</ele><time>2025-12-06T18:46:13.000Z</time></trkpt>
        <trkpt lat="27.2459434" lon="102.903035"><ele>1115.39</ele><time>2025-12-06T18:46:17.000Z</time></trkpt>
        <trkpt lat="27.2459347" lon="102.903089"><ele>1115.24</ele><time>2025-12-06T18:46:21.000Z</time></trkpt>
        <trkpt lat="27.2459107" lon="102.9031477"><ele>1114.92</ele><time>2025-12-06T18:46:25.000Z</time></trkpt>
        <trkpt lat="27.2458994" lon="102.9032031"><ele>1113.95</ele><time>2025-12-06T18:46:29.000Z</time></trkpt>
        <trkpt lat="27.2458934" lon="102.9032555"><ele>1113.05</ele><time>2025-12-06T18:46:35.000Z</time></trkpt>
        <trkpt lat="27.2458695" lon="102.9033153"><ele>1112.33</ele><time>2025-12-06T18:46:41.000Z</time></trkpt>
        <trkpt lat="27.2458545" lon="102.9033873"><ele>1111.77</ele><time>2025-12-06T18:46:46.000Z</time></trkpt>
        <trkpt lat="27.2458537" lon="102.9034587"><ele>1111.37</ele><time>2025-12-06T18:46:49.000Z</time></trkpt>
        <trkpt lat="27.2458694" lon="102.9035193"><ele>1110.89</ele><time>2025-12-06T18:47:03.000Z</time></trkpt>
        <trkpt lat="27.2458856" lon="102.9035826"><ele>1110.48</ele><time>2025-12-06T18:47:15.000Z</time></trkpt>
        <trkpt lat="27.2459096" lon="102.9036372"><ele>1110.21</ele><time>2025-12-06T18:47:21.000Z</time></trkpt>
        <trkpt lat="27.2459347" lon="102.9037031"><ele>1109.9</ele><time>2025-12-06T18:47:27.000Z</time></trkpt>
        <trkpt lat="27.2459626" lon="102.903754"><ele>1109.93</ele><time>2025-12-06T18:47:37.000Z</time></trkpt>
        <trkpt lat="27.2459332" lon="102.9037791"><ele>1109.59</ele><time>2025-12-06T18:47:55.000Z</time></trkpt>
        <trkpt lat="27.2459171" lon="102.9037868"><ele>1108.87</ele><time>2025-12-06T18:47:59.000Z</time></trkpt>
        <trkpt lat="27.2459319" lon="102.903818"><ele>1109.02</ele><time>2025-12-06T18:48:31.000Z</time></trkpt>
        <trkpt lat="27.2459701" lon="102.9038408"><ele>1109.59</ele><time>2025-12-06T18:48:35.000Z</time></trkpt>
        <trkpt lat="27.2460164" lon="102.9038695"><ele>1110.29</ele><time>2025-12-06T18:48:47.000Z</time></trkpt>
        <trkpt lat="27.2460671" lon="102.9038717"><ele>1109.72</ele><time>2025-12-06T18:48:53.000Z</time></trkpt>
        <trkpt lat="27.2461231" lon="102.9038375"><ele>1108.55</ele><time>2025-12-06T18:48:59.000Z</time></trkpt>
        <trkpt lat="27.2461782" lon="102.9038134"><ele>1107.29</ele><time>2025-12-06T18:49:05.000Z</time></trkpt>
        <trkpt lat="27.2462233" lon="102.9037803"><ele>1105.69</ele><time>2025-12-06T18:49:11.000Z</time></trkpt>
        <trkpt lat="27.2462684" lon="102.9037418"><ele>1104.24</ele><time>2025-12-06T18:49:19.000Z</time></trkpt>
        <trkpt lat="27.2463145" lon="102.9037145"><ele>1103.25</ele><time>2025-12-06T18:49:31.000Z</time></trkpt>
        <trkpt lat="27.2463525" lon="102.9037137"><ele>1108.18</ele><time>2025-12-06T18:49:43.000Z</time></trkpt>
        <trkpt lat="27.2463993" lon="102.9036923"><ele>1104.71</ele><time>2025-12-06T18:49:47.000Z</time></trkpt>
        <trkpt lat="27.2464283" lon="102.9036475"><ele>1103.67</ele><time>2025-12-06T18:49:51.000Z</time></trkpt>
        <trkpt lat="27.2464419" lon="102.9036039"><ele>1103.26</ele><time>2025-12-06T18:49:57.000Z</time></trkpt>
        <trkpt lat="27.2464749" lon="102.9035583"><ele>1103.14</ele><time>2025-12-06T18:50:07.000Z</time></trkpt>
        <trkpt lat="27.2464969" lon="102.9035075"><ele>1102.13</ele><time>2025-12-06T18:50:17.000Z</time></trkpt>
        <trkpt lat="27.2465244" lon="102.9034535"><ele>1101.51</ele><time>2025-12-06T18:50:31.000Z</time></trkpt>
        <trkpt lat="27.2465519" lon="102.9034023"><ele>1101.1</ele><time>2025-12-06T18:50:37.000Z</time></trkpt>
        <trkpt lat="27.2466" lon="102.9033583"><ele>1100.96</ele><time>2025-12-06T18:50:45.000Z</time></trkpt>
        <trkpt lat="27.2466348" lon="102.9033142"><ele>1100.71</ele><time>2025-12-06T18:50:49.000Z</time></trkpt>
        <trkpt lat="27.2466724" lon="102.9032632"><ele>1100.62</ele><time>2025-12-06T18:50:55.000Z</time></trkpt>
        <trkpt lat="27.2467277" lon="102.9032338"><ele>1100.6</ele><time>2025-12-06T18:51:01.000Z</time></trkpt>
        <trkpt lat="27.2467801" lon="102.9032333"><ele>1101.33</ele><time>2025-12-06T18:51:05.000Z</time></trkpt>
        <trkpt lat="27.2468339" lon="102.9032229"><ele>1103.48</ele><time>2025-12-06T18:51:11.000Z</time></trkpt>
        <trkpt lat="27.246882" lon="102.9032331"><ele>1104.48</ele><time>2025-12-06T18:51:19.000Z</time></trkpt>
        <trkpt lat="27.2468976" lon="102.9032771"><ele>1104.58</ele><time>2025-12-06T18:51:55.000Z</time></trkpt>
        <trkpt lat="27.2469319" lon="102.9033019"><ele>1103.15</ele><time>2025-12-06T18:52:17.000Z</time></trkpt>
        <trkpt lat="27.2469915" lon="102.9032878"><ele>1102.49</ele><time>2025-12-06T18:52:21.000Z</time></trkpt>
        <trkpt lat="27.2470271" lon="102.9032681"><ele>1102.15</ele><time>2025-12-06T18:52:25.000Z</time></trkpt>
        <trkpt lat="27.2470694" lon="102.9032358"><ele>1101.9</ele><time>2025-12-06T18:52:47.000Z</time></trkpt>
        <trkpt lat="27.2470934" lon="102.9032225"><ele>1101.44</ele><time>2025-12-06T18:52:57.000Z</time></trkpt>
        <trkpt lat="27.2471317" lon="102.9032098"><ele>1101.09</ele><time>2025-12-06T18:53:01.000Z</time></trkpt>
        <trkpt lat="27.2471763" lon="102.9031997"><ele>1100.82</ele><time>2025-12-06T18:53:09.000Z</time></trkpt>
        <trkpt lat="27.247218" lon="102.9031776"><ele>1100.36</ele><time>2025-12-06T18:53:27.000Z</time></trkpt>
        <trkpt lat="27.247218" lon="102.9031776"><ele>1100.36</ele><time>2025-12-06T18:53:44.000Z</time></trkpt>
        <trkpt lat="27.2472664" lon="102.9031413"><ele>1100.36</ele><time>2025-12-06T18:53:48.000Z</time></trkpt>
        <trkpt lat="27.2472664" lon="102.9031413"><ele>1100.36</ele><time>2025-12-06T18:54:25.000Z</time></trkpt>
        <trkpt lat="27.2472938" lon="102.903084"><ele>1100.08</ele><time>2025-12-06T18:54:31.000Z</time></trkpt>
        <trkpt lat="27.2473077" lon="102.903027"><ele>1099.59</ele><time>2025-12-06T18:54:35.000Z</time></trkpt>
        <trkpt lat="27.2473225" lon="102.9029732"><ele>1099.21</ele><time>2025-12-06T18:54:39.000Z</time></trkpt>
        <trkpt lat="27.2473509" lon="102.9029293"><ele>1098.69</ele><time>2025-12-06T18:54:45.000Z</time></trkpt>
        <trkpt lat="27.2474027" lon="102.9028908"><ele>1099.16</ele><time>2025-12-06T18:54:49.000Z</time></trkpt>
        <trkpt lat="27.2474542" lon="102.902866"><ele>1099.36</ele><time>2025-12-06T18:54:55.000Z</time></trkpt>
        <trkpt lat="27.2475177" lon="102.9028565"><ele>1099.31</ele><time>2025-12-06T18:55:01.000Z</time></trkpt>
        <trkpt lat="27.2475792" lon="102.9028375"><ele>1099.25</ele><time>2025-12-06T18:55:07.000Z</time></trkpt>
        <trkpt lat="27.2476321" lon="102.902817"><ele>1098.78</ele><time>2025-12-06T18:55:13.000Z</time></trkpt>
        <trkpt lat="27.2476786" lon="102.9028057"><ele>1097.91</ele><time>2025-12-06T18:55:19.000Z</time></trkpt>
        <trkpt lat="27.2477324" lon="102.9028003"><ele>1095.51</ele><time>2025-12-06T18:55:28.000Z</time></trkpt>
        <trkpt lat="27.2477979" lon="102.9027803"><ele>1093.71</ele><time>2025-12-06T18:55:35.000Z</time></trkpt>
        <trkpt lat="27.2478504" lon="102.902768"><ele>1094.58</ele><time>2025-12-06T18:55:46.000Z</time></trkpt>
        <trkpt lat="27.2478916" lon="102.902726"><ele>1094.86</ele><time>2025-12-06T18:55:49.000Z</time></trkpt>
        <trkpt lat="27.2479291" lon="102.9026821"><ele>1095</ele><time>2025-12-06T18:55:55.000Z</time></trkpt>
        <trkpt lat="27.2479684" lon="102.9026842"><ele>1095.05</ele><time>2025-12-06T18:56:01.000Z</time></trkpt>
        <trkpt lat="27.2480032" lon="102.9027211"><ele>1094.77</ele><time>2025-12-06T18:56:09.000Z</time></trkpt>
        <trkpt lat="27.2480192" lon="102.9027797"><ele>1094.25</ele><time>2025-12-06T18:56:15.000Z</time></trkpt>
        <trkpt lat="27.2480484" lon="102.9028358"><ele>1092.23</ele><time>2025-12-06T18:56:25.000Z</time></trkpt>
        <trkpt lat="27.2480853" lon="102.9028593"><ele>1090.01</ele><time>2025-12-06T18:56:31.000Z</time></trkpt>
        <trkpt lat="27.2481324" lon="102.9028805"><ele>1089.22</ele><time>2025-12-06T18:56:39.000Z</time></trkpt>
        <trkpt lat="27.248189" lon="102.9028877"><ele>1089.07</ele><time>2025-12-06T18:56:45.000Z</time></trkpt>
        <trkpt lat="27.2482435" lon="102.9028876"><ele>1088.95</ele><time>2025-12-06T18:56:55.000Z</time></trkpt>
        <trkpt lat="27.2482954" lon="102.9028904"><ele>1090.4</ele><time>2025-12-06T18:57:05.000Z</time></trkpt>
        <trkpt lat="27.2483491" lon="102.9029046"><ele>1089.89</ele><time>2025-12-06T18:57:13.000Z</time></trkpt>
        <trkpt lat="27.2484089" lon="102.9029186"><ele>1089.02</ele><time>2025-12-06T18:57:19.000Z</time></trkpt>
        <trkpt lat="27.2484606" lon="102.9029286"><ele>1088.95</ele><time>2025-12-06T18:57:25.000Z</time></trkpt>
        <trkpt lat="27.248499" lon="102.9029574"><ele>1089.67</ele><time>2025-12-06T18:57:31.000Z</time></trkpt>
        <trkpt lat="27.2485375" lon="102.9029869"><ele>1090.07</ele><time>2025-12-06T18:57:39.000Z</time></trkpt>
        <trkpt lat="27.2485827" lon="102.9030232"><ele>1090.37</ele><time>2025-12-06T18:57:57.000Z</time></trkpt>
        <trkpt lat="27.2486277" lon="102.903054"><ele>1090.53</ele><time>2025-12-06T18:58:09.000Z</time></trkpt>
        <trkpt lat="27.2486736" lon="102.9030777"><ele>1090.39</ele><time>2025-12-06T18:58:13.000Z</time></trkpt>
        <trkpt lat="27.2487189" lon="102.9031012"><ele>1090.19</ele><time>2025-12-06T18:58:17.000Z</time></trkpt>
        <trkpt lat="27.248769" lon="102.9031212"><ele>1089.79</ele><time>2025-12-06T18:58:23.000Z</time></trkpt>
        <trkpt lat="27.2488153" lon="102.9031532"><ele>1089.37</ele><time>2025-12-06T18:58:29.000Z</time></trkpt>
        <trkpt lat="27.2488505" lon="102.9031901"><ele>1088.51</ele><time>2025-12-06T18:58:35.000Z</time></trkpt>
        <trkpt lat="27.2488831" lon="102.9032294"><ele>1087.52</ele><time>2025-12-06T18:58:39.000Z</time></trkpt>
        <trkpt lat="27.2489152" lon="102.9032704"><ele>1087.01</ele><time>2025-12-06T18:58:46.000Z</time></trkpt>
        <trkpt lat="27.2489479" lon="102.903313"><ele>1086</ele><time>2025-12-06T18:58:51.000Z</time></trkpt>
        <trkpt lat="27.2489778" lon="102.9033637"><ele>1085.64</ele><time>2025-12-06T18:58:59.000Z</time></trkpt>
        <trkpt lat="27.2490117" lon="102.9034097"><ele>1085.37</ele><time>2025-12-06T18:59:07.000Z</time></trkpt>
        <trkpt lat="27.2490637" lon="102.9034275"><ele>1085.31</ele><time>2025-12-06T18:59:11.000Z</time></trkpt>
        <trkpt lat="27.2490858" lon="102.9034693"><ele>1085.02</ele><time>2025-12-06T18:59:41.000Z</time></trkpt>
        <trkpt lat="27.2491127" lon="102.9035327"><ele>1084.72</ele><time>2025-12-06T18:59:49.000Z</time></trkpt>
        <trkpt lat="27.2491562" lon="102.9035735"><ele>1084.04</ele><time>2025-12-06T18:59:55.000Z</time></trkpt>
        <trkpt lat="27.2492073" lon="102.9035978"><ele>1083.61</ele><time>2025-12-06T18:59:59.000Z</time></trkpt>
        <trkpt lat="27.2492567" lon="102.9036093"><ele>1083.12</ele><time>2025-12-06T19:00:03.000Z</time></trkpt>
        <trkpt lat="27.2492728" lon="102.9036521"><ele>1083.13</ele><time>2025-12-06T19:00:13.000Z</time></trkpt>
        <trkpt lat="27.2492827" lon="102.903708"><ele>1083.2</ele><time>2025-12-06T19:00:33.000Z</time></trkpt>
        <trkpt lat="27.2492777" lon="102.9037728"><ele>1082.42</ele><time>2025-12-06T19:00:43.000Z</time></trkpt>
        <trkpt lat="27.2492995" lon="102.9038315"><ele>1081.53</ele><time>2025-12-06T19:00:49.000Z</time></trkpt>
        <trkpt lat="27.2493312" lon="102.9038902"><ele>1080.66</ele><time>2025-12-06T19:00:57.000Z</time></trkpt>
        <trkpt lat="27.2493894" lon="102.9039157"><ele>1078.88</ele><time>2025-12-06T19:01:03.000Z</time></trkpt>
        <trkpt lat="27.2494415" lon="102.9039247"><ele>1077.48</ele><time>2025-12-06T19:01:07.000Z</time></trkpt>
        <trkpt lat="27.2494733" lon="102.9039294"><ele>1076.06</ele><time>2025-12-06T19:01:11.000Z</time></trkpt>
        <trkpt lat="27.2494929" lon="102.9039635"><ele>1075.24</ele><time>2025-12-06T19:01:21.000Z</time></trkpt>
        <trkpt lat="27.2495346" lon="102.9039691"><ele>1074.57</ele><time>2025-12-06T19:01:29.000Z</time></trkpt>
        <trkpt lat="27.24957" lon="102.9039987"><ele>1072.88</ele><time>2025-12-06T19:02:05.000Z</time></trkpt>
        <trkpt lat="27.2496107" lon="102.9040209"><ele>1073.2</ele><time>2025-12-06T19:02:27.000Z</time></trkpt>
        <trkpt lat="27.2496566" lon="102.9040348"><ele>1072.9</ele><time>2025-12-06T19:02:37.000Z</time></trkpt>
        <trkpt lat="27.2496566" lon="102.9040348"><ele>1072.9</ele><time>2025-12-06T19:03:48.000Z</time></trkpt>
        <trkpt lat="27.2496946" lon="102.9039949"><ele>1072.29</ele><time>2025-12-06T19:03:50.000Z</time></trkpt>
        <trkpt lat="27.2496946" lon="102.9039949"><ele>1072.29</ele><time>2025-12-06T19:03:51.000Z</time></trkpt>
        <trkpt lat="27.2496654" lon="102.9039459"><ele>1070.36</ele><time>2025-12-06T19:04:07.000Z</time></trkpt>
        <trkpt lat="27.2496461" lon="102.9038853"><ele>1069.23</ele><time>2025-12-06T19:04:25.000Z</time></trkpt>
        <trkpt lat="27.2496273" lon="102.9038358"><ele>1068.82</ele><time>2025-12-06T19:04:31.000Z</time></trkpt>
        <trkpt lat="27.2495992" lon="102.9037862"><ele>1068.39</ele><time>2025-12-06T19:04:35.000Z</time></trkpt>
        <trkpt lat="27.2495793" lon="102.9037245"><ele>1068.63</ele><time>2025-12-06T19:04:39.000Z</time></trkpt>
        <trkpt lat="27.2495648" lon="102.9036765"><ele>1069.09</ele><time>2025-12-06T19:04:45.000Z</time></trkpt>
        <trkpt lat="27.2495437" lon="102.9036274"><ele>1069.55</ele><time>2025-12-06T19:04:53.000Z</time></trkpt>
        <trkpt lat="27.2495299" lon="102.9035674"><ele>1069.88</ele><time>2025-12-06T19:04:59.000Z</time></trkpt>
        <trkpt lat="27.2495079" lon="102.9035034"><ele>1069.99</ele><time>2025-12-06T19:05:05.000Z</time></trkpt>
        <trkpt lat="27.2495066" lon="102.9034283"><ele>1069.61</ele><time>2025-12-06T19:05:11.000Z</time></trkpt>
        <trkpt lat="27.2495053" lon="102.9033662"><ele>1069.03</ele><time>2025-12-06T19:05:15.000Z</time></trkpt>
        <trkpt lat="27.249502" lon="102.9033101"><ele>1068.35</ele><time>2025-12-06T19:05:23.000Z</time></trkpt>
        <trkpt lat="27.2494898" lon="102.9032554"><ele>1067.41</ele><time>2025-12-06T19:05:33.000Z</time></trkpt>
        <trkpt lat="27.2495045" lon="102.9031886"><ele>1066.28</ele><time>2025-12-06T19:05:40.000Z</time></trkpt>
        <trkpt lat="27.2495151" lon="102.9031287"><ele>1065.91</ele><time>2025-12-06T19:05:45.000Z</time></trkpt>
        <trkpt lat="27.2495056" lon="102.903057"><ele>1065.74</ele><time>2025-12-06T19:05:59.000Z</time></trkpt>
        <trkpt lat="27.2495003" lon="102.9029924"><ele>1066.24</ele><time>2025-12-06T19:06:03.000Z</time></trkpt>
        <trkpt lat="27.2494992" lon="102.902937"><ele>1067.21</ele><time>2025-12-06T19:06:13.000Z</time></trkpt>
        <trkpt lat="27.2494862" lon="102.9028796"><ele>1067.89</ele><time>2025-12-06T19:06:21.000Z</time></trkpt>
        <trkpt lat="27.2494568" lon="102.9028214"><ele>1068.77</ele><time>2025-12-06T19:06:27.000Z</time></trkpt>
        <trkpt lat="27.2494241" lon="102.9027767"><ele>1069.32</ele><time>2025-12-06T19:06:29.000Z</time></trkpt>
        <trkpt lat="27.2494034" lon="102.9027234"><ele>1070.07</ele><time>2025-12-06T19:06:34.000Z</time></trkpt>
        <trkpt lat="27.2493742" lon="102.9026772"><ele>1070.75</ele><time>2025-12-06T19:06:47.000Z</time></trkpt>
        <trkpt lat="27.249326" lon="102.9026556"><ele>1071.1</ele><time>2025-12-06T19:06:59.000Z</time></trkpt>
        <trkpt lat="27.249284" lon="102.9026201"><ele>1072.61</ele><time>2025-12-06T19:07:15.000Z</time></trkpt>
        <trkpt lat="27.249284" lon="102.9026201"><ele>1072.61</ele><time>2025-12-06T19:08:08.000Z</time></trkpt>
        <trkpt lat="27.249284" lon="102.9026201"><ele>1072.61</ele><time>2025-12-06T19:08:14.000Z</time></trkpt>
        <trkpt lat="27.249284" lon="102.9026201"><ele>1072.61</ele><time>2025-12-06T19:09:00.000Z</time></trkpt>
        <trkpt lat="27.249284" lon="102.9026201"><ele>1072.61</ele><time>2025-12-06T19:09:04.000Z</time></trkpt>
        <trkpt lat="27.249284" lon="102.9026201"><ele>1072.61</ele><time>2025-12-06T19:10:14.000Z</time></trkpt>
        <trkpt lat="27.249284" lon="102.9026201"><ele>1072.61</ele><time>2025-12-06T19:10:18.000Z</time></trkpt>
        <trkpt lat="27.249284" lon="102.9026201"><ele>1072.61</ele><time>2025-12-06T19:10:38.000Z</time></trkpt>
        <trkpt lat="27.2492511" lon="102.9025575"><ele>1074.29</ele><time>2025-12-06T19:10:56.000Z</time></trkpt>
        <trkpt lat="27.2492511" lon="102.9025575"><ele>1074.29</ele><time>2025-12-06T19:11:09.000Z</time></trkpt>
        <trkpt lat="27.2492605" lon="102.9024871"><ele>1077.35</ele><time>2025-12-06T19:11:15.000Z</time></trkpt>
        <trkpt lat="27.2492573" lon="102.9024105"><ele>1079.58</ele><time>2025-12-06T19:11:23.000Z</time></trkpt>
        <trkpt lat="27.2492614" lon="102.9023379"><ele>1081.64</ele><time>2025-12-06T19:11:31.000Z</time></trkpt>
        <trkpt lat="27.2492525" lon="102.9022792"><ele>1083.43</ele><time>2025-12-06T19:11:39.000Z</time></trkpt>
        <trkpt lat="27.2492241" lon="102.9022336"><ele>1084.75</ele><time>2025-12-06T19:11:47.000Z</time></trkpt>
        <trkpt lat="27.2491841" lon="102.9021782"><ele>1085.91</ele><time>2025-12-06T19:11:51.000Z</time></trkpt>
        <trkpt lat="27.2491636" lon="102.9021202"><ele>1087.41</ele><time>2025-12-06T19:11:57.000Z</time></trkpt>
        <trkpt lat="27.249149" lon="102.9020681"><ele>1088.77</ele><time>2025-12-06T19:12:01.000Z</time></trkpt>
        <trkpt lat="27.2491264" lon="102.9020232"><ele>1090.16</ele><time>2025-12-06T19:12:05.000Z</time></trkpt>
        <trkpt lat="27.249099" lon="102.9019815"><ele>1091.98</ele><time>2025-12-06T19:12:11.000Z</time></trkpt>
        <trkpt lat="27.2490549" lon="102.9019432"><ele>1093.45</ele><time>2025-12-06T19:12:17.000Z</time></trkpt>
        <trkpt lat="27.2490155" lon="102.9019022"><ele>1094.61</ele><time>2025-12-06T19:12:25.000Z</time></trkpt>
        <trkpt lat="27.2489787" lon="102.9018609"><ele>1095.74</ele><time>2025-12-06T19:12:31.000Z</time></trkpt>
        <trkpt lat="27.2489435" lon="102.9018106"><ele>1097.32</ele><time>2025-12-06T19:12:43.000Z</time></trkpt>
        <trkpt lat="27.2489032" lon="102.9017662"><ele>1098.83</ele><time>2025-12-06T19:12:49.000Z</time></trkpt>
        <trkpt lat="27.2488588" lon="102.9017212"><ele>1100.39</ele><time>2025-12-06T19:13:03.000Z</time></trkpt>
        <trkpt lat="27.2488316" lon="102.901662"><ele>1101.44</ele><time>2025-12-06T19:13:10.000Z</time></trkpt>
        <trkpt lat="27.2487989" lon="102.9016051"><ele>1102.13</ele><time>2025-12-06T19:13:17.000Z</time></trkpt>
        <trkpt lat="27.248775" lon="102.9015555"><ele>1102.64</ele><time>2025-12-06T19:13:23.000Z</time></trkpt>
        <trkpt lat="27.2487727" lon="102.9014956"><ele>1104.33</ele><time>2025-12-06T19:13:29.000Z</time></trkpt>
        <trkpt lat="27.2487853" lon="102.9014404"><ele>1105.63</ele><time>2025-12-06T19:13:35.000Z</time></trkpt>
        <trkpt lat="27.2488233" lon="102.9014124"><ele>1106.29</ele><time>2025-12-06T19:13:57.000Z</time></trkpt>
        <trkpt lat="27.2488447" lon="102.9014057"><ele>1106.06</ele><time>2025-12-06T19:14:05.000Z</time></trkpt>
        <trkpt lat="27.2488857" lon="102.9013687"><ele>1105.73</ele><time>2025-12-06T19:14:15.000Z</time></trkpt>
        <trkpt lat="27.2489152" lon="102.9013227"><ele>1105.8</ele><time>2025-12-06T19:14:19.000Z</time></trkpt>
        <trkpt lat="27.2489385" lon="102.9012602"><ele>1106.2</ele><time>2025-12-06T19:14:37.000Z</time></trkpt>
        <trkpt lat="27.2489595" lon="102.9012021"><ele>1106.65</ele><time>2025-12-06T19:14:41.000Z</time></trkpt>
        <trkpt lat="27.2489613" lon="102.9011294"><ele>1107.36</ele><time>2025-12-06T19:14:47.000Z</time></trkpt>
        <trkpt lat="27.2489656" lon="102.9010706"><ele>1108.19</ele><time>2025-12-06T19:14:51.000Z</time></trkpt>
        <trkpt lat="27.2489677" lon="102.9010111"><ele>1108.79</ele><time>2025-12-06T19:14:55.000Z</time></trkpt>
        <trkpt lat="27.2489728" lon="102.9009411"><ele>1109.32</ele><time>2025-12-06T19:15:03.000Z</time></trkpt>
        <trkpt lat="27.2489842" lon="102.900865"><ele>1110.07</ele><time>2025-12-06T19:15:11.000Z</time></trkpt>
        <trkpt lat="27.2489964" lon="102.900802"><ele>1111.14</ele><time>2025-12-06T19:15:25.000Z</time></trkpt>
        <trkpt lat="27.2490248" lon="102.9007556"><ele>1112.3</ele><time>2025-12-06T19:15:45.000Z</time></trkpt>
        <trkpt lat="27.2490407" lon="102.9007079"><ele>1112.47</ele><time>2025-12-06T19:16:29.000Z</time></trkpt>
        <trkpt lat="27.2490897" lon="102.9007009"><ele>1113.89</ele><time>2025-12-06T19:18:51.000Z</time></trkpt>
        <trkpt lat="27.2491372" lon="102.9007181"><ele>1115.7</ele><time>2025-12-06T19:19:33.000Z</time></trkpt>
        <trkpt lat="27.2491787" lon="102.9007532"><ele>1116.71</ele><time>2025-12-06T19:19:41.000Z</time></trkpt>
        <trkpt lat="27.2492192" lon="102.9008086"><ele>1117.4</ele><time>2025-12-06T19:19:47.000Z</time></trkpt>
        <trkpt lat="27.2492526" lon="102.9008569"><ele>1117.34</ele><time>2025-12-06T19:19:53.000Z</time></trkpt>
        <trkpt lat="27.2492929" lon="102.9009028"><ele>1117.58</ele><time>2025-12-06T19:19:57.000Z</time></trkpt>
        <trkpt lat="27.2493354" lon="102.9009539"><ele>1117.73</ele><time>2025-12-06T19:20:01.000Z</time></trkpt>
        <trkpt lat="27.2493681" lon="102.9010249"><ele>1118</ele><time>2025-12-06T19:20:05.000Z</time></trkpt>
        <trkpt lat="27.249401" lon="102.9010702"><ele>1117.96</ele><time>2025-12-06T19:20:09.000Z</time></trkpt>
        <trkpt lat="27.24944" lon="102.9010992"><ele>1118.14</ele><time>2025-12-06T19:20:13.000Z</time></trkpt>
        <trkpt lat="27.2494662" lon="102.9011685"><ele>1118.42</ele><time>2025-12-06T19:20:17.000Z</time></trkpt>
        <trkpt lat="27.2494871" lon="102.9012368"><ele>1116.68</ele><time>2025-12-06T19:20:22.000Z</time></trkpt>
        <trkpt lat="27.2495056" lon="102.9012996"><ele>1115.69</ele><time>2025-12-06T19:20:25.000Z</time></trkpt>
        <trkpt lat="27.2495281" lon="102.901358"><ele>1115.06</ele><time>2025-12-06T19:20:35.000Z</time></trkpt>
        <trkpt lat="27.24957" lon="102.9013875"><ele>1114.97</ele><time>2025-12-06T19:20:41.000Z</time></trkpt>
        <trkpt lat="27.2496238" lon="102.9013926"><ele>1114.81</ele><time>2025-12-06T19:20:51.000Z</time></trkpt>
        <trkpt lat="27.2496709" lon="102.9014164"><ele>1115.44</ele><time>2025-12-06T19:20:59.000Z</time></trkpt>
        <trkpt lat="27.2497202" lon="102.9014434"><ele>1115</ele><time>2025-12-06T19:21:07.000Z</time></trkpt>
        <trkpt lat="27.2497714" lon="102.9014706"><ele>1114.64</ele><time>2025-12-06T19:21:16.000Z</time></trkpt>
        <trkpt lat="27.2498261" lon="102.9015128"><ele>1114.06</ele><time>2025-12-06T19:21:19.000Z</time></trkpt>
        <trkpt lat="27.2498743" lon="102.9015442"><ele>1113.89</ele><time>2025-12-06T19:21:23.000Z</time></trkpt>
        <trkpt lat="27.2499154" lon="102.9015984"><ele>1114.14</ele><time>2025-12-06T19:21:29.000Z</time></trkpt>
        <trkpt lat="27.2499524" lon="102.9016532"><ele>1113.89</ele><time>2025-12-06T19:21:35.000Z</time></trkpt>
        <trkpt lat="27.2499832" lon="102.9016982"><ele>1114.57</ele><time>2025-12-06T19:21:39.000Z</time></trkpt>
        <trkpt lat="27.2500185" lon="102.9017375"><ele>1114.87</ele><time>2025-12-06T19:21:45.000Z</time></trkpt>
        <trkpt lat="27.2500626" lon="102.9017779"><ele>1114.76</ele><time>2025-12-06T19:21:53.000Z</time></trkpt>
        <trkpt lat="27.2501132" lon="102.9018111"><ele>1114</ele><time>2025-12-06T19:22:03.000Z</time></trkpt>
        <trkpt lat="27.2501503" lon="102.9018479"><ele>1112.88</ele><time>2025-12-06T19:22:11.000Z</time></trkpt>
        <trkpt lat="27.2501919" lon="102.9018765"><ele>1113.34</ele><time>2025-12-06T19:22:15.000Z</time></trkpt>
        <trkpt lat="27.2502245" lon="102.9019138"><ele>1113.61</ele><time>2025-12-06T19:22:19.000Z</time></trkpt>
        <trkpt lat="27.2502592" lon="102.9019507"><ele>1113.54</ele><time>2025-12-06T19:22:23.000Z</time></trkpt>
        <trkpt lat="27.2502911" lon="102.9019875"><ele>1113.15</ele><time>2025-12-06T19:22:28.000Z</time></trkpt>
        <trkpt lat="27.2503319" lon="102.9020358"><ele>1112.92</ele><time>2025-12-06T19:22:33.000Z</time></trkpt>
        <trkpt lat="27.2503585" lon="102.9021137"><ele>1108.29</ele><time>2025-12-06T19:22:37.000Z</time></trkpt>
        <trkpt lat="27.250369" lon="102.9021928"><ele>1106.45</ele><time>2025-12-06T19:22:41.000Z</time></trkpt>
        <trkpt lat="27.2503843" lon="102.9022652"><ele>1105.5</ele><time>2025-12-06T19:22:46.000Z</time></trkpt>
        <trkpt lat="27.2503987" lon="102.9023269"><ele>1104.66</ele><time>2025-12-06T19:22:49.000Z</time></trkpt>
        <trkpt lat="27.250443" lon="102.9023686"><ele>1103.74</ele><time>2025-12-06T19:22:53.000Z</time></trkpt>
        <trkpt lat="27.2504954" lon="102.9023928"><ele>1103.25</ele><time>2025-12-06T19:22:57.000Z</time></trkpt>
        <trkpt lat="27.2505556" lon="102.9024011"><ele>1101.18</ele><time>2025-12-06T19:23:09.000Z</time></trkpt>
        <trkpt lat="27.25061" lon="102.9023933"><ele>1102.57</ele><time>2025-12-06T19:23:13.000Z</time></trkpt>
        <trkpt lat="27.2506814" lon="102.9023827"><ele>1103.47</ele><time>2025-12-06T19:23:17.000Z</time></trkpt>
        <trkpt lat="27.2507352" lon="102.9023758"><ele>1104</ele><time>2025-12-06T19:23:22.000Z</time></trkpt>
        <trkpt lat="27.2507955" lon="102.9023865"><ele>1104.71</ele><time>2025-12-06T19:23:25.000Z</time></trkpt>
        <trkpt lat="27.2508489" lon="102.9023912"><ele>1101.23</ele><time>2025-12-06T19:23:27.000Z</time></trkpt>
        <trkpt lat="27.2508682" lon="102.9023464"><ele>1100.12</ele><time>2025-12-06T19:23:33.000Z</time></trkpt>
        <trkpt lat="27.2508978" lon="102.9022968"><ele>1102.71</ele><time>2025-12-06T19:23:40.000Z</time></trkpt>
        <trkpt lat="27.2509521" lon="102.9022774"><ele>1104.13</ele><time>2025-12-06T19:23:43.000Z</time></trkpt>
        <trkpt lat="27.2509979" lon="102.9022744"><ele>1105.01</ele><time>2025-12-06T19:23:49.000Z</time></trkpt>
        <trkpt lat="27.2509979" lon="102.9022744"><ele>1105.01</ele><time>2025-12-06T19:24:28.000Z</time></trkpt>
        <trkpt lat="27.2510431" lon="102.902246"><ele>1105.33</ele><time>2025-12-06T19:24:34.000Z</time></trkpt>
        <trkpt lat="27.2510431" lon="102.902246"><ele>1105.33</ele><time>2025-12-06T19:24:57.000Z</time></trkpt>
        <trkpt lat="27.2510991" lon="102.9021895"><ele>1104.94</ele><time>2025-12-06T19:25:11.000Z</time></trkpt>
        <trkpt lat="27.2511288" lon="102.9021451"><ele>1105.33</ele><time>2025-12-06T19:25:15.000Z</time></trkpt>
        <trkpt lat="27.2511719" lon="102.902104"><ele>1105.78</ele><time>2025-12-06T19:25:23.000Z</time></trkpt>
        <trkpt lat="27.2512133" lon="102.902067"><ele>1106.15</ele><time>2025-12-06T19:25:51.000Z</time></trkpt>
        <trkpt lat="27.2512416" lon="102.9020215"><ele>1106.33</ele><time>2025-12-06T19:25:55.000Z</time></trkpt>
        <trkpt lat="27.2512652" lon="102.9019764"><ele>1106.09</ele><time>2025-12-06T19:26:01.000Z</time></trkpt>
        <trkpt lat="27.251302" lon="102.9019132"><ele>1106.14</ele><time>2025-12-06T19:26:05.000Z</time></trkpt>
        <trkpt lat="27.2513333" lon="102.901845"><ele>1106.3</ele><time>2025-12-06T19:26:11.000Z</time></trkpt>
        <trkpt lat="27.251366" lon="102.9017753"><ele>1106.42</ele><time>2025-12-06T19:26:17.000Z</time></trkpt>
        <trkpt lat="27.2513834" lon="102.9017044"><ele>1106.31</ele><time>2025-12-06T19:26:23.000Z</time></trkpt>
        <trkpt lat="27.2513934" lon="102.9016409"><ele>1106.46</ele><time>2025-12-06T19:26:27.000Z</time></trkpt>
        <trkpt lat="27.2514006" lon="102.901575"><ele>1107.58</ele><time>2025-12-06T19:26:31.000Z</time></trkpt>
        <trkpt lat="27.251401" lon="102.9014952"><ele>1109.84</ele><time>2025-12-06T19:26:35.000Z</time></trkpt>
        <trkpt lat="27.2514027" lon="102.9014333"><ele>1111</ele><time>2025-12-06T19:26:43.000Z</time></trkpt>
        <trkpt lat="27.251402" lon="102.901344"><ele>1110.57</ele><time>2025-12-06T19:26:47.000Z</time></trkpt>
        <trkpt lat="27.2514071" lon="102.9013142"><ele>1110.93</ele><time>2025-12-06T19:26:49.000Z</time></trkpt>
        <trkpt lat="27.2514291" lon="102.9012707"><ele>1110.9</ele><time>2025-12-06T19:26:55.000Z</time></trkpt>
        <trkpt lat="27.2514509" lon="102.901179"><ele>1113.97</ele><time>2025-12-06T19:26:59.000Z</time></trkpt>
        <trkpt lat="27.2514697" lon="102.9011157"><ele>1117.53</ele><time>2025-12-06T19:27:03.000Z</time></trkpt>
        <trkpt lat="27.2514888" lon="102.901063"><ele>1119.12</ele><time>2025-12-06T19:27:11.000Z</time></trkpt>
        <trkpt lat="27.2515201" lon="102.901027"><ele>1117.6</ele><time>2025-12-06T19:27:19.000Z</time></trkpt>
        <trkpt lat="27.2515665" lon="102.901056"><ele>1116.03</ele><time>2025-12-06T19:27:27.000Z</time></trkpt>
        <trkpt lat="27.2516223" lon="102.9010701"><ele>1113.63</ele><time>2025-12-06T19:27:35.000Z</time></trkpt>
        <trkpt lat="27.2516796" lon="102.9010793"><ele>1112.45</ele><time>2025-12-06T19:27:45.000Z</time></trkpt>
        <trkpt lat="27.2517364" lon="102.9010758"><ele>1111.65</ele><time>2025-12-06T19:27:53.000Z</time></trkpt>
        <trkpt lat="27.2517364" lon="102.9010758"><ele>1111.65</ele><time>2025-12-06T19:28:20.000Z</time></trkpt>
        <trkpt lat="27.25178" lon="102.9010484"><ele>1110.88</ele><time>2025-12-06T19:28:26.000Z</time></trkpt>
        <trkpt lat="27.25178" lon="102.9010484"><ele>1110.88</ele><time>2025-12-06T19:28:29.000Z</time></trkpt>
        <trkpt lat="27.25178" lon="102.9010484"><ele>1110.88</ele><time>2025-12-06T19:28:44.000Z</time></trkpt>
        <trkpt lat="27.2518253" lon="102.9010299"><ele>1111.14</ele><time>2025-12-06T19:29:52.000Z</time></trkpt>
        <trkpt lat="27.2518253" lon="102.9010299"><ele>1111.14</ele><time>2025-12-06T19:30:01.000Z</time></trkpt>
        <trkpt lat="27.2518492" lon="102.9009834"><ele>1111.08</ele><time>2025-12-06T19:30:09.000Z</time></trkpt>
        <trkpt lat="27.2518696" lon="102.9009091"><ele>1111.16</ele><time>2025-12-06T19:30:15.000Z</time></trkpt>
        <trkpt lat="27.2519014" lon="102.9008481"><ele>1111.5</ele><time>2025-12-06T19:30:19.000Z</time></trkpt>
        <trkpt lat="27.2519377" lon="102.9008072"><ele>1111.1</ele><time>2025-12-06T19:30:33.000Z</time></trkpt>
        <trkpt lat="27.2519703" lon="102.9007633"><ele>1110.29</ele><time>2025-12-06T19:30:59.000Z</time></trkpt>
        <trkpt lat="27.2519945" lon="102.9007062"><ele>1109.58</ele><time>2025-12-06T19:31:07.000Z</time></trkpt>
        <trkpt lat="27.2519973" lon="102.9006438"><ele>1109.77</ele><time>2025-12-06T19:31:21.000Z</time></trkpt>
        <trkpt lat="27.2519768" lon="102.900575"><ele>1110.15</ele><time>2025-12-06T19:31:25.000Z</time></trkpt>
        <trkpt lat="27.2519505" lon="102.9005143"><ele>1110.85</ele><time>2025-12-06T19:31:29.000Z</time></trkpt>
        <trkpt lat="27.2519573" lon="102.9004612"><ele>1111.12</ele><time>2025-12-06T19:31:41.000Z</time></trkpt>
        <trkpt lat="27.2519837" lon="102.9004115"><ele>1111.35</ele><time>2025-12-06T19:31:47.000Z</time></trkpt>
        <trkpt lat="27.2520229" lon="102.9003677"><ele>1111.07</ele><time>2025-12-06T19:31:51.000Z</time></trkpt>
        <trkpt lat="27.2520683" lon="102.9003441"><ele>1110.71</ele><time>2025-12-06T19:31:57.000Z</time></trkpt>
        <trkpt lat="27.2521159" lon="102.9003383"><ele>1110.3</ele><time>2025-12-06T19:32:03.000Z</time></trkpt>
        <trkpt lat="27.2521159" lon="102.9003383"><ele>1110.3</ele><time>2025-12-06T19:32:34.000Z</time></trkpt>
        <trkpt lat="27.2521711" lon="102.9003455"><ele>1110.12</ele><time>2025-12-06T19:32:36.000Z</time></trkpt>
        <trkpt lat="27.2521711" lon="102.9003455"><ele>1110.12</ele><time>2025-12-06T19:33:01.000Z</time></trkpt>
        <trkpt lat="27.2522281" lon="102.9003266"><ele>1109.62</ele><time>2025-12-06T19:33:41.000Z</time></trkpt>
        <trkpt lat="27.2522559" lon="102.9002781"><ele>1108.82</ele><time>2025-12-06T19:33:45.000Z</time></trkpt>
        <trkpt lat="27.2522543" lon="102.9002211"><ele>1108.33</ele><time>2025-12-06T19:33:49.000Z</time></trkpt>
        <trkpt lat="27.2522435" lon="102.9001662"><ele>1108.26</ele><time>2025-12-06T19:33:53.000Z</time></trkpt>
        <trkpt lat="27.2522293" lon="102.9001014"><ele>1107.8</ele><time>2025-12-06T19:33:59.000Z</time></trkpt>
        <trkpt lat="27.2522073" lon="102.9000466"><ele>1107.57</ele><time>2025-12-06T19:34:03.000Z</time></trkpt>
        <trkpt lat="27.2522073" lon="102.9000466"><ele>1107.57</ele><time>2025-12-06T19:34:50.000Z</time></trkpt>
        <trkpt lat="27.2522015" lon="102.8999858"><ele>1107.72</ele><time>2025-12-06T19:34:58.000Z</time></trkpt>
        <trkpt lat="27.2522015" lon="102.8999858"><ele>1107.72</ele><time>2025-12-06T19:35:17.000Z</time></trkpt>
        <trkpt lat="27.2522085" lon="102.8999323"><ele>1108.15</ele><time>2025-12-06T19:35:23.000Z</time></trkpt>
        <trkpt lat="27.2522196" lon="102.8998608"><ele>1108.17</ele><time>2025-12-06T19:35:29.000Z</time></trkpt>
        <trkpt lat="27.2522359" lon="102.8997967"><ele>1108.01</ele><time>2025-12-06T19:35:35.000Z</time></trkpt>
        <trkpt lat="27.2522534" lon="102.8997412"><ele>1108.3</ele><time>2025-12-06T19:35:40.000Z</time></trkpt>
        <trkpt lat="27.2522687" lon="102.8996746"><ele>1106.94</ele><time>2025-12-06T19:35:45.000Z</time></trkpt>
        <trkpt lat="27.2522797" lon="102.8996728"><ele>1106.49</ele><time>2025-12-06T19:35:49.000Z</time></trkpt>
        <trkpt lat="27.2522995" lon="102.8996439"><ele>1107.83</ele><time>2025-12-06T19:35:53.000Z</time></trkpt>
        <trkpt lat="27.2523292" lon="102.8996116"><ele>1108.63</ele><time>2025-12-06T19:36:01.000Z</time></trkpt>
        <trkpt lat="27.2523739" lon="102.8995664"><ele>1108.8</ele><time>2025-12-06T19:36:27.000Z</time></trkpt>
        <trkpt lat="27.2524267" lon="102.8995212"><ele>1108.96</ele><time>2025-12-06T19:36:33.000Z</time></trkpt>
        <trkpt lat="27.2524711" lon="102.8994875"><ele>1108.75</ele><time>2025-12-06T19:36:37.000Z</time></trkpt>
        <trkpt lat="27.2525073" lon="102.8994526"><ele>1108.12</ele><time>2025-12-06T19:36:43.000Z</time></trkpt>
        <trkpt lat="27.2525419" lon="102.8993991"><ele>1107.59</ele><time>2025-12-06T19:36:47.000Z</time></trkpt>
        <trkpt lat="27.2525668" lon="102.8993436"><ele>1107.36</ele><time>2025-12-06T19:36:52.000Z</time></trkpt>
        <trkpt lat="27.2525908" lon="102.8992923"><ele>1107.23</ele><time>2025-12-06T19:36:59.000Z</time></trkpt>
        <trkpt lat="27.2526081" lon="102.8992388"><ele>1107.03</ele><time>2025-12-06T19:37:03.000Z</time></trkpt>
        <trkpt lat="27.2526228" lon="102.8991863"><ele>1106.91</ele><time>2025-12-06T19:37:07.000Z</time></trkpt>
        <trkpt lat="27.2526376" lon="102.8991352"><ele>1107</ele><time>2025-12-06T19:37:11.000Z</time></trkpt>
        <trkpt lat="27.2526585" lon="102.8990646"><ele>1104.35</ele><time>2025-12-06T19:37:17.000Z</time></trkpt>
        <trkpt lat="27.2526452" lon="102.8990013"><ele>1102.99</ele><time>2025-12-06T19:37:21.000Z</time></trkpt>
        <trkpt lat="27.2526783" lon="102.8989569"><ele>1105.1</ele><time>2025-12-06T19:37:25.000Z</time></trkpt>
        <trkpt lat="27.2526835" lon="102.8989037"><ele>1104.92</ele><time>2025-12-06T19:37:29.000Z</time></trkpt>
        <trkpt lat="27.2526711" lon="102.8988337"><ele>1107.44</ele><time>2025-12-06T19:37:33.000Z</time></trkpt>
        <trkpt lat="27.2526956" lon="102.8987688"><ele>1109.08</ele><time>2025-12-06T19:37:39.000Z</time></trkpt>
        <trkpt lat="27.2527267" lon="102.8987197"><ele>1108.8</ele><time>2025-12-06T19:37:46.000Z</time></trkpt>
        <trkpt lat="27.2527456" lon="102.8986515"><ele>1107.65</ele><time>2025-12-06T19:37:55.000Z</time></trkpt>
        <trkpt lat="27.2527355" lon="102.8985849"><ele>1106.4</ele><time>2025-12-06T19:38:01.000Z</time></trkpt>
        <trkpt lat="27.2527385" lon="102.8985108"><ele>1106.58</ele><time>2025-12-06T19:38:09.000Z</time></trkpt>
        <trkpt lat="27.2527315" lon="102.8984385"><ele>1106.06</ele><time>2025-12-06T19:38:13.000Z</time></trkpt>
        <trkpt lat="27.2527061" lon="102.8983737"><ele>1105.79</ele><time>2025-12-06T19:38:17.000Z</time></trkpt>
        <trkpt lat="27.2526896" lon="102.8983315"><ele>1106.03</ele><time>2025-12-06T19:38:31.000Z</time></trkpt>
        <trkpt lat="27.2526908" lon="102.8982708"><ele>1105.89</ele><time>2025-12-06T19:39:17.000Z</time></trkpt>
        <trkpt lat="27.252691" lon="102.8982453"><ele>1106.13</ele><time>2025-12-06T19:39:19.000Z</time></trkpt>
        <trkpt lat="27.2526866" lon="102.8981892"><ele>1106.31</ele><time>2025-12-06T19:39:27.000Z</time></trkpt>
        <trkpt lat="27.252669" lon="102.8981353"><ele>1106.6</ele><time>2025-12-06T19:39:31.000Z</time></trkpt>
        <trkpt lat="27.2526369" lon="102.8980891"><ele>1106.54</ele><time>2025-12-06T19:39:37.000Z</time></trkpt>
        <trkpt lat="27.2526356" lon="102.8980413"><ele>1106.63</ele><time>2025-12-06T19:40:17.000Z</time></trkpt>
        <trkpt lat="27.2526153" lon="102.8979829"><ele>1106.62</ele><time>2025-12-06T19:40:21.000Z</time></trkpt>
        <trkpt lat="27.2525999" lon="102.8979336"><ele>1106.34</ele><time>2025-12-06T19:40:33.000Z</time></trkpt>
        <trkpt lat="27.2525801" lon="102.8978824"><ele>1106.2</ele><time>2025-12-06T19:40:45.000Z</time></trkpt>
        <trkpt lat="27.2525625" lon="102.8978599"><ele>1106.03</ele><time>2025-12-06T19:40:51.000Z</time></trkpt>
        <trkpt lat="27.2525242" lon="102.8978461"><ele>1106.05</ele><time>2025-12-06T19:41:07.000Z</time></trkpt>
        <trkpt lat="27.2524907" lon="102.8978098"><ele>1106.75</ele><time>2025-12-06T19:41:11.000Z</time></trkpt>
        <trkpt lat="27.2524569" lon="102.8977585"><ele>1106.57</ele><time>2025-12-06T19:41:15.000Z</time></trkpt>
        <trkpt lat="27.2524318" lon="102.8977095"><ele>1106.15</ele><time>2025-12-06T19:41:19.000Z</time></trkpt>
        <trkpt lat="27.2524124" lon="102.8976582"><ele>1105.53</ele><time>2025-12-06T19:41:23.000Z</time></trkpt>
        <trkpt lat="27.2523861" lon="102.8976037"><ele>1103.45</ele><time>2025-12-06T19:41:33.000Z</time></trkpt>
        <trkpt lat="27.2523586" lon="102.8975536"><ele>1102.79</ele><time>2025-12-06T19:41:37.000Z</time></trkpt>
        <trkpt lat="27.2523139" lon="102.8975186"><ele>1103.32</ele><time>2025-12-06T19:41:43.000Z</time></trkpt>
        <trkpt lat="27.2522596" lon="102.8974817"><ele>1103.79</ele><time>2025-12-06T19:41:49.000Z</time></trkpt>
        <trkpt lat="27.252225" lon="102.8974291"><ele>1103.82</ele><time>2025-12-06T19:41:53.000Z</time></trkpt>
        <trkpt lat="27.2522241" lon="102.8973564"><ele>1103.3</ele><time>2025-12-06T19:41:59.000Z</time></trkpt>
        <trkpt lat="27.2522357" lon="102.897288"><ele>1102.59</ele><time>2025-12-06T19:42:09.000Z</time></trkpt>
        <trkpt lat="27.2522523" lon="102.8972253"><ele>1102.18</ele><time>2025-12-06T19:42:15.000Z</time></trkpt>
        <trkpt lat="27.2522561" lon="102.8971647"><ele>1101.46</ele><time>2025-12-06T19:42:21.000Z</time></trkpt>
        <trkpt lat="27.2522538" lon="102.8971008"><ele>1099.63</ele><time>2025-12-06T19:42:27.000Z</time></trkpt>
        <trkpt lat="27.2522503" lon="102.8970414"><ele>1099.04</ele><time>2025-12-06T19:42:35.000Z</time></trkpt>
        <trkpt lat="27.2522496" lon="102.8969864"><ele>1098.21</ele><time>2025-12-06T19:42:39.000Z</time></trkpt>
        <trkpt lat="27.2522467" lon="102.8969299"><ele>1097.68</ele><time>2025-12-06T19:42:45.000Z</time></trkpt>
        <trkpt lat="27.2522473" lon="102.8968625"><ele>1097.42</ele><time>2025-12-06T19:42:51.000Z</time></trkpt>
        <trkpt lat="27.2522489" lon="102.8967977"><ele>1097.21</ele><time>2025-12-06T19:42:57.000Z</time></trkpt>
        <trkpt lat="27.2522631" lon="102.896736"><ele>1096.51</ele><time>2025-12-06T19:43:10.000Z</time></trkpt>
        <trkpt lat="27.2522848" lon="102.8966692"><ele>1095.58</ele><time>2025-12-06T19:43:13.000Z</time></trkpt>
        <trkpt lat="27.2523081" lon="102.8966028"><ele>1094.83</ele><time>2025-12-06T19:43:19.000Z</time></trkpt>
        <trkpt lat="27.2523353" lon="102.8965432"><ele>1094.17</ele><time>2025-12-06T19:43:29.000Z</time></trkpt>
        <trkpt lat="27.2523715" lon="102.8964943"><ele>1094.38</ele><time>2025-12-06T19:43:35.000Z</time></trkpt>
        <trkpt lat="27.2524113" lon="102.8964529"><ele>1094.75</ele><time>2025-12-06T19:43:39.000Z</time></trkpt>
        <trkpt lat="27.2524582" lon="102.8964035"><ele>1095.12</ele><time>2025-12-06T19:43:46.000Z</time></trkpt>
        <trkpt lat="27.2524939" lon="102.8963616"><ele>1097.17</ele><time>2025-12-06T19:43:49.000Z</time></trkpt>
        <trkpt lat="27.2525378" lon="102.8963161"><ele>1098.06</ele><time>2025-12-06T19:43:55.000Z</time></trkpt>
        <trkpt lat="27.25257" lon="102.8962725"><ele>1098.53</ele><time>2025-12-06T19:44:01.000Z</time></trkpt>
        <trkpt lat="27.252607" lon="102.8962356"><ele>1098.81</ele><time>2025-12-06T19:44:07.000Z</time></trkpt>
        <trkpt lat="27.2526484" lon="102.896206"><ele>1099.21</ele><time>2025-12-06T19:44:13.000Z</time></trkpt>
        <trkpt lat="27.2526973" lon="102.8961777"><ele>1099.21</ele><time>2025-12-06T19:44:19.000Z</time></trkpt>
        <trkpt lat="27.2527455" lon="102.8961541"><ele>1099.1</ele><time>2025-12-06T19:44:23.000Z</time></trkpt>
        <trkpt lat="27.2528045" lon="102.8961349"><ele>1098.66</ele><time>2025-12-06T19:44:29.000Z</time></trkpt>
        <trkpt lat="27.2528608" lon="102.896137"><ele>1098.31</ele><time>2025-12-06T19:44:33.000Z</time></trkpt>
        <trkpt lat="27.2529216" lon="102.8961275"><ele>1099.95</ele><time>2025-12-06T19:44:37.000Z</time></trkpt>
        <trkpt lat="27.2529809" lon="102.896111"><ele>1099.13</ele><time>2025-12-06T19:44:41.000Z</time></trkpt>
        <trkpt lat="27.2530301" lon="102.8960985"><ele>1098.92</ele><time>2025-12-06T19:44:47.000Z</time></trkpt>
        <trkpt lat="27.2530827" lon="102.8960947"><ele>1099.23</ele><time>2025-12-06T19:44:53.000Z</time></trkpt>
        <trkpt lat="27.2531367" lon="102.8960902"><ele>1098.4</ele><time>2025-12-06T19:44:59.000Z</time></trkpt>
        <trkpt lat="27.2531878" lon="102.8960793"><ele>1097.94</ele><time>2025-12-06T19:45:07.000Z</time></trkpt>
        <trkpt lat="27.2532363" lon="102.8960553"><ele>1100.5</ele><time>2025-12-06T19:45:11.000Z</time></trkpt>
        <trkpt lat="27.2532811" lon="102.8960276"><ele>1099.91</ele><time>2025-12-06T19:45:17.000Z</time></trkpt>
        <trkpt lat="27.253335" lon="102.8959949"><ele>1099.89</ele><time>2025-12-06T19:45:23.000Z</time></trkpt>
        <trkpt lat="27.2533886" lon="102.8959636"><ele>1100.25</ele><time>2025-12-06T19:45:29.000Z</time></trkpt>
        <trkpt lat="27.2534523" lon="102.8959463"><ele>1100.28</ele><time>2025-12-06T19:45:35.000Z</time></trkpt>
        <trkpt lat="27.2535104" lon="102.895931"><ele>1100.33</ele><time>2025-12-06T19:45:41.000Z</time></trkpt>
        <trkpt lat="27.2535508" lon="102.8958981"><ele>1100.57</ele><time>2025-12-06T19:45:47.000Z</time></trkpt>
        <trkpt lat="27.2535872" lon="102.8958663"><ele>1100.88</ele><time>2025-12-06T19:45:53.000Z</time></trkpt>
        <trkpt lat="27.2536328" lon="102.8958299"><ele>1101.2</ele><time>2025-12-06T19:45:59.000Z</time></trkpt>
        <trkpt lat="27.2536733" lon="102.8957827"><ele>1101.35</ele><time>2025-12-06T19:46:07.000Z</time></trkpt>
        <trkpt lat="27.2537181" lon="102.8957411"><ele>1101.21</ele><time>2025-12-06T19:46:17.000Z</time></trkpt>
        <trkpt lat="27.2537597" lon="102.8957087"><ele>1101.54</ele><time>2025-12-06T19:46:28.000Z</time></trkpt>
        <trkpt lat="27.2538102" lon="102.8957131"><ele>1101.57</ele><time>2025-12-06T19:46:53.000Z</time></trkpt>
        <trkpt lat="27.2538631" lon="102.8957053"><ele>1100.65</ele><time>2025-12-06T19:47:05.000Z</time></trkpt>
        <trkpt lat="27.2539181" lon="102.8957024"><ele>1099.77</ele><time>2025-12-06T19:47:13.000Z</time></trkpt>
        <trkpt lat="27.2539773" lon="102.8957007"><ele>1099.68</ele><time>2025-12-06T19:47:22.000Z</time></trkpt>
        <trkpt lat="27.2540353" lon="102.8956982"><ele>1099.82</ele><time>2025-12-06T19:47:27.000Z</time></trkpt>
        <trkpt lat="27.2540902" lon="102.8956677"><ele>1100.48</ele><time>2025-12-06T19:47:33.000Z</time></trkpt>
        <trkpt lat="27.2541377" lon="102.8956255"><ele>1100.83</ele><time>2025-12-06T19:47:40.000Z</time></trkpt>
        <trkpt lat="27.2541822" lon="102.8956063"><ele>1100.83</ele><time>2025-12-06T19:47:47.000Z</time></trkpt>
        <trkpt lat="27.2542263" lon="102.8955828"><ele>1100.48</ele><time>2025-12-06T19:47:55.000Z</time></trkpt>
        <trkpt lat="27.2542625" lon="102.895549"><ele>1100.06</ele><time>2025-12-06T19:48:03.000Z</time></trkpt>
        <trkpt lat="27.2542889" lon="102.8955059"><ele>1099.9</ele><time>2025-12-06T19:48:15.000Z</time></trkpt>
        <trkpt lat="27.2543217" lon="102.8954568"><ele>1099.94</ele><time>2025-12-06T19:48:23.000Z</time></trkpt>
        <trkpt lat="27.2543474" lon="102.8954053"><ele>1099.57</ele><time>2025-12-06T19:48:31.000Z</time></trkpt>
        <trkpt lat="27.2543847" lon="102.8953683"><ele>1098.48</ele><time>2025-12-06T19:48:41.000Z</time></trkpt>
        <trkpt lat="27.2544247" lon="102.8953302"><ele>1095.19</ele><time>2025-12-06T19:48:55.000Z</time></trkpt>
        <trkpt lat="27.2544674" lon="102.8952879"><ele>1091.34</ele><time>2025-12-06T19:49:33.000Z</time></trkpt>
        <trkpt lat="27.2545072" lon="102.8952559"><ele>1088.57</ele><time>2025-12-06T19:49:41.000Z</time></trkpt>
        <trkpt lat="27.2545483" lon="102.8952146"><ele>1086.42</ele><time>2025-12-06T19:50:09.000Z</time></trkpt>
        <trkpt lat="27.2545897" lon="102.8951876"><ele>1084.07</ele><time>2025-12-06T19:50:17.000Z</time></trkpt>
        <trkpt lat="27.2546358" lon="102.8951774"><ele>1081.73</ele><time>2025-12-06T19:50:29.000Z</time></trkpt>
        <trkpt lat="27.2546923" lon="102.8951619"><ele>1078.52</ele><time>2025-12-06T19:50:57.000Z</time></trkpt>
        <trkpt lat="27.2546901" lon="102.8951069"><ele>1074.68</ele><time>2025-12-06T19:52:05.000Z</time></trkpt>
        <trkpt lat="27.2547452" lon="102.8950977"><ele>1071.32</ele><time>2025-12-06T19:52:19.000Z</time></trkpt>
        <trkpt lat="27.2547591" lon="102.8950537"><ele>1070.69</ele><time>2025-12-06T19:52:47.000Z</time></trkpt>
        <trkpt lat="27.2547811" lon="102.8950076"><ele>1070.99</ele><time>2025-12-06T19:52:57.000Z</time></trkpt>
        <trkpt lat="27.2547867" lon="102.8949436"><ele>1071.79</ele><time>2025-12-06T19:53:09.000Z</time></trkpt>
        <trkpt lat="27.2547853" lon="102.8949153"><ele>1072.19</ele><time>2025-12-06T19:53:11.000Z</time></trkpt>
        <trkpt lat="27.2547867" lon="102.8948712"><ele>1072.39</ele><time>2025-12-06T19:53:17.000Z</time></trkpt>
        <trkpt lat="27.2548012" lon="102.894822"><ele>1072.06</ele><time>2025-12-06T19:53:23.000Z</time></trkpt>
        <trkpt lat="27.2548439" lon="102.8947933"><ele>1071.02</ele><time>2025-12-06T19:53:31.000Z</time></trkpt>
        <trkpt lat="27.2548866" lon="102.8947623"><ele>1069.24</ele><time>2025-12-06T19:53:37.000Z</time></trkpt>
        <trkpt lat="27.2549158" lon="102.8947117"><ele>1067.69</ele><time>2025-12-06T19:53:43.000Z</time></trkpt>
        <trkpt lat="27.2549227" lon="102.894619"><ele>1065.83</ele><time>2025-12-06T19:53:51.000Z</time></trkpt>
        <trkpt lat="27.2549223" lon="102.8946256"><ele>1057.77</ele><time>2025-12-06T19:53:53.000Z</time></trkpt>
        <trkpt lat="27.2549446" lon="102.8945884"><ele>1059.98</ele><time>2025-12-06T19:54:39.000Z</time></trkpt>
        <trkpt lat="27.2549826" lon="102.8945393"><ele>1059.79</ele><time>2025-12-06T19:54:45.000Z</time></trkpt>
        <trkpt lat="27.2550207" lon="102.8944944"><ele>1058.73</ele><time>2025-12-06T19:54:49.000Z</time></trkpt>
        <trkpt lat="27.2550648" lon="102.8944439"><ele>1054.44</ele><time>2025-12-06T19:54:53.000Z</time></trkpt>
        <trkpt lat="27.2550866" lon="102.8943842"><ele>1052.75</ele><time>2025-12-06T19:55:03.000Z</time></trkpt>
        <trkpt lat="27.2551303" lon="102.8943472"><ele>1052.1</ele><time>2025-12-06T19:55:09.000Z</time></trkpt>
        <trkpt lat="27.2551805" lon="102.8943189"><ele>1051.8</ele><time>2025-12-06T19:55:15.000Z</time></trkpt>
        <trkpt lat="27.2552233" lon="102.8942938"><ele>1050.9</ele><time>2025-12-06T19:55:19.000Z</time></trkpt>
        <trkpt lat="27.2552699" lon="102.8942558"><ele>1049.61</ele><time>2025-12-06T19:55:25.000Z</time></trkpt>
        <trkpt lat="27.2553263" lon="102.8942385"><ele>1048.54</ele><time>2025-12-06T19:55:31.000Z</time></trkpt>
        <trkpt lat="27.2553823" lon="102.8942267"><ele>1047.99</ele><time>2025-12-06T19:55:37.000Z</time></trkpt>
        <trkpt lat="27.2554319" lon="102.8942183"><ele>1046.47</ele><time>2025-12-06T19:55:43.000Z</time></trkpt>
        <trkpt lat="27.2554819" lon="102.8942111"><ele>1045.64</ele><time>2025-12-06T19:55:49.000Z</time></trkpt>
        <trkpt lat="27.2555286" lon="102.894196"><ele>1044.77</ele><time>2025-12-06T19:55:55.000Z</time></trkpt>
        <trkpt lat="27.2555763" lon="102.894182"><ele>1043.92</ele><time>2025-12-06T19:56:01.000Z</time></trkpt>
        <trkpt lat="27.2556262" lon="102.8941811"><ele>1042.73</ele><time>2025-12-06T19:56:07.000Z</time></trkpt>
        <trkpt lat="27.255678" lon="102.8941785"><ele>1041.93</ele><time>2025-12-06T19:56:23.000Z</time></trkpt>
        <trkpt lat="27.2557358" lon="102.8941696"><ele>1040.99</ele><time>2025-12-06T19:56:31.000Z</time></trkpt>
        <trkpt lat="27.2557951" lon="102.8941574"><ele>1041.04</ele><time>2025-12-06T19:56:37.000Z</time></trkpt>
        <trkpt lat="27.2558499" lon="102.8941553"><ele>1041.28</ele><time>2025-12-06T19:56:43.000Z</time></trkpt>
        <trkpt lat="27.2559063" lon="102.8941655"><ele>1041.44</ele><time>2025-12-06T19:56:51.000Z</time></trkpt>
        <trkpt lat="27.2559611" lon="102.8941714"><ele>1041.74</ele><time>2025-12-06T19:56:58.000Z</time></trkpt>
        <trkpt lat="27.2560262" lon="102.894175"><ele>1041.4</ele><time>2025-12-06T19:57:03.000Z</time></trkpt>
        <trkpt lat="27.256089" lon="102.8941601"><ele>1038.83</ele><time>2025-12-06T19:57:09.000Z</time></trkpt>
        <trkpt lat="27.2561391" lon="102.8941433"><ele>1036.92</ele><time>2025-12-06T19:57:15.000Z</time></trkpt>
        <trkpt lat="27.2561937" lon="102.894119"><ele>1035.9</ele><time>2025-12-06T19:57:23.000Z</time></trkpt>
        <trkpt lat="27.2562476" lon="102.8940969"><ele>1035.63</ele><time>2025-12-06T19:57:39.000Z</time></trkpt>
        <trkpt lat="27.2563007" lon="102.8940706"><ele>1035.99</ele><time>2025-12-06T19:57:49.000Z</time></trkpt>
        <trkpt lat="27.2563436" lon="102.8940424"><ele>1036.67</ele><time>2025-12-06T19:58:01.000Z</time></trkpt>
        <trkpt lat="27.2563767" lon="102.8940015"><ele>1036.85</ele><time>2025-12-06T19:58:13.000Z</time></trkpt>
        <trkpt lat="27.2564115" lon="102.8939683"><ele>1035.86</ele><time>2025-12-06T19:58:21.000Z</time></trkpt>
        <trkpt lat="27.2564515" lon="102.89394"><ele>1035.32</ele><time>2025-12-06T19:58:29.000Z</time></trkpt>
        <trkpt lat="27.2564918" lon="102.8939054"><ele>1034.89</ele><time>2025-12-06T19:58:47.000Z</time></trkpt>
        <trkpt lat="27.256535" lon="102.8938668"><ele>1033.87</ele><time>2025-12-06T19:59:15.000Z</time></trkpt>
        <trkpt lat="27.2565662" lon="102.8938254"><ele>1032.54</ele><time>2025-12-06T19:59:25.000Z</time></trkpt>
        <trkpt lat="27.2565922" lon="102.8937805"><ele>1031.01</ele><time>2025-12-06T19:59:43.000Z</time></trkpt>
        <trkpt lat="27.2566021" lon="102.8937236"><ele>1029.36</ele><time>2025-12-06T19:59:59.000Z</time></trkpt>
        <trkpt lat="27.2566169" lon="102.8936734"><ele>1027.08</ele><time>2025-12-06T20:00:15.000Z</time></trkpt>
        <trkpt lat="27.2566124" lon="102.8936162"><ele>1025.89</ele><time>2025-12-06T20:00:43.000Z</time></trkpt>
        <trkpt lat="27.2566089" lon="102.8935623"><ele>1024.8</ele><time>2025-12-06T20:01:05.000Z</time></trkpt>
        <trkpt lat="27.2565848" lon="102.8935103"><ele>1023.75</ele><time>2025-12-06T20:01:27.000Z</time></trkpt>
        <trkpt lat="27.25655" lon="102.8934702"><ele>1022.7</ele><time>2025-12-06T20:01:31.000Z</time></trkpt>
        <trkpt lat="27.2565049" lon="102.8934373"><ele>1022.39</ele><time>2025-12-06T20:01:39.000Z</time></trkpt>
        <trkpt lat="27.2564571" lon="102.8934211"><ele>1022.68</ele><time>2025-12-06T20:01:45.000Z</time></trkpt>
        <trkpt lat="27.2564045" lon="102.8933972"><ele>1022.22</ele><time>2025-12-06T20:01:53.000Z</time></trkpt>
        <trkpt lat="27.2563749" lon="102.8933404"><ele>1021.73</ele><time>2025-12-06T20:02:01.000Z</time></trkpt>
        <trkpt lat="27.2563332" lon="102.8932934"><ele>1020.78</ele><time>2025-12-06T20:02:07.000Z</time></trkpt>
        <trkpt lat="27.2562893" lon="102.8932798"><ele>1020.59</ele><time>2025-12-06T20:02:13.000Z</time></trkpt>
        <trkpt lat="27.2562331" lon="102.8932561"><ele>1020.41</ele><time>2025-12-06T20:02:33.000Z</time></trkpt>
        <trkpt lat="27.2561703" lon="102.8932403"><ele>1020.26</ele><time>2025-12-06T20:02:39.000Z</time></trkpt>
        <trkpt lat="27.256114" lon="102.8932438"><ele>1020.17</ele><time>2025-12-06T20:02:45.000Z</time></trkpt>
        <trkpt lat="27.2560664" lon="102.8932384"><ele>1020.2</ele><time>2025-12-06T20:02:57.000Z</time></trkpt>
        <trkpt lat="27.2560664" lon="102.8932384"><ele>1020.2</ele><time>2025-12-06T20:04:50.000Z</time></trkpt>
        <trkpt lat="27.2560664" lon="102.8932384"><ele>1020.2</ele><time>2025-12-06T20:04:54.000Z</time></trkpt>
        <trkpt lat="27.2560664" lon="102.8932384"><ele>1020.2</ele><time>2025-12-06T20:05:13.000Z</time></trkpt>
      </trkseg>
      <trkseg>
        <trkpt lat="27.256018" lon="102.8933648"><ele>1020.48</ele><time>2025-12-06T20:27:21.000Z</time></trkpt>
        <trkpt lat="27.256018" lon="102.8933648"><ele>1020.48</ele><time>2025-12-06T20:27:22.000Z</time></trkpt>
        <trkpt lat="27.2560696" lon="102.8932903"><ele>1017.78</ele><time>2025-12-06T20:27:26.000Z</time></trkpt>
        <trkpt lat="27.2560766" lon="102.8932322"><ele>1014.26</ele><time>2025-12-06T20:27:28.000Z</time></trkpt>
        <trkpt lat="27.2560723" lon="102.8931781"><ele>1013.53</ele><time>2025-12-06T20:28:36.000Z</time></trkpt>
        <trkpt lat="27.2560768" lon="102.8931147"><ele>1013.52</ele><time>2025-12-06T20:28:53.000Z</time></trkpt>
        <trkpt lat="27.2560982" lon="102.8930542"><ele>1013.09</ele><time>2025-12-06T20:29:19.000Z</time></trkpt>
        <trkpt lat="27.256134" lon="102.8930129"><ele>1012.6</ele><time>2025-12-06T20:29:25.000Z</time></trkpt>
        <trkpt lat="27.256134" lon="102.8930129"><ele>1012.6</ele><time>2025-12-06T20:29:52.000Z</time></trkpt>
        <trkpt lat="27.256134" lon="102.8930129"><ele>1012.6</ele><time>2025-12-06T20:29:56.000Z</time></trkpt>
        <trkpt lat="27.256134" lon="102.8930129"><ele>1012.6</ele><time>2025-12-06T20:30:36.000Z</time></trkpt>
        <trkpt lat="27.256134" lon="102.8930129"><ele>1012.6</ele><time>2025-12-06T20:30:46.000Z</time></trkpt>
        <trkpt lat="27.256134" lon="102.8930129"><ele>1012.6</ele><time>2025-12-06T20:31:44.000Z</time></trkpt>
        <trkpt lat="27.2561615" lon="102.8929684"><ele>1012.56</ele><time>2025-12-06T20:32:02.000Z</time></trkpt>
        <trkpt lat="27.2561615" lon="102.8929684"><ele>1012.56</ele><time>2025-12-06T20:32:09.000Z</time></trkpt>
        <trkpt lat="27.2562097" lon="102.8929496"><ele>1015.56</ele><time>2025-12-06T20:32:25.000Z</time></trkpt>
        <trkpt lat="27.2562625" lon="102.892918"><ele>1017.14</ele><time>2025-12-06T20:32:31.000Z</time></trkpt>
        <trkpt lat="27.2563062" lon="102.8928836"><ele>1017.65</ele><time>2025-12-06T20:32:35.000Z</time></trkpt>
        <trkpt lat="27.2563535" lon="102.8928491"><ele>1019.4</ele><time>2025-12-06T20:32:41.000Z</time></trkpt>
        <trkpt lat="27.2564001" lon="102.8928236"><ele>1019.23</ele><time>2025-12-06T20:32:47.000Z</time></trkpt>
        <trkpt lat="27.2564444" lon="102.8927995"><ele>1018.94</ele><time>2025-12-06T20:32:53.000Z</time></trkpt>
        <trkpt lat="27.2564991" lon="102.8927703"><ele>1018.86</ele><time>2025-12-06T20:33:03.000Z</time></trkpt>
        <trkpt lat="27.2565518" lon="102.8927567"><ele>1018.45</ele><time>2025-12-06T20:33:09.000Z</time></trkpt>
        <trkpt lat="27.2566053" lon="102.8927408"><ele>1017.97</ele><time>2025-12-06T20:33:17.000Z</time></trkpt>
        <trkpt lat="27.2566559" lon="102.8927333"><ele>1017.19</ele><time>2025-12-06T20:33:23.000Z</time></trkpt>
        <trkpt lat="27.2567041" lon="102.8927269"><ele>1016.31</ele><time>2025-12-06T20:33:29.000Z</time></trkpt>
        <trkpt lat="27.2567506" lon="102.8927323"><ele>1015.31</ele><time>2025-12-06T20:33:35.000Z</time></trkpt>
        <trkpt lat="27.2567844" lon="102.8927759"><ele>1014.57</ele><time>2025-12-06T20:33:43.000Z</time></trkpt>
        <trkpt lat="27.2567955" lon="102.8928443"><ele>1013.89</ele><time>2025-12-06T20:33:49.000Z</time></trkpt>
        <trkpt lat="27.2568237" lon="102.8929055"><ele>1013.12</ele><time>2025-12-06T20:33:55.000Z</time></trkpt>
        <trkpt lat="27.2568665" lon="102.8929382"><ele>1012.54</ele><time>2025-12-06T20:33:59.000Z</time></trkpt>
        <trkpt lat="27.2569142" lon="102.8929575"><ele>1011.96</ele><time>2025-12-06T20:34:03.000Z</time></trkpt>
        <trkpt lat="27.2569608" lon="102.8929715"><ele>1011.54</ele><time>2025-12-06T20:34:07.000Z</time></trkpt>
        <trkpt lat="27.2570222" lon="102.8929722"><ele>1011.12</ele><time>2025-12-06T20:34:13.000Z</time></trkpt>
        <trkpt lat="27.2570875" lon="102.8929716"><ele>1010.87</ele><time>2025-12-06T20:34:19.000Z</time></trkpt>
        <trkpt lat="27.2571399" lon="102.8929676"><ele>1010.57</ele><time>2025-12-06T20:34:23.000Z</time></trkpt>
        <trkpt lat="27.2571993" lon="102.8929681"><ele>1010.34</ele><time>2025-12-06T20:34:29.000Z</time></trkpt>
        <trkpt lat="27.2572583" lon="102.892969"><ele>1010.1</ele><time>2025-12-06T20:34:35.000Z</time></trkpt>
        <trkpt lat="27.2573127" lon="102.8929878"><ele>1009.87</ele><time>2025-12-06T20:34:39.000Z</time></trkpt>
        <trkpt lat="27.2573592" lon="102.892959"><ele>1008.11</ele><time>2025-12-06T20:34:43.000Z</time></trkpt>
        <trkpt lat="27.2574213" lon="102.8929354"><ele>1007.67</ele><time>2025-12-06T20:34:49.000Z</time></trkpt>
        <trkpt lat="27.2574774" lon="102.8929036"><ele>1007.63</ele><time>2025-12-06T20:34:55.000Z</time></trkpt>
        <trkpt lat="27.2575434" lon="102.8929031"><ele>1007.2</ele><time>2025-12-06T20:35:01.000Z</time></trkpt>
        <trkpt lat="27.2575794" lon="102.8928567"><ele>1005.86</ele><time>2025-12-06T20:35:05.000Z</time></trkpt>
        <trkpt lat="27.2575794" lon="102.8928567"><ele>1005.86</ele><time>2025-12-06T20:35:40.000Z</time></trkpt>
        <trkpt lat="27.2576154" lon="102.8928596"><ele>1007.82</ele><time>2025-12-06T20:35:58.000Z</time></trkpt>
        <trkpt lat="27.2576154" lon="102.8928596"><ele>1007.82</ele><time>2025-12-06T20:36:09.000Z</time></trkpt>
        <trkpt lat="27.2576606" lon="102.8928505"><ele>1008.94</ele><time>2025-12-06T20:37:03.000Z</time></trkpt>
        <trkpt lat="27.257709" lon="102.892841"><ele>1011.16</ele><time>2025-12-06T20:37:07.000Z</time></trkpt>
        <trkpt lat="27.2577549" lon="102.8928381"><ele>1012.54</ele><time>2025-12-06T20:37:11.000Z</time></trkpt>
        <trkpt lat="27.2578064" lon="102.8928268"><ele>1013.54</ele><time>2025-12-06T20:37:17.000Z</time></trkpt>
        <trkpt lat="27.2578597" lon="102.8928179"><ele>1013.79</ele><time>2025-12-06T20:37:25.000Z</time></trkpt>
        <trkpt lat="27.25792" lon="102.8928113"><ele>1013.74</ele><time>2025-12-06T20:37:31.000Z</time></trkpt>
        <trkpt lat="27.257986" lon="102.8928067"><ele>1014.61</ele><time>2025-12-06T20:37:37.000Z</time></trkpt>
        <trkpt lat="27.2580414" lon="102.8928055"><ele>1014.93</ele><time>2025-12-06T20:37:43.000Z</time></trkpt>
        <trkpt lat="27.2580987" lon="102.8927818"><ele>1013.47</ele><time>2025-12-06T20:37:49.000Z</time></trkpt>
        <trkpt lat="27.258148" lon="102.8927765"><ele>1012.9</ele><time>2025-12-06T20:37:53.000Z</time></trkpt>
        <trkpt lat="27.2582042" lon="102.8927746"><ele>1013.95</ele><time>2025-12-06T20:37:57.000Z</time></trkpt>
        <trkpt lat="27.2582653" lon="102.8927776"><ele>1014.79</ele><time>2025-12-06T20:38:04.000Z</time></trkpt>
        <trkpt lat="27.2583332" lon="102.8927784"><ele>1015.68</ele><time>2025-12-06T20:38:09.000Z</time></trkpt>
        <trkpt lat="27.258389" lon="102.8927699"><ele>1014.71</ele><time>2025-12-06T20:38:13.000Z</time></trkpt>
        <trkpt lat="27.2584371" lon="102.8927609"><ele>1014.1</ele><time>2025-12-06T20:38:17.000Z</time></trkpt>
        <trkpt lat="27.25849" lon="102.8927506"><ele>1013.47</ele><time>2025-12-06T20:38:23.000Z</time></trkpt>
        <trkpt lat="27.2585371" lon="102.8927487"><ele>1013.02</ele><time>2025-12-06T20:38:27.000Z</time></trkpt>
        <trkpt lat="27.2585897" lon="102.8927549"><ele>1012.9</ele><time>2025-12-06T20:38:31.000Z</time></trkpt>
        <trkpt lat="27.2586535" lon="102.8927597"><ele>1012.74</ele><time>2025-12-06T20:38:37.000Z</time></trkpt>
        <trkpt lat="27.2587133" lon="102.8927533"><ele>1012.84</ele><time>2025-12-06T20:38:41.000Z</time></trkpt>
        <trkpt lat="27.258765" lon="102.8927494"><ele>1013.07</ele><time>2025-12-06T20:38:45.000Z</time></trkpt>
        <trkpt lat="27.2588163" lon="102.8927549"><ele>1013.24</ele><time>2025-12-06T20:38:51.000Z</time></trkpt>
        <trkpt lat="27.2588675" lon="102.892759"><ele>1013.37</ele><time>2025-12-06T20:38:55.000Z</time></trkpt>
        <trkpt lat="27.2589274" lon="102.8927569"><ele>1013.51</ele><time>2025-12-06T20:39:01.000Z</time></trkpt>
        <trkpt lat="27.2589766" lon="102.8927408"><ele>1013.63</ele><time>2025-12-06T20:39:05.000Z</time></trkpt>
        <trkpt lat="27.259026" lon="102.8927219"><ele>1013.86</ele><time>2025-12-06T20:39:09.000Z</time></trkpt>
        <trkpt lat="27.2590706" lon="102.8927015"><ele>1013.97</ele><time>2025-12-06T20:39:13.000Z</time></trkpt>
        <trkpt lat="27.259124" lon="102.8926883"><ele>1014.03</ele><time>2025-12-06T20:39:19.000Z</time></trkpt>
        <trkpt lat="27.2591823" lon="102.8926481"><ele>1013.91</ele><time>2025-12-06T20:39:25.000Z</time></trkpt>
        <trkpt lat="27.2592291" lon="102.8926005"><ele>1013.96</ele><time>2025-12-06T20:39:29.000Z</time></trkpt>
        <trkpt lat="27.259284" lon="102.8925687"><ele>1013.77</ele><time>2025-12-06T20:39:35.000Z</time></trkpt>
        <trkpt lat="27.2593404" lon="102.8925533"><ele>1013.35</ele><time>2025-12-06T20:39:41.000Z</time></trkpt>
        <trkpt lat="27.2594064" lon="102.8925307"><ele>1011.06</ele><time>2025-12-06T20:39:47.000Z</time></trkpt>
        <trkpt lat="27.259456" lon="102.8925111"><ele>1009.21</ele><time>2025-12-06T20:39:52.000Z</time></trkpt>
        <trkpt lat="27.2595132" lon="102.892493"><ele>1007.76</ele><time>2025-12-06T20:39:57.000Z</time></trkpt>
        <trkpt lat="27.2595726" lon="102.8924814"><ele>1006.76</ele><time>2025-12-06T20:40:03.000Z</time></trkpt>
        <trkpt lat="27.2596439" lon="102.8924576"><ele>1005.89</ele><time>2025-12-06T20:40:10.000Z</time></trkpt>
        <trkpt lat="27.2596843" lon="102.8924177"><ele>1004.75</ele><time>2025-12-06T20:40:13.000Z</time></trkpt>
        <trkpt lat="27.2597359" lon="102.8923556"><ele>1003.83</ele><time>2025-12-06T20:40:19.000Z</time></trkpt>
        <trkpt lat="27.2597643" lon="102.8922875"><ele>1001.62</ele><time>2025-12-06T20:40:23.000Z</time></trkpt>
        <trkpt lat="27.2597765" lon="102.8922286"><ele>1000.39</ele><time>2025-12-06T20:40:27.000Z</time></trkpt>
        <trkpt lat="27.2597666" lon="102.8921749"><ele>1003.98</ele><time>2025-12-06T20:40:31.000Z</time></trkpt>
        <trkpt lat="27.2597823" lon="102.8921202"><ele>1005.03</ele><time>2025-12-06T20:40:35.000Z</time></trkpt>
        <trkpt lat="27.259802" lon="102.8920567"><ele>1002.76</ele><time>2025-12-06T20:40:39.000Z</time></trkpt>
        <trkpt lat="27.2598301" lon="102.892005"><ele>1001.2</ele><time>2025-12-06T20:40:43.000Z</time></trkpt>
        <trkpt lat="27.2598772" lon="102.8919658"><ele>1001.03</ele><time>2025-12-06T20:40:49.000Z</time></trkpt>
        <trkpt lat="27.2599303" lon="102.891926"><ele>1001.42</ele><time>2025-12-06T20:40:55.000Z</time></trkpt>
        <trkpt lat="27.2599856" lon="102.891897"><ele>1001.77</ele><time>2025-12-06T20:41:01.000Z</time></trkpt>
        <trkpt lat="27.2600447" lon="102.8918822"><ele>1002.51</ele><time>2025-12-06T20:41:07.000Z</time></trkpt>
        <trkpt lat="27.2601054" lon="102.8918814"><ele>1003.29</ele><time>2025-12-06T20:41:11.000Z</time></trkpt>
        <trkpt lat="27.2601637" lon="102.89188"><ele>1003.75</ele><time>2025-12-06T20:41:15.000Z</time></trkpt>
        <trkpt lat="27.2602191" lon="102.8918675"><ele>1003.9</ele><time>2025-12-06T20:41:19.000Z</time></trkpt>
        <trkpt lat="27.2602734" lon="102.8918402"><ele>1003.74</ele><time>2025-12-06T20:41:25.000Z</time></trkpt>
        <trkpt lat="27.2603221" lon="102.8918019"><ele>1003.64</ele><time>2025-12-06T20:41:31.000Z</time></trkpt>
        <trkpt lat="27.2603663" lon="102.8917605"><ele>1003.64</ele><time>2025-12-06T20:41:37.000Z</time></trkpt>
        <trkpt lat="27.2604244" lon="102.8917324"><ele>1003.81</ele><time>2025-12-06T20:41:43.000Z</time></trkpt>
        <trkpt lat="27.2604905" lon="102.8917208"><ele>1004.06</ele><time>2025-12-06T20:41:47.000Z</time></trkpt>
        <trkpt lat="27.2605521" lon="102.8916986"><ele>1004.16</ele><time>2025-12-06T20:41:51.000Z</time></trkpt>
        <trkpt lat="27.2606152" lon="102.891671"><ele>1003.44</ele><time>2025-12-06T20:41:57.000Z</time></trkpt>
        <trkpt lat="27.2606783" lon="102.891635"><ele>1001.19</ele><time>2025-12-06T20:42:01.000Z</time></trkpt>
        <trkpt lat="27.260735" lon="102.8915999"><ele>999.88</ele><time>2025-12-06T20:42:07.000Z</time></trkpt>
        <trkpt lat="27.2607806" lon="102.8915522"><ele>998.54</ele><time>2025-12-06T20:42:13.000Z</time></trkpt>
        <trkpt lat="27.2608295" lon="102.8915085"><ele>997.81</ele><time>2025-12-06T20:42:19.000Z</time></trkpt>
        <trkpt lat="27.2608777" lon="102.8914658"><ele>997.02</ele><time>2025-12-06T20:42:25.000Z</time></trkpt>
        <trkpt lat="27.2609187" lon="102.891417"><ele>997.14</ele><time>2025-12-06T20:42:31.000Z</time></trkpt>
        <trkpt lat="27.2609187" lon="102.891417"><ele>997.14</ele><time>2025-12-06T20:43:38.000Z</time></trkpt>
        <trkpt lat="27.2609187" lon="102.891417"><ele>997.14</ele><time>2025-12-06T20:43:48.000Z</time></trkpt>
        <trkpt lat="27.2609187" lon="102.891417"><ele>997.14</ele><time>2025-12-06T20:44:08.000Z</time></trkpt>
        <trkpt lat="27.2609371" lon="102.8913699"><ele>997.33</ele><time>2025-12-06T20:44:26.000Z</time></trkpt>
        <trkpt lat="27.2609371" lon="102.8913699"><ele>997.33</ele><time>2025-12-06T20:44:41.000Z</time></trkpt>
        <trkpt lat="27.260981" lon="102.891325"><ele>996.2</ele><time>2025-12-06T20:44:49.000Z</time></trkpt>
        <trkpt lat="27.261025" lon="102.8912805"><ele>995.32</ele><time>2025-12-06T20:44:55.000Z</time></trkpt>
        <trkpt lat="27.2610597" lon="102.8912337"><ele>995.29</ele><time>2025-12-06T20:45:01.000Z</time></trkpt>
        <trkpt lat="27.2610909" lon="102.8911936"><ele>995.47</ele><time>2025-12-06T20:45:07.000Z</time></trkpt>
        <trkpt lat="27.2611225" lon="102.8911441"><ele>992.9</ele><time>2025-12-06T20:45:13.000Z</time></trkpt>
        <trkpt lat="27.2611621" lon="102.8910958"><ele>991.43</ele><time>2025-12-06T20:45:19.000Z</time></trkpt>
        <trkpt lat="27.2612099" lon="102.8910543"><ele>990.44</ele><time>2025-12-06T20:45:25.000Z</time></trkpt>
        <trkpt lat="27.2612565" lon="102.8910125"><ele>989.81</ele><time>2025-12-06T20:45:31.000Z</time></trkpt>
        <trkpt lat="27.2612981" lon="102.8909688"><ele>989.52</ele><time>2025-12-06T20:45:37.000Z</time></trkpt>
        <trkpt lat="27.2613459" lon="102.8909266"><ele>989.31</ele><time>2025-12-06T20:45:43.000Z</time></trkpt>
        <trkpt lat="27.2614024" lon="102.890883"><ele>988.78</ele><time>2025-12-06T20:45:49.000Z</time></trkpt>
        <trkpt lat="27.2614433" lon="102.8908464"><ele>988.23</ele><time>2025-12-06T20:45:53.000Z</time></trkpt>
        <trkpt lat="27.2614892" lon="102.8908063"><ele>987.75</ele><time>2025-12-06T20:45:59.000Z</time></trkpt>
        <trkpt lat="27.261537" lon="102.8907799"><ele>987.24</ele><time>2025-12-06T20:46:03.000Z</time></trkpt>
        <trkpt lat="27.2615807" lon="102.8907533"><ele>986.97</ele><time>2025-12-06T20:46:07.000Z</time></trkpt>
        <trkpt lat="27.2616352" lon="102.8907277"><ele>986.9</ele><time>2025-12-06T20:46:13.000Z</time></trkpt>
        <trkpt lat="27.261683" lon="102.8907093"><ele>986.76</ele><time>2025-12-06T20:46:17.000Z</time></trkpt>
        <trkpt lat="27.2617264" lon="102.8906918"><ele>986.52</ele><time>2025-12-06T20:46:21.000Z</time></trkpt>
        <trkpt lat="27.2617749" lon="102.890665"><ele>986.2</ele><time>2025-12-06T20:46:28.000Z</time></trkpt>
        <trkpt lat="27.2618345" lon="102.8906403"><ele>985.98</ele><time>2025-12-06T20:46:33.000Z</time></trkpt>
        <trkpt lat="27.2618859" lon="102.8906244"><ele>985.49</ele><time>2025-12-06T20:46:37.000Z</time></trkpt>
        <trkpt lat="27.2619387" lon="102.8905996"><ele>985.11</ele><time>2025-12-06T20:46:43.000Z</time></trkpt>
        <trkpt lat="27.2619974" lon="102.8905836"><ele>985.14</ele><time>2025-12-06T20:46:49.000Z</time></trkpt>
        <trkpt lat="27.2620496" lon="102.8905707"><ele>984.79</ele><time>2025-12-06T20:46:55.000Z</time></trkpt>
        <trkpt lat="27.2621043" lon="102.8905476"><ele>984.4</ele><time>2025-12-06T20:46:59.000Z</time></trkpt>
        <trkpt lat="27.2621475" lon="102.8905195"><ele>984</ele><time>2025-12-06T20:47:03.000Z</time></trkpt>
        <trkpt lat="27.2622004" lon="102.8904846"><ele>983.49</ele><time>2025-12-06T20:47:09.000Z</time></trkpt>
        <trkpt lat="27.2622587" lon="102.890453"><ele>982.7</ele><time>2025-12-06T20:47:15.000Z</time></trkpt>
        <trkpt lat="27.2623075" lon="102.8904388"><ele>981.94</ele><time>2025-12-06T20:47:19.000Z</time></trkpt>
        <trkpt lat="27.2623555" lon="102.8904244"><ele>981.56</ele><time>2025-12-06T20:47:23.000Z</time></trkpt>
        <trkpt lat="27.2624064" lon="102.8904118"><ele>980.38</ele><time>2025-12-06T20:47:29.000Z</time></trkpt>
        <trkpt lat="27.2624675" lon="102.8904069"><ele>979.14</ele><time>2025-12-06T20:47:35.000Z</time></trkpt>
        <trkpt lat="27.2625315" lon="102.8904073"><ele>978.21</ele><time>2025-12-06T20:47:41.000Z</time></trkpt>
        <trkpt lat="27.2625844" lon="102.8903972"><ele>977.17</ele><time>2025-12-06T20:47:45.000Z</time></trkpt>
        <trkpt lat="27.2626359" lon="102.8903712"><ele>976.3</ele><time>2025-12-06T20:47:51.000Z</time></trkpt>
        <trkpt lat="27.262676" lon="102.890339"><ele>975.26</ele><time>2025-12-06T20:47:58.000Z</time></trkpt>
        <trkpt lat="27.2627169" lon="102.8903132"><ele>974.58</ele><time>2025-12-06T20:48:13.000Z</time></trkpt>
        <trkpt lat="27.2627465" lon="102.8902632"><ele>973.82</ele><time>2025-12-06T20:48:19.000Z</time></trkpt>
        <trkpt lat="27.2627733" lon="102.890217"><ele>973.03</ele><time>2025-12-06T20:48:23.000Z</time></trkpt>
        <trkpt lat="27.2627991" lon="102.8901698"><ele>972.44</ele><time>2025-12-06T20:48:27.000Z</time></trkpt>
        <trkpt lat="27.262839" lon="102.8901126"><ele>971.76</ele><time>2025-12-06T20:48:33.000Z</time></trkpt>
        <trkpt lat="27.2628763" lon="102.8900704"><ele>971.32</ele><time>2025-12-06T20:48:37.000Z</time></trkpt>
        <trkpt lat="27.2629136" lon="102.8900304"><ele>971.05</ele><time>2025-12-06T20:48:41.000Z</time></trkpt>
        <trkpt lat="27.2629584" lon="102.8899878"><ele>970.68</ele><time>2025-12-06T20:48:49.000Z</time></trkpt>
        <trkpt lat="27.2629984" lon="102.8899493"><ele>970.11</ele><time>2025-12-06T20:48:53.000Z</time></trkpt>
        <trkpt lat="27.2630375" lon="102.8899176"><ele>969.41</ele><time>2025-12-06T20:48:57.000Z</time></trkpt>
        <trkpt lat="27.2630891" lon="102.8898794"><ele>968.63</ele><time>2025-12-06T20:49:03.000Z</time></trkpt>
        <trkpt lat="27.2631461" lon="102.8898406"><ele>967.85</ele><time>2025-12-06T20:49:10.000Z</time></trkpt>
        <trkpt lat="27.2631941" lon="102.8897909"><ele>967.3</ele><time>2025-12-06T20:49:15.000Z</time></trkpt>
        <trkpt lat="27.2632493" lon="102.8897574"><ele>966.82</ele><time>2025-12-06T20:49:21.000Z</time></trkpt>
        <trkpt lat="27.2633071" lon="102.8897357"><ele>966.43</ele><time>2025-12-06T20:49:28.000Z</time></trkpt>
        <trkpt lat="27.2633663" lon="102.8897039"><ele>965.75</ele><time>2025-12-06T20:49:33.000Z</time></trkpt>
        <trkpt lat="27.2634155" lon="102.8896758"><ele>965.12</ele><time>2025-12-06T20:49:37.000Z</time></trkpt>
        <trkpt lat="27.2634606" lon="102.889648"><ele>964.59</ele><time>2025-12-06T20:49:41.000Z</time></trkpt>
        <trkpt lat="27.263502" lon="102.8896218"><ele>964.07</ele><time>2025-12-06T20:49:46.000Z</time></trkpt>
        <trkpt lat="27.2635446" lon="102.889594"><ele>963.5</ele><time>2025-12-06T20:49:49.000Z</time></trkpt>
        <trkpt lat="27.2635879" lon="102.8895707"><ele>962.89</ele><time>2025-12-06T20:49:53.000Z</time></trkpt>
        <trkpt lat="27.2636303" lon="102.8895436"><ele>962.31</ele><time>2025-12-06T20:49:57.000Z</time></trkpt>
        <trkpt lat="27.2636709" lon="102.8895116"><ele>961.7</ele><time>2025-12-06T20:50:01.000Z</time></trkpt>
        <trkpt lat="27.2637214" lon="102.8894671"><ele>961.22</ele><time>2025-12-06T20:50:07.000Z</time></trkpt>
        <trkpt lat="27.2637656" lon="102.8894286"><ele>960.56</ele><time>2025-12-06T20:50:11.000Z</time></trkpt>
        <trkpt lat="27.2638171" lon="102.8893959"><ele>960.14</ele><time>2025-12-06T20:50:17.000Z</time></trkpt>
        <trkpt lat="27.2638729" lon="102.8893507"><ele>959.75</ele><time>2025-12-06T20:50:23.000Z</time></trkpt>
        <trkpt lat="27.2639182" lon="102.8893135"><ele>959.4</ele><time>2025-12-06T20:50:27.000Z</time></trkpt>
        <trkpt lat="27.2639679" lon="102.8892791"><ele>959.32</ele><time>2025-12-06T20:50:33.000Z</time></trkpt>
        <trkpt lat="27.2640145" lon="102.889246"><ele>958.78</ele><time>2025-12-06T20:50:37.000Z</time></trkpt>
        <trkpt lat="27.2640532" lon="102.8892144"><ele>958.21</ele><time>2025-12-06T20:50:41.000Z</time></trkpt>
        <trkpt lat="27.2641049" lon="102.8891822"><ele>957.96</ele><time>2025-12-06T20:50:47.000Z</time></trkpt>
        <trkpt lat="27.2641493" lon="102.8891579"><ele>957.5</ele><time>2025-12-06T20:50:51.000Z</time></trkpt>
        <trkpt lat="27.2642065" lon="102.8891269"><ele>956.96</ele><time>2025-12-06T20:50:58.000Z</time></trkpt>
        <trkpt lat="27.2642559" lon="102.8890965"><ele>956.25</ele><time>2025-12-06T20:51:01.000Z</time></trkpt>
        <trkpt lat="27.2643014" lon="102.8890728"><ele>955.54</ele><time>2025-12-06T20:51:05.000Z</time></trkpt>
        <trkpt lat="27.2643505" lon="102.8890481"><ele>954.69</ele><time>2025-12-06T20:51:11.000Z</time></trkpt>
        <trkpt lat="27.2644029" lon="102.8890262"><ele>953.76</ele><time>2025-12-06T20:51:17.000Z</time></trkpt>
        <trkpt lat="27.2644602" lon="102.8889983"><ele>952.79</ele><time>2025-12-06T20:51:23.000Z</time></trkpt>
        <trkpt lat="27.264511" lon="102.8889538"><ele>951.81</ele><time>2025-12-06T20:51:29.000Z</time></trkpt>
        <trkpt lat="27.264551" lon="102.8889183"><ele>951.2</ele><time>2025-12-06T20:51:34.000Z</time></trkpt>
        <trkpt lat="27.264582" lon="102.8888762"><ele>950.64</ele><time>2025-12-06T20:51:39.000Z</time></trkpt>
        <trkpt lat="27.2646082" lon="102.8888318"><ele>950.42</ele><time>2025-12-06T20:51:43.000Z</time></trkpt>
        <trkpt lat="27.2646411" lon="102.8887839"><ele>950.04</ele><time>2025-12-06T20:51:47.000Z</time></trkpt>
        <trkpt lat="27.2646759" lon="102.8887436"><ele>949.56</ele><time>2025-12-06T20:51:52.000Z</time></trkpt>
        <trkpt lat="27.2647306" lon="102.8887047"><ele>949.17</ele><time>2025-12-06T20:51:57.000Z</time></trkpt>
        <trkpt lat="27.2647784" lon="102.8886744"><ele>948.59</ele><time>2025-12-06T20:52:01.000Z</time></trkpt>
        <trkpt lat="27.2648183" lon="102.8886453"><ele>948.27</ele><time>2025-12-06T20:52:05.000Z</time></trkpt>
        <trkpt lat="27.2648622" lon="102.8886287"><ele>948.04</ele><time>2025-12-06T20:52:10.000Z</time></trkpt>
        <trkpt lat="27.2649219" lon="102.8886114"><ele>947.66</ele><time>2025-12-06T20:52:15.000Z</time></trkpt>
        <trkpt lat="27.2649707" lon="102.8885927"><ele>946.94</ele><time>2025-12-06T20:52:19.000Z</time></trkpt>
        <trkpt lat="27.2650232" lon="102.8885695"><ele>946.24</ele><time>2025-12-06T20:52:23.000Z</time></trkpt>
        <trkpt lat="27.2650689" lon="102.8885463"><ele>945.68</ele><time>2025-12-06T20:52:28.000Z</time></trkpt>
        <trkpt lat="27.2651131" lon="102.8885019"><ele>945.21</ele><time>2025-12-06T20:52:33.000Z</time></trkpt>
        <trkpt lat="27.2651258" lon="102.8884496"><ele>944.63</ele><time>2025-12-06T20:52:37.000Z</time></trkpt>
        <trkpt lat="27.2650951" lon="102.8884074"><ele>944.19</ele><time>2025-12-06T20:52:41.000Z</time></trkpt>
        <trkpt lat="27.2650505" lon="102.8883717"><ele>943.85</ele><time>2025-12-06T20:52:46.000Z</time></trkpt>
        <trkpt lat="27.2650003" lon="102.888351"><ele>944.44</ele><time>2025-12-06T20:52:47.000Z</time></trkpt>
        <trkpt lat="27.264944" lon="102.8883511"><ele>943.67</ele><time>2025-12-06T20:52:51.000Z</time></trkpt>
        <trkpt lat="27.2648908" lon="102.88835"><ele>943.04</ele><time>2025-12-06T20:52:55.000Z</time></trkpt>
        <trkpt lat="27.2648468" lon="102.8883307"><ele>942.7</ele><time>2025-12-06T20:52:59.000Z</time></trkpt>
        <trkpt lat="27.2647982" lon="102.8883228"><ele>942.42</ele><time>2025-12-06T20:53:05.000Z</time></trkpt>
        <trkpt lat="27.2647441" lon="102.8883305"><ele>943.18</ele><time>2025-12-06T20:53:09.000Z</time></trkpt>
        <trkpt lat="27.2646889" lon="102.8883491"><ele>943.81</ele><time>2025-12-06T20:53:15.000Z</time></trkpt>
        <trkpt lat="27.2646449" lon="102.8883871"><ele>944.08</ele><time>2025-12-06T20:53:19.000Z</time></trkpt>
        <trkpt lat="27.2646023" lon="102.8884154"><ele>944.11</ele><time>2025-12-06T20:53:23.000Z</time></trkpt>
        <trkpt lat="27.264558" lon="102.8883887"><ele>943.9</ele><time>2025-12-06T20:53:29.000Z</time></trkpt>
        <trkpt lat="27.264546" lon="102.8883366"><ele>943.43</ele><time>2025-12-06T20:53:33.000Z</time></trkpt>
        <trkpt lat="27.2645619" lon="102.8882817"><ele>942.42</ele><time>2025-12-06T20:53:37.000Z</time></trkpt>
        <trkpt lat="27.2646028" lon="102.8882178"><ele>941.59</ele><time>2025-12-06T20:53:43.000Z</time></trkpt>
        <trkpt lat="27.2646383" lon="102.8881665"><ele>941</ele><time>2025-12-06T20:53:47.000Z</time></trkpt>
        <trkpt lat="27.2646774" lon="102.8881109"><ele>940.61</ele><time>2025-12-06T20:53:53.000Z</time></trkpt>
        <trkpt lat="27.2647152" lon="102.8880714"><ele>940.36</ele><time>2025-12-06T20:53:58.000Z</time></trkpt>
        <trkpt lat="27.2647567" lon="102.8880434"><ele>939.93</ele><time>2025-12-06T20:54:01.000Z</time></trkpt>
        <trkpt lat="27.2648119" lon="102.8880209"><ele>939.61</ele><time>2025-12-06T20:54:07.000Z</time></trkpt>
        <trkpt lat="27.2648627" lon="102.8880029"><ele>939.19</ele><time>2025-12-06T20:54:11.000Z</time></trkpt>
        <trkpt lat="27.2649133" lon="102.887992"><ele>938.76</ele><time>2025-12-06T20:54:16.000Z</time></trkpt>
        <trkpt lat="27.2649738" lon="102.8879828"><ele>938.25</ele><time>2025-12-06T20:54:21.000Z</time></trkpt>
        <trkpt lat="27.2650388" lon="102.887989"><ele>937.85</ele><time>2025-12-06T20:54:27.000Z</time></trkpt>
        <trkpt lat="27.2650896" lon="102.8880036"><ele>937.35</ele><time>2025-12-06T20:54:31.000Z</time></trkpt>
        <trkpt lat="27.265135" lon="102.8880155"><ele>936.94</ele><time>2025-12-06T20:54:35.000Z</time></trkpt>
        <trkpt lat="27.2651885" lon="102.8880294"><ele>936.52</ele><time>2025-12-06T20:54:41.000Z</time></trkpt>
        <trkpt lat="27.2652492" lon="102.8880128"><ele>936.22</ele><time>2025-12-06T20:54:47.000Z</time></trkpt>
        <trkpt lat="27.2652688" lon="102.8879648"><ele>935.76</ele><time>2025-12-06T20:54:51.000Z</time></trkpt>
        <trkpt lat="27.2652453" lon="102.8879117"><ele>935.69</ele><time>2025-12-06T20:54:55.000Z</time></trkpt>
        <trkpt lat="27.2652181" lon="102.8878554"><ele>935.8</ele><time>2025-12-06T20:54:59.000Z</time></trkpt>
        <trkpt lat="27.2651727" lon="102.8877999"><ele>935.88</ele><time>2025-12-06T20:55:05.000Z</time></trkpt>
        <trkpt lat="27.265123" lon="102.887764"><ele>935.72</ele><time>2025-12-06T20:55:10.000Z</time></trkpt>
        <trkpt lat="27.2650736" lon="102.8877388"><ele>935.82</ele><time>2025-12-06T20:55:13.000Z</time></trkpt>
        <trkpt lat="27.2650296" lon="102.8877148"><ele>935.84</ele><time>2025-12-06T20:55:17.000Z</time></trkpt>
        <trkpt lat="27.2649746" lon="102.8876847"><ele>936.16</ele><time>2025-12-06T20:55:23.000Z</time></trkpt>
        <trkpt lat="27.2649167" lon="102.8876478"><ele>936.33</ele><time>2025-12-06T20:55:29.000Z</time></trkpt>
        <trkpt lat="27.2648584" lon="102.8876249"><ele>935.82</ele><time>2025-12-06T20:55:35.000Z</time></trkpt>
        <trkpt lat="27.2647965" lon="102.8876"><ele>935.17</ele><time>2025-12-06T20:55:41.000Z</time></trkpt>
        <trkpt lat="27.2647467" lon="102.8875802"><ele>934.51</ele><time>2025-12-06T20:55:46.000Z</time></trkpt>
        <trkpt lat="27.2646941" lon="102.8875562"><ele>934.04</ele><time>2025-12-06T20:55:51.000Z</time></trkpt>
        <trkpt lat="27.26464" lon="102.8875299"><ele>933.42</ele><time>2025-12-06T20:55:57.000Z</time></trkpt>
        <trkpt lat="27.2645759" lon="102.8875154"><ele>932.43</ele><time>2025-12-06T20:56:03.000Z</time></trkpt>
        <trkpt lat="27.264523" lon="102.8875089"><ele>930.95</ele><time>2025-12-06T20:56:07.000Z</time></trkpt>
        <trkpt lat="27.2644722" lon="102.8875095"><ele>929.98</ele><time>2025-12-06T20:56:11.000Z</time></trkpt>
        <trkpt lat="27.2644179" lon="102.8875135"><ele>929.37</ele><time>2025-12-06T20:56:21.000Z</time></trkpt>
        <trkpt lat="27.264361" lon="102.8875218"><ele>928.58</ele><time>2025-12-06T20:56:27.000Z</time></trkpt>
        <trkpt lat="27.2643048" lon="102.8875245"><ele>927.95</ele><time>2025-12-06T20:56:35.000Z</time></trkpt>
        <trkpt lat="27.2642406" lon="102.887527"><ele>927.36</ele><time>2025-12-06T20:56:41.000Z</time></trkpt>
        <trkpt lat="27.264189" lon="102.8875114"><ele>926.93</ele><time>2025-12-06T20:56:45.000Z</time></trkpt>
        <trkpt lat="27.2641341" lon="102.8875077"><ele>926.44</ele><time>2025-12-06T20:56:51.000Z</time></trkpt>
        <trkpt lat="27.2640802" lon="102.8875214"><ele>924.96</ele><time>2025-12-06T20:56:57.000Z</time></trkpt>
        <trkpt lat="27.2640232" lon="102.8875333"><ele>923.65</ele><time>2025-12-06T20:57:03.000Z</time></trkpt>
        <trkpt lat="27.2639588" lon="102.887539"><ele>922.53</ele><time>2025-12-06T20:57:09.000Z</time></trkpt>
        <trkpt lat="27.2639025" lon="102.8875398"><ele>921.54</ele><time>2025-12-06T20:57:13.000Z</time></trkpt>
        <trkpt lat="27.2638496" lon="102.8875501"><ele>920.68</ele><time>2025-12-06T20:57:17.000Z</time></trkpt>
        <trkpt lat="27.2637889" lon="102.887559"><ele>921.62</ele><time>2025-12-06T20:57:23.000Z</time></trkpt>
        <trkpt lat="27.2637281" lon="102.8875667"><ele>922.22</ele><time>2025-12-06T20:57:29.000Z</time></trkpt>
        <trkpt lat="27.2636751" lon="102.8875707"><ele>922.22</ele><time>2025-12-06T20:57:34.000Z</time></trkpt>
        <trkpt lat="27.2636267" lon="102.8875786"><ele>922.3</ele><time>2025-12-06T20:57:37.000Z</time></trkpt>
        <trkpt lat="27.2635735" lon="102.8875958"><ele>922.36</ele><time>2025-12-06T20:57:43.000Z</time></trkpt>
        <trkpt lat="27.2635094" lon="102.8876112"><ele>922.22</ele><time>2025-12-06T20:57:49.000Z</time></trkpt>
        <trkpt lat="27.2634571" lon="102.8876253"><ele>922.11</ele><time>2025-12-06T20:57:53.000Z</time></trkpt>
        <trkpt lat="27.263406" lon="102.8876324"><ele>921.97</ele><time>2025-12-06T20:57:57.000Z</time></trkpt>
        <trkpt lat="27.2633552" lon="102.8876346"><ele>921.64</ele><time>2025-12-06T20:58:01.000Z</time></trkpt>
        <trkpt lat="27.263296" lon="102.8876345"><ele>921.37</ele><time>2025-12-06T20:58:07.000Z</time></trkpt>
        <trkpt lat="27.2632322" lon="102.887633"><ele>920.91</ele><time>2025-12-06T20:58:13.000Z</time></trkpt>
        <trkpt lat="27.2631764" lon="102.8876351"><ele>920.37</ele><time>2025-12-06T20:58:17.000Z</time></trkpt>
        <trkpt lat="27.2631119" lon="102.8876445"><ele>919.79</ele><time>2025-12-06T20:58:23.000Z</time></trkpt>
        <trkpt lat="27.2630597" lon="102.8876522"><ele>919.12</ele><time>2025-12-06T20:58:28.000Z</time></trkpt>
        <trkpt lat="27.2629995" lon="102.8876562"><ele>918.66</ele><time>2025-12-06T20:58:33.000Z</time></trkpt>
        <trkpt lat="27.2629413" lon="102.8876698"><ele>918.48</ele><time>2025-12-06T20:58:39.000Z</time></trkpt>
        <trkpt lat="27.2628927" lon="102.8876784"><ele>918.42</ele><time>2025-12-06T20:58:43.000Z</time></trkpt>
        <trkpt lat="27.2628444" lon="102.8876824"><ele>918.09</ele><time>2025-12-06T20:58:47.000Z</time></trkpt>
        <trkpt lat="27.2627934" lon="102.8876823"><ele>917.69</ele><time>2025-12-06T20:58:51.000Z</time></trkpt>
        <trkpt lat="27.2627467" lon="102.8876862"><ele>917.23</ele><time>2025-12-06T20:58:55.000Z</time></trkpt>
        <trkpt lat="27.2627016" lon="102.8876948"><ele>916.83</ele><time>2025-12-06T20:58:59.000Z</time></trkpt>
        <trkpt lat="27.2626566" lon="102.8876978"><ele>916.61</ele><time>2025-12-06T20:59:03.000Z</time></trkpt>
        <trkpt lat="27.2625892" lon="102.8877021"><ele>916.57</ele><time>2025-12-06T20:59:09.000Z</time></trkpt>
        <trkpt lat="27.262534" lon="102.8877032"><ele>914.08</ele><time>2025-12-06T20:59:13.000Z</time></trkpt>
        <trkpt lat="27.2624866" lon="102.8877056"><ele>912.62</ele><time>2025-12-06T20:59:17.000Z</time></trkpt>
        <trkpt lat="27.2624338" lon="102.8877181"><ele>911.92</ele><time>2025-12-06T20:59:23.000Z</time></trkpt>
        <trkpt lat="27.2623856" lon="102.8877194"><ele>912.64</ele><time>2025-12-06T20:59:27.000Z</time></trkpt>
        <trkpt lat="27.2623347" lon="102.8877207"><ele>912.69</ele><time>2025-12-06T20:59:31.000Z</time></trkpt>
        <trkpt lat="27.2622832" lon="102.8877337"><ele>912.94</ele><time>2025-12-06T20:59:35.000Z</time></trkpt>
        <trkpt lat="27.2622312" lon="102.8877457"><ele>913.06</ele><time>2025-12-06T20:59:40.000Z</time></trkpt>
        <trkpt lat="27.2621723" lon="102.8877718"><ele>912.95</ele><time>2025-12-06T20:59:45.000Z</time></trkpt>
        <trkpt lat="27.2621227" lon="102.8877904"><ele>912.87</ele><time>2025-12-06T20:59:49.000Z</time></trkpt>
        <trkpt lat="27.2620716" lon="102.8878191"><ele>912.43</ele><time>2025-12-06T20:59:53.000Z</time></trkpt>
        <trkpt lat="27.2620275" lon="102.8878502"><ele>911.5</ele><time>2025-12-06T20:59:58.000Z</time></trkpt>
        <trkpt lat="27.2619806" lon="102.8878696"><ele>911.07</ele><time>2025-12-06T21:00:01.000Z</time></trkpt>
        <trkpt lat="27.2619407" lon="102.8879038"><ele>910.68</ele><time>2025-12-06T21:00:05.000Z</time></trkpt>
        <trkpt lat="27.2618894" lon="102.8879277"><ele>908.81</ele><time>2025-12-06T21:00:09.000Z</time></trkpt>
        <trkpt lat="27.2618364" lon="102.8879408"><ele>908.78</ele><time>2025-12-06T21:00:13.000Z</time></trkpt>
        <trkpt lat="27.2617859" lon="102.8879446"><ele>908.35</ele><time>2025-12-06T21:00:17.000Z</time></trkpt>
        <trkpt lat="27.261727" lon="102.8879308"><ele>906.73</ele><time>2025-12-06T21:00:23.000Z</time></trkpt>
        <trkpt lat="27.2616777" lon="102.8879082"><ele>906.47</ele><time>2025-12-06T21:00:27.000Z</time></trkpt>
        <trkpt lat="27.2616192" lon="102.8879009"><ele>905.02</ele><time>2025-12-06T21:00:34.000Z</time></trkpt>
        <trkpt lat="27.2615571" lon="102.8878952"><ele>903.39</ele><time>2025-12-06T21:00:39.000Z</time></trkpt>
        <trkpt lat="27.2615118" lon="102.8879213"><ele>902.89</ele><time>2025-12-06T21:00:49.000Z</time></trkpt>
        <trkpt lat="27.261464" lon="102.8879425"><ele>903.03</ele><time>2025-12-06T21:00:53.000Z</time></trkpt>
        <trkpt lat="27.2614203" lon="102.8879755"><ele>902.98</ele><time>2025-12-06T21:00:57.000Z</time></trkpt>
        <trkpt lat="27.2613792" lon="102.8880093"><ele>902.64</ele><time>2025-12-06T21:01:01.000Z</time></trkpt>
        <trkpt lat="27.2613402" lon="102.8880403"><ele>901.76</ele><time>2025-12-06T21:01:05.000Z</time></trkpt>
        <trkpt lat="27.2613015" lon="102.8880677"><ele>902.56</ele><time>2025-12-06T21:01:10.000Z</time></trkpt>
        <trkpt lat="27.2612648" lon="102.8880965"><ele>902.69</ele><time>2025-12-06T21:01:13.000Z</time></trkpt>
        <trkpt lat="27.2612162" lon="102.88813"><ele>902.41</ele><time>2025-12-06T21:01:17.000Z</time></trkpt>
        <trkpt lat="27.2611718" lon="102.8881617"><ele>902.13</ele><time>2025-12-06T21:01:21.000Z</time></trkpt>
        <trkpt lat="27.2611266" lon="102.8881918"><ele>901.95</ele><time>2025-12-06T21:01:25.000Z</time></trkpt>
        <trkpt lat="27.2610873" lon="102.8882224"><ele>901.63</ele><time>2025-12-06T21:01:29.000Z</time></trkpt>
        <trkpt lat="27.2610406" lon="102.8882587"><ele>901.52</ele><time>2025-12-06T21:01:35.000Z</time></trkpt>
        <trkpt lat="27.2609972" lon="102.8882917"><ele>901.44</ele><time>2025-12-06T21:01:39.000Z</time></trkpt>
        <trkpt lat="27.2609503" lon="102.8883197"><ele>901.2</ele><time>2025-12-06T21:01:43.000Z</time></trkpt>
        <trkpt lat="27.2609025" lon="102.8883386"><ele>901.03</ele><time>2025-12-06T21:01:47.000Z</time></trkpt>
        <trkpt lat="27.260856" lon="102.8883556"><ele>900.87</ele><time>2025-12-06T21:01:51.000Z</time></trkpt>
        <trkpt lat="27.2608019" lon="102.8883771"><ele>900.67</ele><time>2025-12-06T21:01:57.000Z</time></trkpt>
        <trkpt lat="27.2607387" lon="102.8883978"><ele>900.48</ele><time>2025-12-06T21:02:04.000Z</time></trkpt>
        <trkpt lat="27.2606836" lon="102.8884113"><ele>899.84</ele><time>2025-12-06T21:02:07.000Z</time></trkpt>
        <trkpt lat="27.2606166" lon="102.8884312"><ele>899.19</ele><time>2025-12-06T21:02:13.000Z</time></trkpt>
        <trkpt lat="27.2605575" lon="102.8884565"><ele>897.49</ele><time>2025-12-06T21:02:17.000Z</time></trkpt>
        <trkpt lat="27.2604959" lon="102.8884788"><ele>897.29</ele><time>2025-12-06T21:02:23.000Z</time></trkpt>
        <trkpt lat="27.2604381" lon="102.888508"><ele>896.57</ele><time>2025-12-06T21:02:29.000Z</time></trkpt>
        <trkpt lat="27.2603903" lon="102.8885324"><ele>895.63</ele><time>2025-12-06T21:02:33.000Z</time></trkpt>
        <trkpt lat="27.2603328" lon="102.8885544"><ele>894.86</ele><time>2025-12-06T21:02:40.000Z</time></trkpt>
        <trkpt lat="27.2602855" lon="102.8885885"><ele>892.44</ele><time>2025-12-06T21:02:45.000Z</time></trkpt>
        <trkpt lat="27.2602314" lon="102.8885983"><ele>891.68</ele><time>2025-12-06T21:02:51.000Z</time></trkpt>
        <trkpt lat="27.2601843" lon="102.8885864"><ele>890.17</ele><time>2025-12-06T21:02:55.000Z</time></trkpt>
        <trkpt lat="27.2601396" lon="102.8885689"><ele>889.05</ele><time>2025-12-06T21:02:59.000Z</time></trkpt>
        <trkpt lat="27.2600959" lon="102.8885442"><ele>888.24</ele><time>2025-12-06T21:03:03.000Z</time></trkpt>
        <trkpt lat="27.2600477" lon="102.8885314"><ele>887.55</ele><time>2025-12-06T21:03:07.000Z</time></trkpt>
        <trkpt lat="27.2599901" lon="102.8885385"><ele>887.05</ele><time>2025-12-06T21:03:13.000Z</time></trkpt>
        <trkpt lat="27.2599371" lon="102.8885674"><ele>886.65</ele><time>2025-12-06T21:03:19.000Z</time></trkpt>
        <trkpt lat="27.2598854" lon="102.8886134"><ele>886.06</ele><time>2025-12-06T21:03:25.000Z</time></trkpt>
        <trkpt lat="27.2598419" lon="102.8886551"><ele>885.17</ele><time>2025-12-06T21:03:29.000Z</time></trkpt>
        <trkpt lat="27.2597936" lon="102.8886847"><ele>884.22</ele><time>2025-12-06T21:03:35.000Z</time></trkpt>
        <trkpt lat="27.2597389" lon="102.8887095"><ele>883.21</ele><time>2025-12-06T21:03:41.000Z</time></trkpt>
        <trkpt lat="27.2596819" lon="102.8887259"><ele>882.4</ele><time>2025-12-06T21:03:47.000Z</time></trkpt>
        <trkpt lat="27.259625" lon="102.8887374"><ele>881.71</ele><time>2025-12-06T21:03:53.000Z</time></trkpt>
        <trkpt lat="27.2595623" lon="102.8887431"><ele>881.01</ele><time>2025-12-06T21:03:59.000Z</time></trkpt>
        <trkpt lat="27.259499" lon="102.8887451"><ele>880</ele><time>2025-12-06T21:04:05.000Z</time></trkpt>
        <trkpt lat="27.2594359" lon="102.8887377"><ele>878.83</ele><time>2025-12-06T21:04:11.000Z</time></trkpt>
        <trkpt lat="27.2593774" lon="102.8887201"><ele>877.69</ele><time>2025-12-06T21:04:17.000Z</time></trkpt>
        <trkpt lat="27.2593286" lon="102.8886991"><ele>876.83</ele><time>2025-12-06T21:04:23.000Z</time></trkpt>
        <trkpt lat="27.2592701" lon="102.8886871"><ele>875.67</ele><time>2025-12-06T21:04:29.000Z</time></trkpt>
        <trkpt lat="27.2592113" lon="102.8886873"><ele>874.54</ele><time>2025-12-06T21:04:35.000Z</time></trkpt>
        <trkpt lat="27.259157" lon="102.8887012"><ele>873.76</ele><time>2025-12-06T21:04:41.000Z</time></trkpt>
        <trkpt lat="27.2591064" lon="102.8887292"><ele>873.12</ele><time>2025-12-06T21:04:47.000Z</time></trkpt>
        <trkpt lat="27.2590554" lon="102.8887689"><ele>872.48</ele><time>2025-12-06T21:04:53.000Z</time></trkpt>
        <trkpt lat="27.2589956" lon="102.8887996"><ele>871.88</ele><time>2025-12-06T21:04:59.000Z</time></trkpt>
        <trkpt lat="27.2589494" lon="102.8888264"><ele>871.23</ele><time>2025-12-06T21:05:03.000Z</time></trkpt>
        <trkpt lat="27.2588896" lon="102.8888461"><ele>870.61</ele><time>2025-12-06T21:05:09.000Z</time></trkpt>
        <trkpt lat="27.2588456" lon="102.8888722"><ele>868.96</ele><time>2025-12-06T21:05:13.000Z</time></trkpt>
        <trkpt lat="27.2588161" lon="102.8889272"><ele>867.61</ele><time>2025-12-06T21:05:19.000Z</time></trkpt>
        <trkpt lat="27.2587959" lon="102.8889849"><ele>865.69</ele><time>2025-12-06T21:05:23.000Z</time></trkpt>
        <trkpt lat="27.258779" lon="102.8890366"><ele>864.65</ele><time>2025-12-06T21:05:27.000Z</time></trkpt>
        <trkpt lat="27.2587578" lon="102.8890971"><ele>862.88</ele><time>2025-12-06T21:05:33.000Z</time></trkpt>
        <trkpt lat="27.2587237" lon="102.8891454"><ele>860.96</ele><time>2025-12-06T21:06:05.000Z</time></trkpt>
        <trkpt lat="27.258686" lon="102.889185"><ele>859.15</ele><time>2025-12-06T21:06:11.000Z</time></trkpt>
        <trkpt lat="27.2586475" lon="102.8892311"><ele>858.08</ele><time>2025-12-06T21:06:19.000Z</time></trkpt>
        <trkpt lat="27.2585874" lon="102.8892566"><ele>858.05</ele><time>2025-12-06T21:06:25.000Z</time></trkpt>
        <trkpt lat="27.258532" lon="102.8892357"><ele>858.1</ele><time>2025-12-06T21:06:37.000Z</time></trkpt>
        <trkpt lat="27.2584835" lon="102.8892099"><ele>858.38</ele><time>2025-12-06T21:06:41.000Z</time></trkpt>
        <trkpt lat="27.2584298" lon="102.8891895"><ele>858.2</ele><time>2025-12-06T21:06:47.000Z</time></trkpt>
        <trkpt lat="27.2583724" lon="102.8891942"><ele>857.97</ele><time>2025-12-06T21:06:53.000Z</time></trkpt>
        <trkpt lat="27.2583193" lon="102.8892252"><ele>857.49</ele><time>2025-12-06T21:06:59.000Z</time></trkpt>
        <trkpt lat="27.2582717" lon="102.8892655"><ele>856.99</ele><time>2025-12-06T21:07:05.000Z</time></trkpt>
        <trkpt lat="27.2582265" lon="102.8892966"><ele>856.34</ele><time>2025-12-06T21:07:10.000Z</time></trkpt>
        <trkpt lat="27.2581877" lon="102.8893289"><ele>855.72</ele><time>2025-12-06T21:07:13.000Z</time></trkpt>
        <trkpt lat="27.2581479" lon="102.8893638"><ele>855.12</ele><time>2025-12-06T21:07:17.000Z</time></trkpt>
        <trkpt lat="27.2581074" lon="102.8894084"><ele>854.66</ele><time>2025-12-06T21:07:23.000Z</time></trkpt>
        <trkpt lat="27.2580494" lon="102.8894487"><ele>853.98</ele><time>2025-12-06T21:07:29.000Z</time></trkpt>
        <trkpt lat="27.2579951" lon="102.8894648"><ele>853.09</ele><time>2025-12-06T21:07:33.000Z</time></trkpt>
        <trkpt lat="27.2579334" lon="102.8894443"><ele>851.78</ele><time>2025-12-06T21:07:39.000Z</time></trkpt>
        <trkpt lat="27.257883" lon="102.8894178"><ele>850.83</ele><time>2025-12-06T21:07:43.000Z</time></trkpt>
        <trkpt lat="27.2578425" lon="102.8893818"><ele>850.2</ele><time>2025-12-06T21:07:47.000Z</time></trkpt>
        <trkpt lat="27.2578053" lon="102.8893425"><ele>849.53</ele><time>2025-12-06T21:07:51.000Z</time></trkpt>
        <trkpt lat="27.257766" lon="102.8893071"><ele>848.9</ele><time>2025-12-06T21:07:55.000Z</time></trkpt>
        <trkpt lat="27.2577233" lon="102.889291"><ele>848.38</ele><time>2025-12-06T21:07:59.000Z</time></trkpt>
        <trkpt lat="27.2576792" lon="102.8892801"><ele>848.03</ele><time>2025-12-06T21:08:04.000Z</time></trkpt>
        <trkpt lat="27.2576327" lon="102.8892723"><ele>847.81</ele><time>2025-12-06T21:08:07.000Z</time></trkpt>
        <trkpt lat="27.2575851" lon="102.889269"><ele>847.48</ele><time>2025-12-06T21:08:11.000Z</time></trkpt>
        <trkpt lat="27.2575377" lon="102.8892692"><ele>846.99</ele><time>2025-12-06T21:08:15.000Z</time></trkpt>
        <trkpt lat="27.2574761" lon="102.8892582"><ele>846.42</ele><time>2025-12-06T21:08:22.000Z</time></trkpt>
        <trkpt lat="27.2574246" lon="102.8892454"><ele>845.86</ele><time>2025-12-06T21:08:25.000Z</time></trkpt>
        <trkpt lat="27.2573709" lon="102.8892357"><ele>845.4</ele><time>2025-12-06T21:08:29.000Z</time></trkpt>
        <trkpt lat="27.2573081" lon="102.8892247"><ele>845.05</ele><time>2025-12-06T21:08:35.000Z</time></trkpt>
        <trkpt lat="27.257256" lon="102.889213"><ele>844.51</ele><time>2025-12-06T21:08:39.000Z</time></trkpt>
        <trkpt lat="27.2572109" lon="102.8891937"><ele>843.91</ele><time>2025-12-06T21:08:43.000Z</time></trkpt>
        <trkpt lat="27.2571681" lon="102.8891588"><ele>843.48</ele><time>2025-12-06T21:08:51.000Z</time></trkpt>
        <trkpt lat="27.2571304" lon="102.889116"><ele>844.25</ele><time>2025-12-06T21:08:57.000Z</time></trkpt>
        <trkpt lat="27.2570799" lon="102.889087"><ele>845.44</ele><time>2025-12-06T21:09:03.000Z</time></trkpt>
        <trkpt lat="27.2570248" lon="102.8890674"><ele>846.49</ele><time>2025-12-06T21:09:09.000Z</time></trkpt>
        <trkpt lat="27.2569683" lon="102.8890656"><ele>846.9</ele><time>2025-12-06T21:09:13.000Z</time></trkpt>
        <trkpt lat="27.2569127" lon="102.8890892"><ele>846.34</ele><time>2025-12-06T21:09:19.000Z</time></trkpt>
        <trkpt lat="27.2568535" lon="102.8891037"><ele>843.57</ele><time>2025-12-06T21:09:25.000Z</time></trkpt>
        <trkpt lat="27.2568037" lon="102.8890967"><ele>841.67</ele><time>2025-12-06T21:09:29.000Z</time></trkpt>
        <trkpt lat="27.2567603" lon="102.8890734"><ele>840.33</ele><time>2025-12-06T21:09:34.000Z</time></trkpt>
        <trkpt lat="27.256707" lon="102.8890502"><ele>839.71</ele><time>2025-12-06T21:09:39.000Z</time></trkpt>
        <trkpt lat="27.2566458" lon="102.8890219"><ele>839.51</ele><time>2025-12-06T21:09:45.000Z</time></trkpt>
        <trkpt lat="27.2565914" lon="102.8889987"><ele>839.12</ele><time>2025-12-06T21:09:49.000Z</time></trkpt>
        <trkpt lat="27.2565452" lon="102.8889743"><ele>838.29</ele><time>2025-12-06T21:09:53.000Z</time></trkpt>
        <trkpt lat="27.2564898" lon="102.8889419"><ele>837.76</ele><time>2025-12-06T21:09:59.000Z</time></trkpt>
        <trkpt lat="27.2564439" lon="102.8888942"><ele>837.59</ele><time>2025-12-06T21:10:05.000Z</time></trkpt>
        <trkpt lat="27.2564273" lon="102.8888368"><ele>837.48</ele><time>2025-12-06T21:10:10.000Z</time></trkpt>
        <trkpt lat="27.2564198" lon="102.8887803"><ele>837.46</ele><time>2025-12-06T21:10:17.000Z</time></trkpt>
        <trkpt lat="27.2564518" lon="102.8887824"><ele>837.4</ele><time>2025-12-06T21:10:29.000Z</time></trkpt>
        <trkpt lat="27.2565053" lon="102.8887982"><ele>836.75</ele><time>2025-12-06T21:10:43.000Z</time></trkpt>
        <trkpt lat="27.2565816" lon="102.8888195"><ele>834.34</ele><time>2025-12-06T21:10:53.000Z</time></trkpt>
        <trkpt lat="27.2566438" lon="102.8888237"><ele>831.9</ele><time>2025-12-06T21:10:57.000Z</time></trkpt>
        <trkpt lat="27.2566984" lon="102.8888192"><ele>830.1</ele><time>2025-12-06T21:11:01.000Z</time></trkpt>
        <trkpt lat="27.2567527" lon="102.8888074"><ele>826.63</ele><time>2025-12-06T21:11:07.000Z</time></trkpt>
        <trkpt lat="27.2568099" lon="102.888795"><ele>824.73</ele><time>2025-12-06T21:11:13.000Z</time></trkpt>
        <trkpt lat="27.2568664" lon="102.8887776"><ele>823.9</ele><time>2025-12-06T21:11:19.000Z</time></trkpt>
        <trkpt lat="27.2569226" lon="102.8887691"><ele>823.58</ele><time>2025-12-06T21:11:25.000Z</time></trkpt>
        <trkpt lat="27.2569824" lon="102.8887596"><ele>823.4</ele><time>2025-12-06T21:11:31.000Z</time></trkpt>
        <trkpt lat="27.2570319" lon="102.8887597"><ele>823.28</ele><time>2025-12-06T21:11:35.000Z</time></trkpt>
        <trkpt lat="27.2570859" lon="102.8887535"><ele>822.89</ele><time>2025-12-06T21:11:41.000Z</time></trkpt>
        <trkpt lat="27.2571491" lon="102.8887435"><ele>822.26</ele><time>2025-12-06T21:11:47.000Z</time></trkpt>
        <trkpt lat="27.2572121" lon="102.8887315"><ele>821.75</ele><time>2025-12-06T21:11:53.000Z</time></trkpt>
        <trkpt lat="27.2572774" lon="102.8887158"><ele>821.18</ele><time>2025-12-06T21:11:59.000Z</time></trkpt>
        <trkpt lat="27.2573293" lon="102.8887041"><ele>820.32</ele><time>2025-12-06T21:12:03.000Z</time></trkpt>
        <trkpt lat="27.2573887" lon="102.8886835"><ele>819.46</ele><time>2025-12-06T21:12:09.000Z</time></trkpt>
        <trkpt lat="27.2574456" lon="102.8886538"><ele>818.53</ele><time>2025-12-06T21:12:16.000Z</time></trkpt>
        <trkpt lat="27.2574665" lon="102.8885983"><ele>817.56</ele><time>2025-12-06T21:12:21.000Z</time></trkpt>
        <trkpt lat="27.257426" lon="102.8885613"><ele>816.96</ele><time>2025-12-06T21:12:27.000Z</time></trkpt>
        <trkpt lat="27.2573697" lon="102.888526"><ele>816.85</ele><time>2025-12-06T21:12:34.000Z</time></trkpt>
        <trkpt lat="27.2573137" lon="102.8885182"><ele>816.83</ele><time>2025-12-06T21:12:37.000Z</time></trkpt>
        <trkpt lat="27.2572608" lon="102.8885227"><ele>816.79</ele><time>2025-12-06T21:12:41.000Z</time></trkpt>
        <trkpt lat="27.2571964" lon="102.8885311"><ele>816.73</ele><time>2025-12-06T21:12:47.000Z</time></trkpt>
        <trkpt lat="27.2571419" lon="102.8885285"><ele>816.74</ele><time>2025-12-06T21:12:52.000Z</time></trkpt>
        <trkpt lat="27.257079" lon="102.8885209"><ele>816.67</ele><time>2025-12-06T21:12:57.000Z</time></trkpt>
        <trkpt lat="27.2570143" lon="102.8885295"><ele>816.39</ele><time>2025-12-06T21:13:19.000Z</time></trkpt>
        <trkpt lat="27.2569503" lon="102.8885383"><ele>815.31</ele><time>2025-12-06T21:13:25.000Z</time></trkpt>
        <trkpt lat="27.2568997" lon="102.8885409"><ele>814.47</ele><time>2025-12-06T21:13:29.000Z</time></trkpt>
        <trkpt lat="27.2568512" lon="102.8885335"><ele>813.76</ele><time>2025-12-06T21:13:33.000Z</time></trkpt>
        <trkpt lat="27.2567946" lon="102.8885135"><ele>813.21</ele><time>2025-12-06T21:13:39.000Z</time></trkpt>
        <trkpt lat="27.2567468" lon="102.8884888"><ele>812.82</ele><time>2025-12-06T21:13:45.000Z</time></trkpt>
        <trkpt lat="27.2567468" lon="102.8884888"><ele>812.82</ele><time>2025-12-06T21:14:22.000Z</time></trkpt>
        <trkpt lat="27.2567068" lon="102.8884549"><ele>811.53</ele><time>2025-12-06T21:14:48.000Z</time></trkpt>
        <trkpt lat="27.2567068" lon="102.8884549"><ele>811.53</ele><time>2025-12-06T21:14:55.000Z</time></trkpt>
        <trkpt lat="27.2566692" lon="102.8884187"><ele>811.18</ele><time>2025-12-06T21:14:59.000Z</time></trkpt>
        <trkpt lat="27.2566175" lon="102.8883758"><ele>811</ele><time>2025-12-06T21:15:05.000Z</time></trkpt>
        <trkpt lat="27.2565658" lon="102.8883531"><ele>812.29</ele><time>2025-12-06T21:15:11.000Z</time></trkpt>
        <trkpt lat="27.2565171" lon="102.8883478"><ele>812.78</ele><time>2025-12-06T21:15:16.000Z</time></trkpt>
        <trkpt lat="27.2564673" lon="102.8883574"><ele>812.86</ele><time>2025-12-06T21:15:19.000Z</time></trkpt>
        <trkpt lat="27.2564064" lon="102.8883548"><ele>812.89</ele><time>2025-12-06T21:15:25.000Z</time></trkpt>
        <trkpt lat="27.2563411" lon="102.88837"><ele>813.01</ele><time>2025-12-06T21:15:29.000Z</time></trkpt>
        <trkpt lat="27.2563411" lon="102.88837"><ele>813.01</ele><time>2025-12-06T21:15:46.000Z</time></trkpt>
        <trkpt lat="27.2562892" lon="102.888378"><ele>812.98</ele><time>2025-12-06T21:16:04.000Z</time></trkpt>
        <trkpt lat="27.2562892" lon="102.888378"><ele>812.98</ele><time>2025-12-06T21:16:13.000Z</time></trkpt>
        <trkpt lat="27.2562447" lon="102.888396"><ele>812.83</ele><time>2025-12-06T21:16:19.000Z</time></trkpt>
        <trkpt lat="27.2561908" lon="102.8884015"><ele>812.69</ele><time>2025-12-06T21:16:25.000Z</time></trkpt>
        <trkpt lat="27.2561698" lon="102.8884015"><ele>812.63</ele><time>2025-12-06T21:16:27.000Z</time></trkpt>
        <trkpt lat="27.2562197" lon="102.8884026"><ele>812.56</ele><time>2025-12-06T21:16:53.000Z</time></trkpt>
        <trkpt lat="27.2562809" lon="102.8884046"><ele>812.79</ele><time>2025-12-06T21:16:57.000Z</time></trkpt>
        <trkpt lat="27.2563466" lon="102.8884168"><ele>812.99</ele><time>2025-12-06T21:17:04.000Z</time></trkpt>
        <trkpt lat="27.2563466" lon="102.8884168"><ele>812.99</ele><time>2025-12-06T21:18:13.000Z</time></trkpt>
      </trkseg>
  </trk>
</gpx>